LiveATC.Net - Listen to live air traffic control over the Internet!
Airport/ARTCC Code
Frequency Search
(e.g., 124.400, 128.75)
Site-wide search
 


Browse Feeds
Top 50 Feeds
HF Oceanic Feeds
Coverage Map
Bad Weather Areas

LiveATC FAQ
Offer LiveATC feed
Contact LiveATC.net
Press Inquiries

LiveATC on iPhone
LiveATC on Android

LiveATC Mobile
(Mobile browser)

ATC Audio Archives
Interesting Recordings

LiveATC Forums

Home Page
About LiveATC.net


Terms of Use
Privacy Policy

AIRMETs/SIGMETs

FAA Airport Status
NAS Status
Arrival Demand


Server Software By:
Icecast.org
Liquidsoap

Select an area of interest:
U.S. Feeds: Class B Airports | Class C Airports | Class D/Other Airports | ARTCC (Centers)
International Feeds: Canada | Europe | Oceania | Asia | South America | North/Central America | Africa
Misc Feeds: HF Feeds
Search by ICAO/IATA airport code:   (e.g., kbos, kjfk, lax, eham, etc.)


Currently Available Live Feeds: 3042
Status Updated: Sun Oct 02 2022 18:36:38 UTC


NOTICE

Unauthorized use prohibited. See LiveATC.net Terms of Service

U.S. Class D Airport and ARTCCC Feeds

 

KUES Del/Gnd/Twr/02C (Archives)
Brookfield, Wisconsin, United States

Feed Status: UP
Listen in your browser - HTML5 player(in browser, HTML5)
Click here to listen with your own player(launches your MP3 player)

KUES 021745Z 06012G17KT 10SM SCT024 16/10 A3043

KUES Airport Info (Airnav.com)

KUES Flight Activity (Flightaware)

Listeners: 0 out of 2245 total

Capitol CTAF: 122.700
Waukesha Clearance Delivery: 128.700
Waukesha Ground: 121.600
Waukesha Tower: 123.700

0V4 CTAF (Archives)
Brookneal, Virginia, United States

Feed Status: UP
Listen in your browser - HTML5 player(in browser, HTML5)
Click here to listen with your own player(launches your MP3 player)

K0V4 Airport Info (Airnav.com)

K0V4 Flight Activity (Flightaware)

Listeners: 0 out of 2245 total

Brookneal CTAF: 122.700

SNJ Area CTAF 122.8 (Archives)
Cross Keys, New Jersey, United States

Feed Status: UP
Listen in your browser - HTML5 player(in browser, HTML5)
Click here to listen with your own player(launches your MP3 player)

KPNE 021821Z 05013KT 2SM +RA BR BKN009 BKN015 OVC026 12/12 A3007 RMK AO2 PK WND 03026/1803 P0024 T01220117 $

KPNE Airport Info (Airnav.com)

KPNE Flight Activity (Flightaware)

Listeners: 0 out of 2245 total

CTAF: 122.800

MA/NH/RI/CT Area CTAF (Archives)
Hopedale, Massachusetts, United States

Feed Status: UP
Listen in your browser - HTML5 player(in browser, HTML5)
Click here to listen with your own player(launches your MP3 player)

KBOS 021754Z 04022G29KT 10SM FEW047 BKN140 BKN250 13/03 A3023 RMK AO2 PK WND 02030/1722 SLP235 T01280033 10133 20122 50002

KBOS Airport Info (Airnav.com)

KBOS Flight Activity (Flightaware)

Listeners: 0 out of 2245 total

Air-to-Air: 122.750
Bridgeport Flight Service: 122.200
CTAF: 122.700
CTAF: 122.800
CTAF: 122.900
CTAF: 123.000
Emergency/Guard: 121.500

MA/NH/RI/CT Area CTAF (Archives)
Hopedale, Massachusetts, United States

Feed Status: UP
Listen in your browser - HTML5 player(in browser, HTML5)
Click here to listen with your own player(launches your MP3 player)

KBOS 021754Z 04022G29KT 10SM FEW047 BKN140 BKN250 13/03 A3023 RMK AO2 PK WND 02030/1722 SLP235 T01280033 10133 20122 50002

KBOS Airport Info (Airnav.com)

KBOS Flight Activity (Flightaware)

Listeners: 0 out of 2245 total

Air-to-Air: 122.750
Bridgeport Flight Service: 122.200
CTAF: 122.700
CTAF: 122.800
CTAF: 122.900
CTAF: 123.000
Emergency/Guard: 121.500

MA/NH/RI/CT Area CTAF (Archives)
Hopedale, Massachusetts, United States

Feed Status: UP
Listen in your browser - HTML5 player(in browser, HTML5)
Click here to listen with your own player(launches your MP3 player)

KBOS 021754Z 04022G29KT 10SM FEW047 BKN140 BKN250 13/03 A3023 RMK AO2 PK WND 02030/1722 SLP235 T01280033 10133 20122 50002

KBOS Airport Info (Airnav.com)

KBOS Flight Activity (Flightaware)

Listeners: 0 out of 2245 total

Air-to-Air: 122.750
Bridgeport Flight Service: 122.200
CTAF: 122.700
CTAF: 122.800
CTAF: 122.900
CTAF: 123.000
Emergency/Guard: 121.500

1B9 Area Guard (Archives)
Mansfield, Massachusetts, United States

Feed Status: UP
Listen in your browser - HTML5 player(in browser, HTML5)
Click here to listen with your own player(launches your MP3 player)


Listeners: 0 out of 2245 total

Emergency/Guard: 121.500

1B9 CTAF #1 (Archives)
Mansfield, Massachusetts, United States

Feed Status: UP
Listen in your browser - HTML5 player(in browser, HTML5)
Click here to listen with your own player(launches your MP3 player)


Listeners: 0 out of 2245 total

Mansfield CTAF/UNICOM: 123.000

1B9 CTAF #2 (Archives)
Mansfield, Massachusetts, United States

Feed Status: UP
Listen in your browser - HTML5 player(in browser, HTML5)
Click here to listen with your own player(launches your MP3 player)


Listeners: 0 out of 2245 total

Mansfield CTAF/UNICOM: 123.000

1B9 CTAF/RCO (Archives)
Mansfield, Massachusetts, United States

Feed Status: UP
Listen in your browser - HTML5 player(in browser, HTML5)
Click here to listen with your own player(launches your MP3 player)


Listeners: 0 out of 2245 total

Bridgeport FSS (RCO): 122.500
Mansfield CTAF/UNICOM: 123.000

1B9 Del/RCO #1 (Archives)
Mansfield, Massachusetts, United States

Feed Status: UP
Listen in your browser - HTML5 player(in browser, HTML5)
Click here to listen with your own player(launches your MP3 player)


Listeners: 0 out of 2245 total

Mansfield Clearance Delivery (RCO): 122.500

1B9 Del/RCO #2 (Archives)
Mansfield, Massachusetts, United States

Feed Status: UP
Listen in your browser - HTML5 player(in browser, HTML5)
Click here to listen with your own player(launches your MP3 player)


Listeners: 0 out of 2245 total

Mansfield Clearance Delivery (RCO): 122.500

1C9 CTAF (Archives)
Hollister, California, United States

Feed Status: UP
Listen in your browser - HTML5 player(in browser, HTML5)
Click here to listen with your own player(launches your MP3 player)

K1C9 Airport Info (Airnav.com)

K1C9 Flight Activity (Flightaware)

Listeners: 0 out of 2245 total

Frazier CTAF: 123.050

KGBR/20N CTAF
Kingston, New York, United States

Feed Status: DOWN
Offline since: 2020-11-21 13:08:39 UTC

KGBR Airport Info (Airnav.com)

Great Barrington CTAF: 122.800

26MA CTAF (Archives)
Pepperell, Massachusetts, United States

Feed Status: UP
Listen in your browser - HTML5 player(in browser, HTML5)
Click here to listen with your own player(launches your MP3 player)

KMHT 021753Z 02011G21KT 10SM SCT060 BKN120 BKN250 13/M02 A3025 RMK AO2 SLP259 T01281022 10133 20106 58003

KMHT Airport Info (Airnav.com)

KMHT Flight Activity (Flightaware)

Listeners: 0 out of 2245 total

CTAF: 123.050

2B1 CTAF
Marstons Mills, Massachusetts, United States

Feed Status: DOWN
Offline since: 2021-11-19 19:34:05 UTC

KHYA 021756Z 03019G31KT 10SM OVC018 13/09 A3013 RMK AO2 PK WND 04032/1716 SLP203 T01330089 10150 20133 51009

KHYA Airport Info (Airnav.com)

Marstons Mills CTAF: 122.900

MA/NH/RI/CT Area CTAF (Archives)
Newburyport, Massachusetts, United States

Feed Status: UP
Listen in your browser - HTML5 player(in browser, HTML5)
Click here to listen with your own player(launches your MP3 player)

KBOS 021754Z 04022G29KT 10SM FEW047 BKN140 BKN250 13/03 A3023 RMK AO2 PK WND 02030/1722 SLP235 T01280033 10133 20122 50002

KBOS Airport Info (Airnav.com)

KBOS Flight Activity (Flightaware)

Listeners: 0 out of 2245 total

Air-to-Air: 122.750
Bridgeport Flight Service: 122.200
CTAF: 122.700
CTAF: 122.800
CTAF: 122.900
CTAF: 123.000
Emergency/Guard: 121.500

MA/NH/RI/CT Area CTAF (Archives)
Newburyport, Massachusetts, United States

Feed Status: UP
Listen in your browser - HTML5 player(in browser, HTML5)
Click here to listen with your own player(launches your MP3 player)

KBOS 021754Z 04022G29KT 10SM FEW047 BKN140 BKN250 13/03 A3023 RMK AO2 PK WND 02030/1722 SLP235 T01280033 10133 20122 50002

KBOS Airport Info (Airnav.com)

KBOS Flight Activity (Flightaware)

Listeners: 0 out of 2245 total

Air-to-Air: 122.750
Bridgeport Flight Service: 122.200
CTAF: 122.700
CTAF: 122.800
CTAF: 122.900
CTAF: 123.000
Emergency/Guard: 121.500

MA/NH/RI/CT Area CTAF (Archives)
Newburyport, Massachusetts, United States

Feed Status: UP
Listen in your browser - HTML5 player(in browser, HTML5)
Click here to listen with your own player(launches your MP3 player)

KBOS 021754Z 04022G29KT 10SM FEW047 BKN140 BKN250 13/03 A3023 RMK AO2 PK WND 02030/1722 SLP235 T01280033 10133 20122 50002

KBOS Airport Info (Airnav.com)

KBOS Flight Activity (Flightaware)

Listeners: 0 out of 2245 total

Air-to-Air: 122.750
Bridgeport Flight Service: 122.200
CTAF: 122.700
CTAF: 122.800
CTAF: 122.900
CTAF: 123.000
Emergency/Guard: 121.500

2GC CTAF (Archives)
Fayetteville, North Carolina, United States

Feed Status: UP
Listen in your browser - HTML5 player(in browser, HTML5)
Click here to listen with your own player(launches your MP3 player)

KFAY 021753Z 35007KT 10SM OVC034 20/12 A2991 RMK AO2 SLP122 T02000122 10206 20133 56005

KFAY Airport Info (Airnav.com)

KFAY Flight Activity (Flightaware)

Listeners: 0 out of 2245 total

Grays Creek CTAF: 122.900

2NC0 CTAF (Archives)
Burnsville, North Carolina, United States

Feed Status: UP
Listen in your browser - HTML5 player(in browser, HTML5)
Click here to listen with your own player(launches your MP3 player)


Listeners: 0 out of 2245 total

Mountain Air CTAF: 122.725

2O3 CTAF (Archives)
Angwin, California, United States

Feed Status: UP
Listen in your browser - HTML5 player(in browser, HTML5)
Click here to listen with your own player(launches your MP3 player)


Listeners: 0 out of 2245 total

Angwin CTAF: 123.000

39N CTAF (Archives)
Princeton/Rocky Hill, New Jersey, United States

Feed Status: UP
Listen in your browser - HTML5 player(in browser, HTML5)
Click here to listen with your own player(launches your MP3 player)


Listeners: 0 out of 2245 total

Princeton CTAF: 122.725

3CK/KBUU CTAF
Chicago/Lake In The Hills, Illinois, United States

Feed Status: DOWN
Offline since: 2022-08-25 16:52:15 UTC

K3CK Airport Info (Airnav.com)

Lake in the Hills CTAF: 123.050

3M5 CTAF (Archives)
Huntsville, Alabama, United States

Feed Status: UP
Listen in your browser - HTML5 player(in browser, HTML5)
Click here to listen with your own player(launches your MP3 player)


Listeners: 0 out of 2245 total

Moontown CTAF: 122.700

3N6 CTAF (Archives)
Old Bridge, New Jersey, United States

Feed Status: UP
Listen in your browser - HTML5 player(in browser, HTML5)
Click here to listen with your own player(launches your MP3 player)


Listeners: 0 out of 2245 total

Old Bridge CTAF: 123.075

KBLM/N12/3N6/KMJX (Archives)
Old Bridge, New Jersey, United States

Feed Status: UP
Listen in your browser - HTML5 player(in browser, HTML5)
Click here to listen with your own player(launches your MP3 player)

KBLM 021756Z AUTO 04017G24KT 6SM -RA OVC009 13/ A3007 RMK AO2 PK WND 03026/1725 SLP183 P0001 60030 T0128 10144 20128 51010

KBLM Airport Info (Airnav.com)

KBLM Flight Activity (Flightaware)

Listeners: 0 out of 2245 total

3N6 Old Bridge CTAF: 123.075
Emergency/Guard: 121.500
Monmouth Clearance: 120.950
Monmouth Clearance: 126.150
Monmouth CTAF: 123.000
N12 Lakewood CTAF: 122.800
Ocean County KMJX CTAF: 122.700

3R9 CTAF
Lakeway, Texas, United States

Feed Status: DOWN
Offline since: 2022-09-10 17:51:39 UTC

Lakeway CTAF: 123.000

3S8 CTAF (Archives)
Grants Pass, Oregon, United States

Feed Status: UP
Listen in your browser - HTML5 player(in browser, HTML5)
Click here to listen with your own player(launches your MP3 player)


Listeners: 0 out of 2245 total

Grants Pass CTAF: 122.800

44N/KMGJ CTAF (Archives)
Millbrook, New York, United States

Feed Status: UP
Listen in your browser - HTML5 player(in browser, HTML5)
Click here to listen with your own player(launches your MP3 player)


Listeners: 0 out of 2245 total

44N Sky Acres CTAF: 122.800
CTAF 122.700: 122.700
CTAF 122.9: 122.900
KMGJ Orange County Clearance: 123.850
KMGJ Orange County CTAF: 122.725

46U AWOS (Archives)
Alpine, Wyoming, United States

Feed Status: UP
Listen in your browser - HTML5 player(in browser, HTML5)
Click here to listen with your own player(launches your MP3 player)


Listeners: 0 out of 2245 total

Alpine AWOS: 119.925

46U CTAF (Archives)
Alpine, Wyoming, United States

Feed Status: UP
Listen in your browser - HTML5 player(in browser, HTML5)
Click here to listen with your own player(launches your MP3 player)


Listeners: 0 out of 2245 total

Alpine CTAF: 122.900

47N CTAF (Archives)
Manville, New Jersey, United States

Feed Status: UP
Listen in your browser - HTML5 player(in browser, HTML5)
Click here to listen with your own player(launches your MP3 player)


Listeners: 0 out of 2245 total

Central Jersey CTAF: 122.700

NY1/4B0 CTAF
South Bethlehem, New York, United States

Feed Status: DOWN
Offline since: 2020-11-21 13:08:40 UTC

Kline Kill CTAF: 122.900

4NY8 CTAF (Archives)
Elmira, New York, United States

Feed Status: UP
Listen in your browser - HTML5 player(in browser, HTML5)
Click here to listen with your own player(launches your MP3 player)

KELM 021753Z 01009KT 10SM CLR 14/08 A3021 RMK AO2 SLP229 T01440078 10144 20100 50002

KELM Airport Info (Airnav.com)

KELM Flight Activity (Flightaware)

Listeners: 0 out of 2245 total

Harris Gliderport CTAF: 123.300

4S1 CTAF (Archives)
Gold Beach, Oregon, United States

Feed Status: UP
Listen in your browser - HTML5 player(in browser, HTML5)
Click here to listen with your own player(launches your MP3 player)

K4S1 Airport Info (Airnav.com)

K4S1 Flight Activity (Flightaware)

Listeners: 0 out of 2245 total

Gold Beach CTAF: 122.800

54AZ CTAF (Archives)
Somerton, Arizona, United States

Feed Status: UP
Listen in your browser - HTML5 player(in browser, HTML5)
Click here to listen with your own player(launches your MP3 player)


Listeners: 0 out of 2245 total

Somerton CTAF: 123.000

KMTC Area CTAF
Ray, Michigan, United States

Feed Status: DOWN
Offline since: 2021-08-25 06:45:39 UTC

KMTC 021756Z 03014KT 10SM FEW030 17/06 A3030 RMK AO2A SLP266 T01730055 10173 20091 58006

KMTC Airport Info (Airnav.com)

Air to Air: 123.450
Marine City CTAF (76G): 123.000
Port Huron CTAF: 123.050
Ray CTAF: 122.700
Romeo CTAF: 122.800
St Clair CTAF: 122.800
Troy CTAF: 123.050

5A2/5GE1 CTAF (Archives)
Warner Robins, Georgia, United States

Feed Status: UP
Listen in your browser - HTML5 player(in browser, HTML5)
Click here to listen with your own player(launches your MP3 player)


Listeners: 0 out of 2245 total

Warner Robins/Peachtree Landings CTAF: 122.900

5B6/KCQX/KPVC CTAF
Falmouth, Massachusetts, United States

Feed Status: DOWN
Offline since: 2021-11-19 19:34:05 UTC

KHYA 021756Z 03019G31KT 10SM OVC018 13/09 A3013 RMK AO2 PK WND 04032/1716 SLP203 T01330089 10150 20133 51009

KHYA Airport Info (Airnav.com)

Falmouth/Chatham/Provincetown CTAF: 122.800

5C1 CTAF (Archives)
San Antonio, Texas, United States

Feed Status: UP
Listen in your browser - HTML5 player(in browser, HTML5)
Click here to listen with your own player(launches your MP3 player)

K5C1 021815Z AUTO 12004KT 10SM CLR 26/06 A3017 RMK AO1

K5C1 Airport Info (Airnav.com)

K5C1 Flight Activity (Flightaware)

Listeners: 0 out of 2245 total

Boerne Stage CTAF: 123.000

5A2/5GE1 CTAF (Archives)
Fort Valley, Georgia, United States

Feed Status: UP
Listen in your browser - HTML5 player(in browser, HTML5)
Click here to listen with your own player(launches your MP3 player)


Listeners: 0 out of 2245 total

Warner Robins/Peachtree Landings CTAF: 122.900

KMTC Area CTAF
St Clair, Michigan, United States

Feed Status: DOWN
Offline since: 2021-08-25 06:45:39 UTC

KMTC 021756Z 03014KT 10SM FEW030 17/06 A3030 RMK AO2A SLP266 T01730055 10173 20091 58006

KMTC Airport Info (Airnav.com)

Air to Air: 123.450
Marine City CTAF (76G): 123.000
Port Huron CTAF: 123.050
Ray CTAF: 122.700
Romeo CTAF: 122.800
St Clair CTAF: 122.800
Troy CTAF: 123.050

MA/NH CTAF 122.8 (Archives)
Stow, Massachusetts, United States

Feed Status: UP
Listen in your browser - HTML5 player(in browser, HTML5)
Click here to listen with your own player(launches your MP3 player)

KMHT 021753Z 02011G21KT 10SM SCT060 BKN120 BKN250 13/M02 A3025 RMK AO2 SLP259 T01281022 10133 20106 58003

KMHT Airport Info (Airnav.com)

KMHT Flight Activity (Flightaware)

Listeners: 0 out of 2245 total

MA/NH Area CTAF: 122.800

MA/NH/RI/CT Area CTAF (Archives)
Stow, Massachusetts, United States

Feed Status: UP
Listen in your browser - HTML5 player(in browser, HTML5)
Click here to listen with your own player(launches your MP3 player)

KBOS 021754Z 04022G29KT 10SM FEW047 BKN140 BKN250 13/03 A3023 RMK AO2 PK WND 02030/1722 SLP235 T01280033 10133 20122 50002

KBOS Airport Info (Airnav.com)

KBOS Flight Activity (Flightaware)

Listeners: 0 out of 2245 total

Air-to-Air: 122.750
Bridgeport Flight Service: 122.200
CTAF: 122.700
CTAF: 122.800
CTAF: 122.900
CTAF: 123.000
Emergency/Guard: 121.500

MA/NH/RI/CT Area CTAF (Archives)
Stow, Massachusetts, United States

Feed Status: UP
Listen in your browser - HTML5 player(in browser, HTML5)
Click here to listen with your own player(launches your MP3 player)

KBOS 021754Z 04022G29KT 10SM FEW047 BKN140 BKN250 13/03 A3023 RMK AO2 PK WND 02030/1722 SLP235 T01280033 10133 20122 50002

KBOS Airport Info (Airnav.com)

KBOS Flight Activity (Flightaware)

Listeners: 0 out of 2245 total

Air-to-Air: 122.750
Bridgeport Flight Service: 122.200
CTAF: 122.700
CTAF: 122.800
CTAF: 122.900
CTAF: 123.000
Emergency/Guard: 121.500

MA/NH/RI/CT Area CTAF (Archives)
Stow, Massachusetts, United States

Feed Status: UP
Listen in your browser - HTML5 player(in browser, HTML5)
Click here to listen with your own player(launches your MP3 player)

KBOS 021754Z 04022G29KT 10SM FEW047 BKN140 BKN250 13/03 A3023 RMK AO2 PK WND 02030/1722 SLP235 T01280033 10133 20122 50002

KBOS Airport Info (Airnav.com)

KBOS Flight Activity (Flightaware)

Listeners: 0 out of 2245 total

Air-to-Air: 122.750
Bridgeport Flight Service: 122.200
CTAF: 122.700
CTAF: 122.800
CTAF: 122.900
CTAF: 123.000
Emergency/Guard: 121.500

KMTC Area CTAF
Marine City, Michigan, United States

Feed Status: DOWN
Offline since: 2021-08-25 06:45:39 UTC

KMTC 021756Z 03014KT 10SM FEW030 17/06 A3030 RMK AO2A SLP266 T01730055 10173 20091 58006

KMTC Airport Info (Airnav.com)

Air to Air: 123.450
Marine City CTAF (76G): 123.000
Port Huron CTAF: 123.050
Ray CTAF: 122.700
Romeo CTAF: 122.800
St Clair CTAF: 122.800
Troy CTAF: 123.050

77S CTAF (Archives)
Creswell, Oregon, United States

Feed Status: UP
Listen in your browser - HTML5 player(in browser, HTML5)
Click here to listen with your own player(launches your MP3 player)


Listeners: 0 out of 2245 total

Creswell CTAF: 122.700

7B2 CTAF (Archives)
Northampton, Massachusetts, United States

Feed Status: UP
Listen in your browser - HTML5 player(in browser, HTML5)
Click here to listen with your own player(launches your MP3 player)


Listeners: 2 out of 2245 total

Northampton CTAF: 122.700

MA/NH CTAF 122.8 (Archives)
Hampton, New Hampshire, United States

Feed Status: UP
Listen in your browser - HTML5 player(in browser, HTML5)
Click here to listen with your own player(launches your MP3 player)

KMHT 021753Z 02011G21KT 10SM SCT060 BKN120 BKN250 13/M02 A3025 RMK AO2 SLP259 T01281022 10133 20106 58003

KMHT Airport Info (Airnav.com)

KMHT Flight Activity (Flightaware)

Listeners: 0 out of 2245 total

MA/NH Area CTAF: 122.800

7FL6 CTAF
Daytona Beach, Florida, United States

Feed Status: DOWN
Offline since: 2022-04-11 02:23:39 UTC

Spruce Creek CTAF/UNICOM: 122.725

7S5 CTAF (Archives)
Independence, Oregon, United States

Feed Status: UP
Listen in your browser - HTML5 player(in browser, HTML5)
Click here to listen with your own player(launches your MP3 player)


Listeners: 1 out of 2245 total

Independence CTAF/UNICOM: 122.975

B18/Lake Area CTAF (Archives)
Alton Bay, New Hampshire, United States

Feed Status: UP
Listen in your browser - HTML5 player(in browser, HTML5)
Click here to listen with your own player(launches your MP3 player)

KLCI 021756Z AUTO 06012KT 10SM CLR 13/00 A3027 RMK AO2 SLP253 T01280000 10128 20083 58006

KLCI Airport Info (Airnav.com)

KLCI Flight Activity (Flightaware)

Listeners: 0 out of 2245 total

NH Area CTAF (Lakes Region): 122.800

C29 CTAF (Archives)
Middleton, Wisconsin, United States

Feed Status: UP
Listen in your browser - HTML5 player(in browser, HTML5)
Click here to listen with your own player(launches your MP3 player)

KC29 021815Z AUTO 03007KT 10SM SCT026 19/12 A3042 RMK AO1 T01900115

KC29 Airport Info (Airnav.com)

KC29 Flight Activity (Flightaware)

Listeners: 0 out of 2245 total

Morey CTAF: 123.000

KMTC Area CTAF
Romeo, Michigan, United States

Feed Status: DOWN
Offline since: 2021-08-25 06:45:39 UTC

KMTC 021756Z 03014KT 10SM FEW030 17/06 A3030 RMK AO2A SLP266 T01730055 10173 20091 58006

KMTC Airport Info (Airnav.com)

Air to Air: 123.450
Marine City CTAF (76G): 123.000
Port Huron CTAF: 123.050
Ray CTAF: 122.700
Romeo CTAF: 122.800
St Clair CTAF: 122.800
Troy CTAF: 123.050

KGIF/F57 CTAF
Winter Haven, Florida, United States

Feed Status: DOWN
Offline since: 2022-09-28 19:53:39 UTC

KGIF 021753Z AUTO 32009KT 10SM CLR 36/17 A2993 RMK AO2 SLPNO T03610172 10367 20211 58013 $

KGIF Airport Info (Airnav.com)

Winter Haven CTAF: 123.050

F70 CTAF
Murrieta/Temecula, California, United States

Feed Status: DOWN
Offline since: 2022-09-28 18:01:22 UTC

KF70 021815Z AUTO 17004KT 10SM CLR 22/14 A2998 RMK AO2

KF70 Airport Info (Airnav.com)

French Valley CTAF: 122.800

FA40 CTAF (Archives)
New Port Richey, Florida, United States

Feed Status: UP
Listen in your browser - HTML5 player(in browser, HTML5)
Click here to listen with your own player(launches your MP3 player)


Listeners: 0 out of 2245 total

Hidden Lake CTAF: 123.000

I35 CTAF/ZID (Archives)
Harlan, Kentucky, United States

Feed Status: UP
Listen in your browser - HTML5 player(in browser, HTML5)
Click here to listen with your own player(launches your MP3 player)

KI35 021815Z AUTO 00000KT 5SM OVC010 12/11 A3014 RMK AO2 T01160113

KI35 Airport Info (Airnav.com)

KI35 Flight Activity (Flightaware)

Listeners: 0 out of 2245 total

Harlan CTAF: 122.800
Indy Center (Sector 21 London Low): 121.325
Indy Center (Sector 21 London Low): 124.625
Indy Center (Sector 25 AZQ Low): 126.575

I40 AWOS (Archives)
Coshocton, Ohio, United States

Feed Status: UP
Listen in your browser - HTML5 player(in browser, HTML5)
Click here to listen with your own player(launches your MP3 player)


Listeners: 0 out of 2245 total

Coshocton AWOS: 118.875

I40 CTAF (Archives)
Coshocton, Ohio, United States

Feed Status: UP
Listen in your browser - HTML5 player(in browser, HTML5)
Click here to listen with your own player(launches your MP3 player)


Listeners: 0 out of 2245 total

Coshocton CTAF: 123.000

K1H0 CTAF/Unicom (Archives)
St. Louis, Missouri, United States

Feed Status: UP
Listen in your browser - HTML5 player(in browser, HTML5)
Click here to listen with your own player(launches your MP3 player)

K1H0 Airport Info (Airnav.com)

K1H0 Flight Activity (Flightaware)

Listeners: 0 out of 2245 total

Creve Coeur CTAF: 122.800

KIXD Ground/Tower/K34 (Archives)
Gardner, Kansas, United States

Feed Status: UP
Listen in your browser - HTML5 player(in browser, HTML5)
Click here to listen with your own player(launches your MP3 player)

KIXD 021753Z AUTO 13007KT 10SM CLR 24/06 A3030 RMK AO2 SLP255 T02390056 10239 20089 58003

KIXD Airport Info (Airnav.com)

KIXD Flight Activity (Flightaware)

Listeners: 0 out of 2245 total

K34 CTAF: 122.800
New Century Ground: 124.300
New Century Tower: 133.000

KAAO CTAF/KBEC Twr
Wichita, Kansas, United States

Feed Status: DOWN
Offline since: 2022-07-21 02:31:39 UTC

KAAO 021754Z AUTO 14006KT 10SM CLR 27/03 A3025 RMK AO2 SLP235 T02670033 10267 20094 58004

KAAO Airport Info (Airnav.com)

Beech Tower: 126.800
Jabara CTAF: 122.700

KACK App/Dep (Archives)
Nantucket, Massachusetts, United States

Feed Status: UP
Listen in your browser - HTML5 player(in browser, HTML5)
Click here to listen with your own player(launches your MP3 player)

KACK 021753Z 04020G30KT 10SM BKN018 OVC026 16/12 A3009 RMK AO2 PK WND 04035/1729 SLP190 T01560122 10167 20150 51007 $

KACK Airport Info (Airnav.com)

KACK Flight Activity (Flightaware)

Listeners: 1 out of 2245 total

Cape Approach (Nantucket Sector): 126.100

KACK ATIS (Archives)
Nantucket, Massachusetts, United States

Feed Status: UP
Listen in your browser - HTML5 player(in browser, HTML5)
Click here to listen with your own player(launches your MP3 player)

KACK 021753Z 04020G30KT 10SM BKN018 OVC026 16/12 A3009 RMK AO2 PK WND 04035/1729 SLP190 T01560122 10167 20150 51007 $

KACK Airport Info (Airnav.com)

KACK Flight Activity (Flightaware)

Listeners: 0 out of 2245 total

Nantucket ATIS: 127.500

KACK Ground (Archives)
Nantucket, Massachusetts, United States

Feed Status: UP
Listen in your browser - HTML5 player(in browser, HTML5)
Click here to listen with your own player(launches your MP3 player)

KACK 021753Z 04020G30KT 10SM BKN018 OVC026 16/12 A3009 RMK AO2 PK WND 04035/1729 SLP190 T01560122 10167 20150 51007 $

KACK Airport Info (Airnav.com)

KACK Flight Activity (Flightaware)

Listeners: 0 out of 2245 total

Nantucket Clearance Delivery: 119.375
Nantucket Ground: 132.500

KACK Tower (Archives)
Nantucket, Massachusetts, United States

Feed Status: UP
Listen in your browser - HTML5 player(in browser, HTML5)
Click here to listen with your own player(launches your MP3 player)

KACK 021753Z 04020G30KT 10SM BKN018 OVC026 16/12 A3009 RMK AO2 PK WND 04035/1729 SLP190 T01560122 10167 20150 51007 $

KACK Airport Info (Airnav.com)

KACK Flight Activity (Flightaware)

Listeners: 0 out of 2245 total

Nantucket Tower: 118.300

KADS ATIS (Archives)
Dallas, Texas, United States

Feed Status: UP
Listen in your browser - HTML5 player(in browser, HTML5)
Click here to listen with your own player(launches your MP3 player)



KADS Airport Info (Airnav.com)

KADS Flight Activity (Flightaware)

Listeners: 0 out of 2245 total

Addison ATIS: 133.400
Addison ATIS/AWOS: 133.400

KADS Ground (Archives)
Dallas, Texas, United States

Feed Status: UP
Listen in your browser - HTML5 player(in browser, HTML5)
Click here to listen with your own player(launches your MP3 player)



KADS Airport Info (Airnav.com)

KADS Flight Activity (Flightaware)

Listeners: 1 out of 2245 total

Addison Ground: 121.600

KADS Tower (Archives)
Dallas, Texas, United States

Feed Status: UP
Listen in your browser - HTML5 player(in browser, HTML5)
Click here to listen with your own player(launches your MP3 player)



KADS Airport Info (Airnav.com)

KADS Flight Activity (Flightaware)

Listeners: 4 out of 2245 total

Addison Tower: 126.000

KDAA/KADW Tower (Archives)
Camp Springs, Maryland, United States

Feed Status: UP
Listen in your browser - HTML5 player(in browser, HTML5)
Click here to listen with your own player(launches your MP3 player)

KDAA 021812Z AUTO 34005KT 8SM -DZ OVC015 13/12 A3000 RMK AO2 DZB07 SLP162 $

KDAA Airport Info (Airnav.com)

KDAA Flight Activity (Flightaware)

Listeners: 2 out of 2245 total

Andrews Tower: 118.400
Andrews Tower: 349.000
Davison Tower: 241.000
Davison Tower: 126.300
Davison Tower: 229.400

KAEG Twr/App (Archives)
Albuquerque, New Mexico, United States

Feed Status: UP
Listen in your browser - HTML5 player(in browser, HTML5)
Click here to listen with your own player(launches your MP3 player)

KABQ 021752Z VRB05KT 10SM SCT080 BKN120 23/08 A3030 RMK AO2 SLP189 VIRGA NE T02280078 10228 20150 50005

KABQ Airport Info (Airnav.com)

KABQ Flight Activity (Flightaware)

Listeners: 1 out of 2245 total

Double Eagle II Ground: 121.625
Double Eagle II Tower: 120.150
Double Eagle II Tower Clearance: 124.800

MA/NH CTAF 122.8 (Archives)
Jaffrey, New Hampshire, United States

Feed Status: UP
Listen in your browser - HTML5 player(in browser, HTML5)
Click here to listen with your own player(launches your MP3 player)

KMHT 021753Z 02011G21KT 10SM SCT060 BKN120 BKN250 13/M02 A3025 RMK AO2 SLP259 T01281022 10133 20106 58003

KMHT Airport Info (Airnav.com)

KMHT Flight Activity (Flightaware)

Listeners: 0 out of 2245 total

MA/NH Area CTAF: 122.800

KAFW ATIS (Archives)
Fort Worth, Texas, United States

Feed Status: UP
Listen in your browser - HTML5 player(in browser, HTML5)
Click here to listen with your own player(launches your MP3 player)

KAFW 021753Z 10006KT 10SM CLR 26/06 A3019 RMK AO2 SLP213 T02610056 10267 20106 58009

KAFW Airport Info (Airnav.com)

KAFW Flight Activity (Flightaware)

Listeners: 0 out of 2245 total

Alliance ATIS: 126.925

KAFW Regional App (North) (Archives)
Fort Worth, Texas, United States

Feed Status: UP
Listen in your browser - HTML5 player(in browser, HTML5)
Click here to listen with your own player(launches your MP3 player)

KAFW 021753Z 10006KT 10SM CLR 26/06 A3019 RMK AO2 SLP213 T02610056 10267 20106 58009

KAFW Airport Info (Airnav.com)

KAFW Flight Activity (Flightaware)

Listeners: 0 out of 2245 total

Regional Approach (North): 118.100

KAFW Tower/Heli (Archives)
Fort Worth, Texas, United States

Feed Status: UP
Listen in your browser - HTML5 player(in browser, HTML5)
Click here to listen with your own player(launches your MP3 player)

KAFW 021753Z 10006KT 10SM CLR 26/06 A3019 RMK AO2 SLP213 T02610056 10267 20106 58009

KAFW Airport Info (Airnav.com)

KAFW Flight Activity (Flightaware)

Listeners: 0 out of 2245 total

Alliance Tower: 135.150
Alliance Tower (Helicopters): 120.850

KAFW Tower/Heli/App (Archives)
Fort Worth, Texas, United States

Feed Status: UP
Listen in your browser - HTML5 player(in browser, HTML5)
Click here to listen with your own player(launches your MP3 player)

KAFW 021753Z 10006KT 10SM CLR 26/06 A3019 RMK AO2 SLP213 T02610056 10267 20106 58009

KAFW Airport Info (Airnav.com)

KAFW Flight Activity (Flightaware)

Listeners: 0 out of 2245 total

Alliance Tower: 135.150
Alliance Tower (Helicopters): 120.850
Regional Approach (North): 118.100

KAHN Tower (Archives)
Athens, Georgia, United States

Feed Status: UP
Listen in your browser - HTML5 player(in browser, HTML5)
Click here to listen with your own player(launches your MP3 player)

KAHN 021751Z VRB06KT 10SM FEW044 24/11 A2997 RMK AO2 SLP145 T02440106 10244 20111 58002

KAHN Airport Info (Airnav.com)

KAHN Flight Activity (Flightaware)

Listeners: 2 out of 2245 total

Athens Tower: 126.300

KAMW CTAF (Archives)
Ames, Iowa, United States

Feed Status: UP
Listen in your browser - HTML5 player(in browser, HTML5)
Click here to listen with your own player(launches your MP3 player)

KAMW 021753Z AUTO 13007KT 080V150 10SM CLR 22/08 A3033 RMK AO2 SLP266 T02220083 10222 20072 58018

KAMW Airport Info (Airnav.com)

KAMW Flight Activity (Flightaware)

Listeners: 1 out of 2245 total

Ames CTAF: 122.700

KANE Twr/CTAF (Archives)
Minneapolis, Minnesota, United States

Feed Status: UP
Listen in your browser - HTML5 player(in browser, HTML5)
Click here to listen with your own player(launches your MP3 player)

KANE 021750Z 13010KT 10SM FEW120 SCT250 21/10 A3034

KANE Airport Info (Airnav.com)

KANE Flight Activity (Flightaware)

Listeners: 0 out of 2245 total

Anoka Tower/CTAF: 132.400

KANK CTAF (Archives)
Salida, Colorado, United States

Feed Status: UP
Listen in your browser - HTML5 player(in browser, HTML5)
Click here to listen with your own player(launches your MP3 player)

KANK 021810Z AUTO 01005KT 10SM OVC065 12/08 A3046 RMK AO1 T01240080

KANK Airport Info (Airnav.com)

KANK Flight Activity (Flightaware)

Listeners: 0 out of 2245 total

Salida CTAF: 122.700

KAPA App/Dep (Archives)
Denver, Colorado, United States

Feed Status: UP
Listen in your browser - HTML5 player(in browser, HTML5)
Click here to listen with your own player(launches your MP3 player)

KAPA 021753Z 18007KT 10SM -RA FEW050 SCT060 OVC090 17/08 A3022 RMK AO2 RAB47 SLP193 P0000 60001 T01720078 10172 20094 58000 $

KAPA Airport Info (Airnav.com)

KAPA Flight Activity (Flightaware)

Listeners: 0 out of 2245 total

Denver Approach/Departure: 132.750

KAPA Del/Gnd (Archives)
Denver, Colorado, United States

Feed Status: UP
Listen in your browser - HTML5 player(in browser, HTML5)
Click here to listen with your own player(launches your MP3 player)

KAPA 021753Z 18007KT 10SM -RA FEW050 SCT060 OVC090 17/08 A3022 RMK AO2 RAB47 SLP193 P0000 60001 T01720078 10172 20094 58000 $

KAPA Airport Info (Airnav.com)

KAPA Flight Activity (Flightaware)

Listeners: 2 out of 2245 total

Centennial Clearance Delivery: 128.600
Centennial Ground: 121.800

KAPA Tower (Primary) (Archives)
Denver, Colorado, United States

Feed Status: UP
Listen in your browser - HTML5 player(in browser, HTML5)
Click here to listen with your own player(launches your MP3 player)

KAPA 021753Z 18007KT 10SM -RA FEW050 SCT060 OVC090 17/08 A3022 RMK AO2 RAB47 SLP193 P0000 60001 T01720078 10172 20094 58000 $

KAPA Airport Info (Airnav.com)

KAPA Flight Activity (Flightaware)

Listeners: 3 out of 2245 total

Centennial Tower: 118.900

KAPA Tower (Secondary #1) (Archives)
Denver, Colorado, United States

Feed Status: UP
Listen in your browser - HTML5 player(in browser, HTML5)
Click here to listen with your own player(launches your MP3 player)

KAPA 021753Z 18007KT 10SM -RA FEW050 SCT060 OVC090 17/08 A3022 RMK AO2 RAB47 SLP193 P0000 60001 T01720078 10172 20094 58000 $

KAPA Airport Info (Airnav.com)

KAPA Flight Activity (Flightaware)

Listeners: 0 out of 2245 total

Centennial Tower (Rwy 17R/35L or Rwy 28): 123.700

KAPA Tower (Secondary #2) (Archives)
Denver, Colorado, United States

Feed Status: UP
Listen in your browser - HTML5 player(in browser, HTML5)
Click here to listen with your own player(launches your MP3 player)

KAPA 021753Z 18007KT 10SM -RA FEW050 SCT060 OVC090 17/08 A3022 RMK AO2 RAB47 SLP193 P0000 60001 T01720078 10172 20094 58000 $

KAPA Airport Info (Airnav.com)

KAPA Flight Activity (Flightaware)

Listeners: 0 out of 2245 total

Centennial Tower (Rwy 17R/35L or Rwy 28): 124.600

KAPC Del/Gnd (Archives)
Napa, California, United States

Feed Status: UP
Listen in your browser - HTML5 player(in browser, HTML5)
Click here to listen with your own player(launches your MP3 player)

KAPC 021754Z 22008KT 10SM CLR 20/12 A3001 RMK AO2 SLP152 T02000117 10200 20161 51014

KAPC Airport Info (Airnav.com)

KAPC Flight Activity (Flightaware)

Listeners: 0 out of 2245 total

Napa Clearance Delivery: 127.850
Napa Ground: 121.700

KAPC Tower (Archives)
Napa, California, United States

Feed Status: UP
Listen in your browser - HTML5 player(in browser, HTML5)
Click here to listen with your own player(launches your MP3 player)

KAPC 021754Z 22008KT 10SM CLR 20/12 A3001 RMK AO2 SLP152 T02000117 10200 20161 51014

KAPC Airport Info (Airnav.com)

KAPC Flight Activity (Flightaware)

Listeners: 1 out of 2245 total

Napa Tower: 118.700

KAPF ATIS (Archives)
Naples, Florida, United States

Feed Status: UP
Listen in your browser - HTML5 player(in browser, HTML5)
Click here to listen with your own player(launches your MP3 player)

KAPF 021753Z A2993 RMK AO2 SLP135 58010 $

KAPF Airport Info (Airnav.com)

KAPF Flight Activity (Flightaware)

Listeners: 0 out of 2245 total

Naples ATIS: 134.225

KAPF Del/Gnd (Archives)
Naples, Florida, United States

Feed Status: UP
Listen in your browser - HTML5 player(in browser, HTML5)
Click here to listen with your own player(launches your MP3 player)

KAPF 021753Z A2993 RMK AO2 SLP135 58010 $

KAPF Airport Info (Airnav.com)

KAPF Flight Activity (Flightaware)

Listeners: 1 out of 2245 total

Naples Clearance Delivery: 118.000
Naples Ground: 121.600

KAPF Del/Gnd/Twr (Archives)
Naples, Florida, United States

Feed Status: UP
Listen in your browser - HTML5 player(in browser, HTML5)
Click here to listen with your own player(launches your MP3 player)

KAPF 021753Z A2993 RMK AO2 SLP135 58010 $

KAPF Airport Info (Airnav.com)

KAPF Flight Activity (Flightaware)

Listeners: 1 out of 2245 total

Naples Clearance Delivery: 118.000
Naples Ground: 121.600
Naples Tower: 128.500

KAPF Ft Myers App/Dep (Archives)
Naples, Florida, United States

Feed Status: UP
Listen in your browser - HTML5 player(in browser, HTML5)
Click here to listen with your own player(launches your MP3 player)

KAPF 021753Z A2993 RMK AO2 SLP135 58010 $

KAPF Airport Info (Airnav.com)

KAPF Flight Activity (Flightaware)

Listeners: 0 out of 2245 total

Fort Myers Approach/Departure: 124.125
Fort Myers Approach/Departure: 126.800

KAPF Tower (Archives)
Naples, Florida, United States

Feed Status: UP
Listen in your browser - HTML5 player(in browser, HTML5)
Click here to listen with your own player(launches your MP3 player)

KAPF 021753Z A2993 RMK AO2 SLP135 58010 $

KAPF Airport Info (Airnav.com)

KAPF Flight Activity (Flightaware)

Listeners: 1 out of 2245 total

Naples Tower: 128.500

KARB ATIS (Archives)
Ann Arbor, Michigan, United States

Feed Status: UP
Listen in your browser - HTML5 player(in browser, HTML5)
Click here to listen with your own player(launches your MP3 player)



KARB Airport Info (Airnav.com)

KARB Flight Activity (Flightaware)

Listeners: 1 out of 2245 total

Ann Arbor ATIS: 134.550

KARB Gnd/Twr (Archives)
Ann Arbor, Michigan, United States

Feed Status: UP
Listen in your browser - HTML5 player(in browser, HTML5)
Click here to listen with your own player(launches your MP3 player)



KARB Airport Info (Airnav.com)

KARB Flight Activity (Flightaware)

Listeners: 0 out of 2245 total

Ann Arbor Ground: 121.600
Ann Arbor Tower: 120.300

KARB Ground (Archives)
Ann Arbor, Michigan, United States

Feed Status: UP
Listen in your browser - HTML5 player(in browser, HTML5)
Click here to listen with your own player(launches your MP3 player)



KARB Airport Info (Airnav.com)

KARB Flight Activity (Flightaware)

Listeners: 0 out of 2245 total

Ann Arbor Ground: 121.600

KARB Tower
Ann Arbor, Michigan, United States

Feed Status: DOWN
Offline since: 2022-10-02 18:21:05 UTC



KARB Airport Info (Airnav.com)

Ann Arbor Tower: 120.300

KARG CTAF/Memphis Center (Archives)
Walnut Ridge, Arkansas, United States

Feed Status: UP
Listen in your browser - HTML5 player(in browser, HTML5)
Click here to listen with your own player(launches your MP3 player)

KARG 021756Z AUTO VRB06G14KT 10SM CLR 25/09 A3022 RMK AO2 SLP234 T02500089 10250 20089 58008

KARG Airport Info (Airnav.com)

KARG Flight Activity (Flightaware)

Listeners: 0 out of 2245 total

Memphis Center (Sector 04 Jonesboro Low): 120.075
Memphis Center (Sector 04 Jonesboro Low): 289.400
Memphis Center (Sector 27 Jonesboro High): 132.375
Memphis Center (Sector 27 Jonesboro High): 257.600
Memphis Center (Sector 35 Walnut Ridge Ultra-High): 135.225
Memphis Center (Sector 35 Walnut Ridge Ultra-High): 322.300
Walnut Ridge CTAF: 122.800

KARR Tower (Archives)
Chicago/Aurora, Illinois, United States

Feed Status: UP
Listen in your browser - HTML5 player(in browser, HTML5)
Click here to listen with your own player(launches your MP3 player)

KARR 021752Z 05009G20KT 10SM SCT029 19/11 A3037 RMK AO2 SLP284 T01890111 10200 20067 56002

KARR Airport Info (Airnav.com)

KARR Flight Activity (Flightaware)

Listeners: 2 out of 2245 total

Aurora Tower: 120.600

KASE ATIS (Archives)
Aspen, Colorado, United States

Feed Status: UP
Listen in your browser - HTML5 player(in browser, HTML5)
Click here to listen with your own player(launches your MP3 player)

KASE 021753Z 14008KT 10SM FEW040 SCT095 BKN110 12/06 A3035 RMK AO2 SLP192 60001 T01220061 10122 20061 50000

KASE Airport Info (Airnav.com)

KASE Flight Activity (Flightaware)

Listeners: 0 out of 2245 total

Aspen ATIS: 120.400

KASE Gnd/Twr/App/Center (Archives)
Aspen, Colorado, United States

Feed Status: UP
Listen in your browser - HTML5 player(in browser, HTML5)
Click here to listen with your own player(launches your MP3 player)

KASE 021753Z 14008KT 10SM FEW040 SCT095 BKN110 12/06 A3035 RMK AO2 SLP192 60001 T01220061 10122 20061 50000

KASE Airport Info (Airnav.com)

KASE Flight Activity (Flightaware)

Listeners: 0 out of 2245 total

Aspen Approach/Departure: 123.800
Aspen Ground: 121.900
Aspen Tower/CTAF: 118.850
Denver Center (Sector 26 POWDR Low): 119.850

KASE Ground/Tower (Archives)
Aspen, Colorado, United States

Feed Status: UP
Listen in your browser - HTML5 player(in browser, HTML5)
Click here to listen with your own player(launches your MP3 player)

KASE 021753Z 14008KT 10SM FEW040 SCT095 BKN110 12/06 A3035 RMK AO2 SLP192 60001 T01220061 10122 20061 50000

KASE Airport Info (Airnav.com)

KASE Flight Activity (Flightaware)

Listeners: 0 out of 2245 total

Aspen Ground: 121.900
Aspen Tower/CTAF: 118.850

KASE Tower (Archives)
Aspen, Colorado, United States

Feed Status: UP
Listen in your browser - HTML5 player(in browser, HTML5)
Click here to listen with your own player(launches your MP3 player)

KASE 021753Z 14008KT 10SM FEW040 SCT095 BKN110 12/06 A3035 RMK AO2 SLP192 60001 T01220061 10122 20061 50000

KASE Airport Info (Airnav.com)

KASE Flight Activity (Flightaware)

Listeners: 1 out of 2245 total

Aspen Tower/CTAF: 118.850

KASG App/Dep (Archives)
Springdale, Arkansas, United States

Feed Status: UP
Listen in your browser - HTML5 player(in browser, HTML5)
Click here to listen with your own player(launches your MP3 player)

KASG 021748Z 02004KT 10SM CLR 25/09 A3026

KASG Airport Info (Airnav.com)

KASG Flight Activity (Flightaware)

Listeners: 1 out of 2245 total

Razorback Approach/Departure: 126.600

KASG Gnd/Twr (Archives)
Springdale, Arkansas, United States

Feed Status: UP
Listen in your browser - HTML5 player(in browser, HTML5)
Click here to listen with your own player(launches your MP3 player)

KASG 021748Z 02004KT 10SM CLR 25/09 A3026

KASG Airport Info (Airnav.com)

KASG Flight Activity (Flightaware)

Listeners: 0 out of 2245 total

Springdale Ground: 121.600
Springdale Tower: 118.200

KASG Gnd/Twr/App (Archives)
Springdale, Arkansas, United States

Feed Status: UP
Listen in your browser - HTML5 player(in browser, HTML5)
Click here to listen with your own player(launches your MP3 player)

KASG 021748Z 02004KT 10SM CLR 25/09 A3026

KASG Airport Info (Airnav.com)

KASG Flight Activity (Flightaware)

Listeners: 0 out of 2245 total

Razorback Approach/Departure: 126.600
Springdale Ground: 121.600
Springdale Tower: 118.200

KASH ATIS #1 (Archives)
Nashua, New Hampshire, United States

Feed Status: UP
Listen in your browser - HTML5 player(in browser, HTML5)
Click here to listen with your own player(launches your MP3 player)

KASH 021756Z 02008KT 10SM CLR 12/M02 A3027 RMK AO2 SLP254 T01171022 10128 20106 58003 $

KASH Airport Info (Airnav.com)

KASH Flight Activity (Flightaware)

Listeners: 0 out of 2245 total

Nashua ATIS: 125.100

KASH ATIS #2 (Archives)
Nashua, New Hampshire, United States

Feed Status: UP
Listen in your browser - HTML5 player(in browser, HTML5)
Click here to listen with your own player(launches your MP3 player)

KASH 021756Z 02008KT 10SM CLR 12/M02 A3027 RMK AO2 SLP254 T01171022 10128 20106 58003 $

KASH Airport Info (Airnav.com)

KASH Flight Activity (Flightaware)

Listeners: 0 out of 2245 total

Nashua ATIS: 125.100

KASH Gnd/Twr/FBO #1 (Archives)
Nashua, New Hampshire, United States

Feed Status: UP
Listen in your browser - HTML5 player(in browser, HTML5)
Click here to listen with your own player(launches your MP3 player)

KASH 021756Z 02008KT 10SM CLR 12/M02 A3027 RMK AO2 SLP254 T01171022 10128 20106 58003 $

KASH Airport Info (Airnav.com)

KASH Flight Activity (Flightaware)

Listeners: 1 out of 2245 total

Infinity Aviation: 129.750
Nashua Ground: 121.800
Nashua Tower: 133.200

KASH Gnd/Twr/FBO #2 (Archives)
Nashua, New Hampshire, United States

Feed Status: UP
Listen in your browser - HTML5 player(in browser, HTML5)
Click here to listen with your own player(launches your MP3 player)

KASH 021756Z 02008KT 10SM CLR 12/M02 A3027 RMK AO2 SLP254 T01171022 10128 20106 58003 $

KASH Airport Info (Airnav.com)

KASH Flight Activity (Flightaware)

Listeners: 0 out of 2245 total

Nashua Ground: 121.800
Nashua Tower: 133.200

KASH Ground/FBO (Archives)
Nashua, New Hampshire, United States

Feed Status: UP
Listen in your browser - HTML5 player(in browser, HTML5)
Click here to listen with your own player(launches your MP3 player)

KASH 021756Z 02008KT 10SM CLR 12/M02 A3027 RMK AO2 SLP254 T01171022 10128 20106 58003 $

KASH Airport Info (Airnav.com)

KASH Flight Activity (Flightaware)

Listeners: 0 out of 2245 total

Infinity Aviation: 129.750
Nashua Ground: 121.800

KASH Tower (Archives)
Nashua, New Hampshire, United States

Feed Status: UP
Listen in your browser - HTML5 player(in browser, HTML5)
Click here to listen with your own player(launches your MP3 player)

KASH 021756Z 02008KT 10SM CLR 12/M02 A3027 RMK AO2 SLP254 T01171022 10128 20106 58003 $

KASH Airport Info (Airnav.com)

KASH Flight Activity (Flightaware)

Listeners: 1 out of 2245 total

Nashua Tower: 133.200

Atlanta Approach (NW Satellite) (Archives)
Atlanta, Georgia, United States

Feed Status: UP
Listen in your browser - HTML5 player(in browser, HTML5)
Click here to listen with your own player(launches your MP3 player)

KRYY 021750Z VRB06G15KT 10SM CLR 22/12 A3001 RMK AO2 SLP156 T02170117 10217 20117 58004 $

KRYY Airport Info (Airnav.com)

KRYY Flight Activity (Flightaware)

Listeners: 1 out of 2245 total

Atlanta Approach (North Satellite): 121.000

KATW Tower (Archives)
Appleton, Wisconsin, United States

Feed Status: UP
Listen in your browser - HTML5 player(in browser, HTML5)
Click here to listen with your own player(launches your MP3 player)

KATW 021745Z 03006KT 10SM OVC020 14/09 A3044

KATW Airport Info (Airnav.com)

KATW Flight Activity (Flightaware)

Listeners: 1 out of 2245 total

Appleton Tower: 119.600

KAUG CTAF/FSS (Archives)
Augusta, Maine, United States

Feed Status: UP
Listen in your browser - HTML5 player(in browser, HTML5)
Click here to listen with your own player(launches your MP3 player)

KAUG 021753Z AUTO 02010KT 10SM CLR 13/M03 A3030 RMK AO2 SLP260 T01281028 10128 20067 56008

KAUG Airport Info (Airnav.com)

KAUG Flight Activity (Flightaware)

Listeners: 0 out of 2245 total

Augusta CTAF/UNICOM: 123.000
Flight Service: 122.200

NORCAL Approach (Elk Horn)
Auburn, California, United States

Feed Status: DOWN
Offline since: 2022-04-02 04:57:39 UTC

KAUN 021815Z AUTO 00000KT 9SM CLR 22/10 A3001 RMK A01

KAUN Airport Info (Airnav.com)

NORCAL Approach (Elk Horn Sector): 125.100

NORCAL Approach (Expo)
Auburn, California, United States

Feed Status: DOWN
Offline since: 2020-08-14 20:00:39 UTC

KAUN 021815Z AUTO 00000KT 9SM CLR 22/10 A3001 RMK A01

KAUN Airport Info (Airnav.com)

NORCAL Approach (EXPO Sector): 127.400

KAUW CTAF (Air Race Classic)
Wausau, Wisconsin, United States

Feed Status: DOWN
Offline since: 2019-06-24 16:01:03 UTC

Wausau CTAF: 122.700

KAVO CTAF
Avon Park, Florida, United States

Feed Status: DOWN
Offline since: 2022-09-29 00:02:05 UTC

KAVO Airport Info (Airnav.com)

Avon Park CTAF: 122.800

KAVP Gnd/Twr/App (Archives)
Wilkes-Barre/Scranton, Pennsylvania, United States

Feed Status: UP
Listen in your browser - HTML5 player(in browser, HTML5)
Click here to listen with your own player(launches your MP3 player)

KAVP 021754Z 06006KT 10SM BKN034 OVC080 15/11 A3014 RMK AO2 SLP203 60023 T01500106 10156 20117 51005

KAVP Airport Info (Airnav.com)

KAVP Flight Activity (Flightaware)

Listeners: 0 out of 2245 total

Wilkes-Barre Approach: 120.950
Wilkes-Barre Approach: 126.300
Wilkes-Barre Ground: 121.900
Wilkes-Barre Tower: 120.100

Arlington Fly-In Radio
Arlington, Washington, United States

Feed Status: DOWN
Offline since: 2019-08-18 20:46:39 UTC

KAWO 021756Z AUTO VRB04KT 10SM CLR 19/12 A3000 RMK AO2 SLP164 T01890122 10189 20078 50004

KAWO Airport Info (Airnav.com)

Arlington Fly-In Radio: 89.9

KAWO Arlington Fly-In ATC
Arlington, Washington, United States

Feed Status: DOWN
Offline since: 2019-08-18 20:46:39 UTC

KAWO 021756Z AUTO VRB04KT 10SM CLR 19/12 A3000 RMK AO2 SLP164 T01890122 10189 20078 50004

KAWO Airport Info (Airnav.com)

Arlington CTAF: 122.725
Arlington Tower (Air Show): 127.200

KAWO CTAF/Clearance (Archives)
Arlington, Washington, United States

Feed Status: UP
Listen in your browser - HTML5 player(in browser, HTML5)
Click here to listen with your own player(launches your MP3 player)

KAWO 021756Z AUTO VRB04KT 10SM CLR 19/12 A3000 RMK AO2 SLP164 T01890122 10189 20078 50004

KAWO Airport Info (Airnav.com)

KAWO Flight Activity (Flightaware)

Listeners: 0 out of 2245 total

Arlington Clearance Delivery (Seattle): 121.725
Arlington CTAF: 122.725

KBTL/KAZO Gnd/Twr/App (Archives)
Kalamazoo, Michigan, United States

Feed Status: UP
Listen in your browser - HTML5 player(in browser, HTML5)
Click here to listen with your own player(launches your MP3 player)

KBTL Airport Info (Airnav.com)

KBTL Flight Activity (Flightaware)

Listeners: 0 out of 2245 total

Battle Creek Ground: 121.700
Battle Creek Tower: 126.825
Kalamazoo Approach/Departure: 119.200
Kalamazoo Ground: 121.900
Kalamazoo Tower: 118.300

KBAF ATIS (Archives)
Westfield/Springfield, Massachusetts, United States

Feed Status: UP
Listen in your browser - HTML5 player(in browser, HTML5)
Click here to listen with your own player(launches your MP3 player)

KBAF 021753Z 05011KT 10SM SCT120 13/03 A3021 RMK AO2 SLP231 T01280028 10133 20117 52003

KBAF Airport Info (Airnav.com)

KBAF Flight Activity (Flightaware)

Listeners: 0 out of 2245 total

Westfield ATIS: 127.100

KBAF Ground (Archives)
Westfield/Springfield, Massachusetts, United States

Feed Status: UP
Listen in your browser - HTML5 player(in browser, HTML5)
Click here to listen with your own player(launches your MP3 player)

KBAF 021753Z 05011KT 10SM SCT120 13/03 A3021 RMK AO2 SLP231 T01280028 10133 20117 52003

KBAF Airport Info (Airnav.com)

KBAF Flight Activity (Flightaware)

Listeners: 0 out of 2245 total

Emergency/Guard: 121.500
Emergency/Guard: 243.000
NG Ops: 123.050
NG Ops: 309.000
Westfield Ground: 121.700
Westfield Ground: 289.400

KBAF Ground/Tower (Archives)
Westfield/Springfield, Massachusetts, United States

Feed Status: UP
Listen in your browser - HTML5 player(in browser, HTML5)
Click here to listen with your own player(launches your MP3 player)

KBAF 021753Z 05011KT 10SM SCT120 13/03 A3021 RMK AO2 SLP231 T01280028 10133 20117 52003

KBAF Airport Info (Airnav.com)

KBAF Flight Activity (Flightaware)

Listeners: 0 out of 2245 total

Emergency/Guard: 121.500
Emergency/Guard: 243.000
NG Ops: 123.050
NG Ops: 309.000
Westfield Ground: 121.700
Westfield Ground: 289.400
Westfield Tower: 118.900
Westfield Tower: 251.100

KBAF Tower (Archives)
Westfield/Springfield, Massachusetts, United States

Feed Status: UP
Listen in your browser - HTML5 player(in browser, HTML5)
Click here to listen with your own player(launches your MP3 player)

KBAF 021753Z 05011KT 10SM SCT120 13/03 A3021 RMK AO2 SLP231 T01280028 10133 20117 52003

KBAF Airport Info (Airnav.com)

KBAF Flight Activity (Flightaware)

Listeners: 0 out of 2245 total

Westfield Tower: 118.900
Westfield Tower: 251.100

KBAK Gnd/Twr (Archives)
Columbus, Indiana, United States

Feed Status: UP
Listen in your browser - HTML5 player(in browser, HTML5)
Click here to listen with your own player(launches your MP3 player)

KBAK 021755Z 03016G20KT 10SM CLR 20/09 A3024

KBAK Airport Info (Airnav.com)

KBAK Flight Activity (Flightaware)

Listeners: 0 out of 2245 total

Columbus Ground: 121.600
Columbus Tower: 118.600

KBAK Gnd/Twr/App/Dep (Archives)
Columbus, Indiana, United States

Feed Status: UP
Listen in your browser - HTML5 player(in browser, HTML5)
Click here to listen with your own player(launches your MP3 player)

KBAK 021755Z 03016G20KT 10SM CLR 20/09 A3024

KBAK Airport Info (Airnav.com)

KBAK Flight Activity (Flightaware)

Listeners: 0 out of 2245 total

Columbus Ground: 121.600
Columbus Tower: 118.600
Emergency/Guard: 121.500
Emergency/Guard: 243.000
Indianapolis Approach/Departure: 134.850

KBAK Indy App/Dep/Guard (Archives)
Columbus, Indiana, United States

Feed Status: UP
Listen in your browser - HTML5 player(in browser, HTML5)
Click here to listen with your own player(launches your MP3 player)

KBAK 021755Z 03016G20KT 10SM CLR 20/09 A3024

KBAK Airport Info (Airnav.com)

KBAK Flight Activity (Flightaware)

Listeners: 0 out of 2245 total

Emergency/Guard: 121.500
Emergency/Guard: 243.000
Indianapolis Approach/Departure: 134.850

KBAZ Tower (Archives)
New Braunfels, Texas, United States

Feed Status: UP
Listen in your browser - HTML5 player(in browser, HTML5)
Click here to listen with your own player(launches your MP3 player)

KBAZ 021751Z VRB04KT 10SM CLR 29/11 A3015 RMK AO2 SLP201 T02890106 10294 20133 58008

KBAZ Airport Info (Airnav.com)

KBAZ Flight Activity (Flightaware)

Listeners: 0 out of 2245 total

New Braunfels Tower: 127.050

KBCT ATIS (Archives)
Boca Raton, Florida, United States

Feed Status: UP
Listen in your browser - HTML5 player(in browser, HTML5)
Click here to listen with your own player(launches your MP3 player)

KBCT 021753Z 02010G15KT 10SM OVC045 29/19 A2991

KBCT Airport Info (Airnav.com)

KBCT Flight Activity (Flightaware)

Listeners: 0 out of 2245 total

Boca Raton ATIS/AWOS: 121.125

KBCT Emergency/Guard (Archives)
Boca Raton, Florida, United States

Feed Status: UP
Listen in your browser - HTML5 player(in browser, HTML5)
Click here to listen with your own player(launches your MP3 player)

KBCT 021753Z 02010G15KT 10SM OVC045 29/19 A2991

KBCT Airport Info (Airnav.com)

KBCT Flight Activity (Flightaware)

Listeners: 0 out of 2245 total

Emergency/Guard: 121.500

KBCT Ground (Archives)
Boca Raton, Florida, United States

Feed Status: UP
Listen in your browser - HTML5 player(in browser, HTML5)
Click here to listen with your own player(launches your MP3 player)

KBCT 021753Z 02010G15KT 10SM OVC045 29/19 A2991

KBCT Airport Info (Airnav.com)

KBCT Flight Activity (Flightaware)

Listeners: 0 out of 2245 total

Boca Raton Ground: 121.800

KBCT Ground/Tower (Archives)
Boca Raton, Florida, United States

Feed Status: UP
Listen in your browser - HTML5 player(in browser, HTML5)
Click here to listen with your own player(launches your MP3 player)

KBCT 021753Z 02010G15KT 10SM OVC045 29/19 A2991

KBCT Airport Info (Airnav.com)

KBCT Flight Activity (Flightaware)

Listeners: 0 out of 2245 total

Boca Raton Ground: 121.800
Boca Raton Tower: 118.425

KBCT Tower (Archives)
Boca Raton, Florida, United States

Feed Status: UP
Listen in your browser - HTML5 player(in browser, HTML5)
Click here to listen with your own player(launches your MP3 player)

KBCT 021753Z 02010G15KT 10SM OVC045 29/19 A2991

KBCT Airport Info (Airnav.com)

KBCT Flight Activity (Flightaware)

Listeners: 0 out of 2245 total

Boca Raton Tower: 118.425

KBDN CTAF (Archives)
Bend, Oregon, United States

Feed Status: UP
Listen in your browser - HTML5 player(in browser, HTML5)
Click here to listen with your own player(launches your MP3 player)

KBDN 021815Z AUTO 00000KT 10SM CLR 19/07 A3010 RMK AO2

KBDN Airport Info (Airnav.com)

KBDN Flight Activity (Flightaware)

Listeners: 0 out of 2245 total

Bend CTAF: 123.000

KBDR Del/Gnd/Twr (Archives)
Bridgeport, Connecticut, United States

Feed Status: UP
Listen in your browser - HTML5 player(in browser, HTML5)
Click here to listen with your own player(launches your MP3 player)

KBDR 021806Z 03019G27KT 10SM BKN029 BKN034 OVC070 14/06 A3013 RMK AO2 PK WND 04027/1758 T01440056

KBDR Airport Info (Airnav.com)

KBDR Flight Activity (Flightaware)

Listeners: 1 out of 2245 total

Bridgeport Clearance/Ground: 121.750
Bridgeport Tower: 120.900
Sikorsky Heliport: 133.600

KBDR Del/Gnd/Twr/App (Archives)
Bridgeport, Connecticut, United States

Feed Status: UP
Listen in your browser - HTML5 player(in browser, HTML5)
Click here to listen with your own player(launches your MP3 player)

KBDR 021806Z 03019G27KT 10SM BKN029 BKN034 OVC070 14/06 A3013 RMK AO2 PK WND 04027/1758 T01440056

KBDR Airport Info (Airnav.com)

KBDR Flight Activity (Flightaware)

Listeners: 0 out of 2245 total

Bridgeport Clearance/Ground: 121.750
Bridgeport Tower: 120.900
New York Approach (LOVES Sector): 124.075
Sikorsky Heliport: 133.600

New York Approach (LOVES Sector) (Archives)
Bridgeport, Connecticut, United States

Feed Status: UP
Listen in your browser - HTML5 player(in browser, HTML5)
Click here to listen with your own player(launches your MP3 player)

KBDR 021806Z 03019G27KT 10SM BKN029 BKN034 OVC070 14/06 A3013 RMK AO2 PK WND 04027/1758 T01440056

KBDR Airport Info (Airnav.com)

KBDR Flight Activity (Flightaware)

Listeners: 0 out of 2245 total

New York Approach (LOVES Sector): 124.075

KFTG/KEIK/KBDU/KLMO/Misc (Archives)
Boulder, Colorado, United States

Feed Status: UP
Listen in your browser - HTML5 player(in browser, HTML5)
Click here to listen with your own player(launches your MP3 player)

KDEN 021753Z 17008KT 10SM FEW070 SCT110 BKN130 BKN200 18/09 A3020 RMK AO2 SLP172 VIRGA 60000 T01780089 10189 20089 58000

KDEN Airport Info (Airnav.com)

KDEN Flight Activity (Flightaware)

Listeners: 1 out of 2245 total

Air-to-Air Fixed Wing: 122.750
Air-to-Air Informal: 123.450
Boulder CTAF: 122.725
Erie CTAF: 123.000
Front Range Tower: 120.200
KBKF Tower: 121.000
Longmont CTAF: 122.975
MULTICOM: 122.900
UNICOM: 122.950

KAAO CTAF/KBEC Twr
Wichita, Kansas, United States

Feed Status: DOWN
Offline since: 2022-07-21 02:31:39 UTC

KAAO 021754Z AUTO 14006KT 10SM CLR 27/03 A3025 RMK AO2 SLP235 T02670033 10267 20094 58004

KAAO Airport Info (Airnav.com)

Beech Tower: 126.800
Jabara CTAF: 122.700

Boston App/Dep (North Sat) #1 (Archives)
Bedford, Massachusetts, United States

Feed Status: UP
Listen in your browser - HTML5 player(in browser, HTML5)
Click here to listen with your own player(launches your MP3 player)

KBED 021751Z 02016G22KT 10SM BKN120 12/M01 A3023 RMK AO2 SLP250 T01221006 10133 20117 50000 $

KBED Airport Info (Airnav.com)

KBED Flight Activity (Flightaware)

Listeners: 1 out of 2245 total

Boston Approach (North Satellites, SFC-3500'): 124.400

Boston App/Dep (North Sat) #3 (Archives)
Bedford, Massachusetts, United States

Feed Status: UP
Listen in your browser - HTML5 player(in browser, HTML5)
Click here to listen with your own player(launches your MP3 player)

KBED 021751Z 02016G22KT 10SM BKN120 12/M01 A3023 RMK AO2 SLP250 T01221006 10133 20117 50000 $

KBED Airport Info (Airnav.com)

KBED Flight Activity (Flightaware)

Listeners: 0 out of 2245 total

Boston Approach (North Satellites, SFC-3500'): 124.400

KBED ATIS #1 (Archives)
Bedford, Massachusetts, United States

Feed Status: UP
Listen in your browser - HTML5 player(in browser, HTML5)
Click here to listen with your own player(launches your MP3 player)

KBED 021751Z 02016G22KT 10SM BKN120 12/M01 A3023 RMK AO2 SLP250 T01221006 10133 20117 50000 $

KBED Airport Info (Airnav.com)

KBED Flight Activity (Flightaware)

Listeners: 0 out of 2245 total

Hanscom ATIS: 124.600

KBED ATIS #2 (Archives)
Bedford, Massachusetts, United States

Feed Status: UP
Listen in your browser - HTML5 player(in browser, HTML5)
Click here to listen with your own player(launches your MP3 player)

KBED 021751Z 02016G22KT 10SM BKN120 12/M01 A3023 RMK AO2 SLP250 T01221006 10133 20117 50000 $

KBED Airport Info (Airnav.com)

KBED Flight Activity (Flightaware)

Listeners: 0 out of 2245 total

Hanscom ATIS: 124.600

KBED Clearance Delivery (Archives)
Bedford, Massachusetts, United States

Feed Status: UP
Listen in your browser - HTML5 player(in browser, HTML5)
Click here to listen with your own player(launches your MP3 player)

KBED 021751Z 02016G22KT 10SM BKN120 12/M01 A3023 RMK AO2 SLP250 T01221006 10133 20117 50000 $

KBED Airport Info (Airnav.com)

KBED Flight Activity (Flightaware)

Listeners: 0 out of 2245 total

Hanscom Clearance Delivery: 121.850

KBED Del/Gnd (Archives)
Bedford, Massachusetts, United States

Feed Status: UP
Listen in your browser - HTML5 player(in browser, HTML5)
Click here to listen with your own player(launches your MP3 player)

KBED 021751Z 02016G22KT 10SM BKN120 12/M01 A3023 RMK AO2 SLP250 T01221006 10133 20117 50000 $

KBED Airport Info (Airnav.com)

KBED Flight Activity (Flightaware)

Listeners: 0 out of 2245 total

Hanscom Clearance Delivery: 121.850
Hanscom Ground: 121.700

KBED Gnd/Twr (Archives)
Bedford, Massachusetts, United States

Feed Status: UP
Listen in your browser - HTML5 player(in browser, HTML5)
Click here to listen with your own player(launches your MP3 player)

KBED 021751Z 02016G22KT 10SM BKN120 12/M01 A3023 RMK AO2 SLP250 T01221006 10133 20117 50000 $

KBED Airport Info (Airnav.com)

KBED Flight Activity (Flightaware)

Listeners: 0 out of 2245 total

Hanscom Ground: 121.700
Hanscom Tower: 118.500

KBED Ground (Archives)
Bedford, Massachusetts, United States

Feed Status: UP
Listen in your browser - HTML5 player(in browser, HTML5)
Click here to listen with your own player(launches your MP3 player)

KBED 021751Z 02016G22KT 10SM BKN120 12/M01 A3023 RMK AO2 SLP250 T01221006 10133 20117 50000 $

KBED Airport Info (Airnav.com)

KBED Flight Activity (Flightaware)

Listeners: 0 out of 2245 total

Hanscom Ground: 121.700

KBED Tower (Archives)
Bedford, Massachusetts, United States

Feed Status: UP
Listen in your browser - HTML5 player(in browser, HTML5)
Click here to listen with your own player(launches your MP3 player)

KBED 021751Z 02016G22KT 10SM BKN120 12/M01 A3023 RMK AO2 SLP250 T01221006 10133 20117 50000 $

KBED Airport Info (Airnav.com)

KBED Flight Activity (Flightaware)

Listeners: 0 out of 2245 total

Hanscom Tower: 118.500

KBFI Ground/Tower (Archives)
Seattle, Washington, United States

Feed Status: UP
Listen in your browser - HTML5 player(in browser, HTML5)
Click here to listen with your own player(launches your MP3 player)

KBFI 021753Z 32004KT 10SM CLR 19/13 A2999 RMK AO2 SLP156 T01940128 10194 20117 51007

KBFI Airport Info (Airnav.com)

KBFI Flight Activity (Flightaware)

Listeners: 0 out of 2245 total

Boeing Ground: 121.900
Boeing Tower (Rwy 14L & 32R/VFR): 118.300
Boeing Tower (Rwy 14R/32L/IFR): 120.600
Emergency: 121.500

KBFM Ground/Tower (Archives)
Mobile, Alabama, United States

Feed Status: UP
Listen in your browser - HTML5 player(in browser, HTML5)
Click here to listen with your own player(launches your MP3 player)

KBFM 021753Z 35008KT 10SM CLR 31/06 A3005 RMK AO2 SLP175 T03060061 10306 20122 58013

KBFM Airport Info (Airnav.com)

KBFM Flight Activity (Flightaware)

Listeners: 0 out of 2245 total

Downtown Ground: 121.700
Downtown Tower: 118.800

KBFM Tower (Archives)
Mobile, Alabama, United States

Feed Status: UP
Listen in your browser - HTML5 player(in browser, HTML5)
Click here to listen with your own player(launches your MP3 player)

KBFM 021753Z 35008KT 10SM CLR 31/06 A3005 RMK AO2 SLP175 T03060061 10306 20122 58013

KBFM Airport Info (Airnav.com)

KBFM Flight Activity (Flightaware)

Listeners: 0 out of 2245 total

Downtown Tower: 118.800

KBGM Del/Gnd/Twr/App (Archives)
Binghamton, New York, United States

Feed Status: UP
Listen in your browser - HTML5 player(in browser, HTML5)
Click here to listen with your own player(launches your MP3 player)

KBGM 021753Z 04011KT 10SM OVC020 11/07 A3020 RMK AO2 SLP228 T01110067 10111 20083 50004

KBGM Airport Info (Airnav.com)

KBGM Flight Activity (Flightaware)

Listeners: 0 out of 2245 total

Binghamton Approach/Departure: 118.600
Binghamton Approach/Departure: 127.550
Binghamton Clearance Delivery: 125.050
Binghamton Ground: 121.900
Binghamton Tower: 119.300

KBID CTAF (Archives)
Block Island, Rhode Island, United States

Feed Status: UP
Listen in your browser - HTML5 player(in browser, HTML5)
Click here to listen with your own player(launches your MP3 player)

KBID 021756Z AUTO 04018G28KT 10SM OVC032 13/06 A3012 RMK AO2 PK WND 04033/1702 SLP201 T01280061 10144 20128 53015

KBID Airport Info (Airnav.com)

KBID Flight Activity (Flightaware)

Listeners: 0 out of 2245 total

Block Island CTAF: 123.000

KBIS Twr/App (Archives)
Bismarck, North Dakota, United States

Feed Status: UP
Listen in your browser - HTML5 player(in browser, HTML5)
Click here to listen with your own player(launches your MP3 player)

KBIS 021752Z 00000KT 10SM FEW003 18/09 A3010 RMK AO2 RAE06 SLP195 P0000 60001 T01780089 10178 20106 57002

KBIS Airport Info (Airnav.com)

KBIS Flight Activity (Flightaware)

Listeners: 0 out of 2245 total

Bismarck Approach/Departure: 126.300
Bismarck Tower: 118.300

KBJC Ground/Tower (Archives)
Denver, Colorado, United States

Feed Status: UP
Listen in your browser - HTML5 player(in browser, HTML5)
Click here to listen with your own player(launches your MP3 player)

KBJC 021745Z 22004KT 10SM BKN070 BKN100 17/09 A3024

KBJC Airport Info (Airnav.com)

KBJC Flight Activity (Flightaware)

Listeners: 2 out of 2245 total

Metro Ground: 121.700
Metro Tower: 118.600
Metro Tower: 123.950

KBJI CTAF/ZMP (Archives)
Bemidji, Minnesota, United States

Feed Status: UP
Listen in your browser - HTML5 player(in browser, HTML5)
Click here to listen with your own player(launches your MP3 player)

KBJI 021815Z AUTO 13007KT 10SM SCT095 SCT120 17/11 A3029 RMK AO2 T01670108

KBJI Airport Info (Airnav.com)

KBJI Flight Activity (Flightaware)

Listeners: 3 out of 2245 total

Bemidji CTAF: 122.800
Minneapolis Center (Sector 25 Low/High): 134.750

KBKF Tower (UHF) (Archives)
Aurora, Colorado, United States

Feed Status: UP
Listen in your browser - HTML5 player(in browser, HTML5)
Click here to listen with your own player(launches your MP3 player)

KBKF 021758Z 19013KT 10SM FEW050 BKN070 OVC090 17/08 A3022 RMK AO2A SLP190 60001 T01720083 10173 20099 58003

KBKF Airport Info (Airnav.com)

KBKF Flight Activity (Flightaware)

Listeners: 0 out of 2245 total

Buckley Tower: 291.675

KBKF Tower (VHF) (Archives)
Aurora, Colorado, United States

Feed Status: UP
Listen in your browser - HTML5 player(in browser, HTML5)
Click here to listen with your own player(launches your MP3 player)

KBKF 021758Z 19013KT 10SM FEW050 BKN070 OVC090 17/08 A3022 RMK AO2A SLP190 60001 T01720083 10173 20099 58003

KBKF Airport Info (Airnav.com)

KBKF Flight Activity (Flightaware)

Listeners: 0 out of 2245 total

Buckley Tower: 121.000

KBKF Tower (VHF/UHF) (Archives)
Aurora, Colorado, United States

Feed Status: UP
Listen in your browser - HTML5 player(in browser, HTML5)
Click here to listen with your own player(launches your MP3 player)

KBKF 021758Z 19013KT 10SM FEW050 BKN070 OVC090 17/08 A3022 RMK AO2A SLP190 60001 T01720083 10173 20099 58003

KBKF Airport Info (Airnav.com)

KBKF Flight Activity (Flightaware)

Listeners: 0 out of 2245 total

Buckley Tower: 121.000
Buckley Tower: 291.675

KBKL Gnd/Twr/Misc (Archives)
Cleveland, Ohio, United States

Feed Status: UP
Listen in your browser - HTML5 player(in browser, HTML5)
Click here to listen with your own player(launches your MP3 player)

KBKL 021753Z 03020G29KT 10SM OVC021 14/09 A3027 RMK AO2 PK WND 04031/1717 SLP248 T01390089 10156 20139 52008 $

KBKL Airport Info (Airnav.com)

KBKL Flight Activity (Flightaware)

Listeners: 0 out of 2245 total

Lakefront Area CTAF: 122.800
Lakefront Ground: 121.900
Lakefront Tower: 124.300
Lakefront UNICOM: 122.950

KBLI Tower (Archives)
Bellingham, Washington, United States

Feed Status: UP
Listen in your browser - HTML5 player(in browser, HTML5)
Click here to listen with your own player(launches your MP3 player)

KBLI 021753Z 34005KT 10SM CLR 20/13 A3001 RMK AO2 SLP166 T02000128 10200 20078 50007

KBLI Airport Info (Airnav.com)

KBLI Flight Activity (Flightaware)

Listeners: 1 out of 2245 total

Bellingham Tower: 124.900

KBLM/N12/3N6/KMJX (Archives)
Belmar/Farmingdale, New Jersey, United States

Feed Status: UP
Listen in your browser - HTML5 player(in browser, HTML5)
Click here to listen with your own player(launches your MP3 player)

KBLM 021756Z AUTO 04017G24KT 6SM -RA OVC009 13/ A3007 RMK AO2 PK WND 03026/1725 SLP183 P0001 60030 T0128 10144 20128 51010

KBLM Airport Info (Airnav.com)

KBLM Flight Activity (Flightaware)

Listeners: 0 out of 2245 total

3N6 Old Bridge CTAF: 123.075
Emergency/Guard: 121.500
Monmouth Clearance: 120.950
Monmouth Clearance: 126.150
Monmouth CTAF: 123.000
N12 Lakewood CTAF: 122.800
Ocean County KMJX CTAF: 122.700

KBMG Approach/Departure (Archives)
Bloomington, Indiana, United States

Feed Status: UP
Listen in your browser - HTML5 player(in browser, HTML5)
Click here to listen with your own player(launches your MP3 player)

KBMG 021753Z 01007KT 10SM CLR A3023 RMK AO2 SLPNO 58003 $

KBMG Airport Info (Airnav.com)

KBMG Flight Activity (Flightaware)

Listeners: 0 out of 2245 total

Emergency/Guard: 121.500
Emergency/Guard: 243.000
Hulman Approach: 128.025

KBMG Tower (Archives)
Bloomington, Indiana, United States

Feed Status: UP
Listen in your browser - HTML5 player(in browser, HTML5)
Click here to listen with your own player(launches your MP3 player)

KBMG 021753Z 01007KT 10SM CLR A3023 RMK AO2 SLPNO 58003 $

KBMG Airport Info (Airnav.com)

KBMG Flight Activity (Flightaware)

Listeners: 0 out of 2245 total

Bloomington Tower: 120.775

KBMG Twr/App (Archives)
Bloomington, Indiana, United States

Feed Status: UP
Listen in your browser - HTML5 player(in browser, HTML5)
Click here to listen with your own player(launches your MP3 player)

KBMG 021753Z 01007KT 10SM CLR A3023 RMK AO2 SLPNO 58003 $

KBMG Airport Info (Airnav.com)

KBMG Flight Activity (Flightaware)

Listeners: 0 out of 2245 total

Bloomington Tower: 120.775
Emergency/Guard: 121.500
Emergency/Guard: 243.000
Hulman Approach: 128.025

KBMI App/Dep (Archives)
Bloomington/Normal, Illinois, United States

Feed Status: UP
Listen in your browser - HTML5 player(in browser, HTML5)
Click here to listen with your own player(launches your MP3 player)

KBMI 021756Z 04013G18KT 10SM CLR 21/09 A3033 RMK AO2 SLP267 T02110094 10211 20078 58002

KBMI Airport Info (Airnav.com)

KBMI Flight Activity (Flightaware)

Listeners: 0 out of 2245 total

Peoria Approach/Departure: 128.725

KBMI ATIS (Archives)
Bloomington/Normal, Illinois, United States

Feed Status: UP
Listen in your browser - HTML5 player(in browser, HTML5)
Click here to listen with your own player(launches your MP3 player)

KBMI 021756Z 04013G18KT 10SM CLR 21/09 A3033 RMK AO2 SLP267 T02110094 10211 20078 58002

KBMI Airport Info (Airnav.com)

KBMI Flight Activity (Flightaware)

Listeners: 0 out of 2245 total

Bloomington ATIS: 135.350

KBMI Gnd/Twr/App (Archives)
Bloomington/Normal, Illinois, United States

Feed Status: UP
Listen in your browser - HTML5 player(in browser, HTML5)
Click here to listen with your own player(launches your MP3 player)

KBMI 021756Z 04013G18KT 10SM CLR 21/09 A3033 RMK AO2 SLP267 T02110094 10211 20078 58002

KBMI Airport Info (Airnav.com)

KBMI Flight Activity (Flightaware)

Listeners: 0 out of 2245 total

Bloomington Ground: 121.650
Bloomington Tower: 124.600
Peoria Approach/Departure: 128.725

KBMI Gnd/Twr/App/Dep (Archives)
Bloomington/Normal, Illinois, United States

Feed Status: UP
Listen in your browser - HTML5 player(in browser, HTML5)
Click here to listen with your own player(launches your MP3 player)

KBMI 021756Z 04013G18KT 10SM CLR 21/09 A3033 RMK AO2 SLP267 T02110094 10211 20078 58002

KBMI Airport Info (Airnav.com)

KBMI Flight Activity (Flightaware)

Listeners: 0 out of 2245 total

Bloomington Ground: 121.650
Bloomington Tower: 124.600
Peoria Approach/Departure: 128.725

KBOK/KCEC CTAF (Archives)
Brookings, Oregon, United States

Feed Status: UP
Listen in your browser - HTML5 player(in browser, HTML5)
Click here to listen with your own player(launches your MP3 player)

KBOK 021756Z AUTO 00000KT 10SM OVC004 13/12 A3001 RMK AO2 SLP163 6//// T01280122 10133 20122 53014 $

KBOK Airport Info (Airnav.com)

KBOK Flight Activity (Flightaware)

Listeners: 0 out of 2245 total

Brookings/Crescent City CTAF: 122.800

KBOW AWOS (Archives)
Bartow, Florida, United States

Feed Status: UP
Listen in your browser - HTML5 player(in browser, HTML5)
Click here to listen with your own player(launches your MP3 player)

KBOW 021750Z 28007KT 10SM FEW040 29/17 A2993

KBOW Airport Info (Airnav.com)

KBOW Flight Activity (Flightaware)

Listeners: 0 out of 2245 total

Bartow AWOS: 123.775

KBOW Gnd/Twr/Misc (Archives)
Bartow, Florida, United States

Feed Status: UP
Listen in your browser - HTML5 player(in browser, HTML5)
Click here to listen with your own player(launches your MP3 player)

KBOW 021750Z 28007KT 10SM FEW040 29/17 A2993

KBOW Airport Info (Airnav.com)

KBOW Flight Activity (Flightaware)

Listeners: 0 out of 2245 total

Bartow Ground: 121.900
Bartow Tower: 121.200
Bartow UNICOM: 122.950
Emergency/Guard: 121.500

KBOW Gnd/UNICOM/Guard (Archives)
Bartow, Florida, United States

Feed Status: UP
Listen in your browser - HTML5 player(in browser, HTML5)
Click here to listen with your own player(launches your MP3 player)

KBOW 021750Z 28007KT 10SM FEW040 29/17 A2993

KBOW Airport Info (Airnav.com)

KBOW Flight Activity (Flightaware)

Listeners: 0 out of 2245 total

Bartow Ground: 121.900
Bartow UNICOM: 122.950
Emergency/Guard: 121.500

KBOW Tower/CTAF (Archives)
Bartow, Florida, United States

Feed Status: UP
Listen in your browser - HTML5 player(in browser, HTML5)
Click here to listen with your own player(launches your MP3 player)

KBOW 021750Z 28007KT 10SM FEW040 29/17 A2993

KBOW Airport Info (Airnav.com)

KBOW Flight Activity (Flightaware)

Listeners: 0 out of 2245 total

Bartow Tower: 121.200

KBPK CTAF (Archives)
Mountain Home, Arkansas, United States

Feed Status: UP
Listen in your browser - HTML5 player(in browser, HTML5)
Click here to listen with your own player(launches your MP3 player)

KBPK 021753Z AUTO 00000KT 10SM CLR 24/07 A3024 RMK AO2 SLP234 T02390067 10244 20089 58009

KBPK Airport Info (Airnav.com)

KBPK Flight Activity (Flightaware)

Listeners: 0 out of 2245 total

Baxter County CTAF: 123.000

KBTL/KAZO Gnd/Twr/App (Archives)
Battle Creek, Michigan, United States

Feed Status: UP
Listen in your browser - HTML5 player(in browser, HTML5)
Click here to listen with your own player(launches your MP3 player)

KBTL Airport Info (Airnav.com)

KBTL Flight Activity (Flightaware)

Listeners: 0 out of 2245 total

Battle Creek Ground: 121.700
Battle Creek Tower: 126.825
Kalamazoo Approach/Departure: 119.200
Kalamazoo Ground: 121.900
Kalamazoo Tower: 118.300

KWHP/KVNY/KBUR App/Dep (Archives)
Burbank, California, United States

Feed Status: UP
Listen in your browser - HTML5 player(in browser, HTML5)
Click here to listen with your own player(launches your MP3 player)

KWHP 021750Z 12005KT 10SM SKC 24/10 A3001 RMK OBSERVER HT

KWHP Airport Info (Airnav.com)

KWHP Flight Activity (Flightaware)

Listeners: 1 out of 2245 total

SOCAL App (Glendale Sector): 135.050
SOCAL App (Valley Sector): 124.600
SOCAL Approach (Fillmore Sector): 120.400
SOCAL Approach (Moorpark Sector): 128.750
SOCAL Approach (Woodland Sector): 134.200

3CK/KBUU CTAF
Burlington, Wisconsin, United States

Feed Status: DOWN
Offline since: 2022-08-25 16:52:15 UTC

K3CK Airport Info (Airnav.com)

Lake in the Hills CTAF: 123.050

KBUY CTAF
Burlington, North Carolina, United States

Feed Status: DOWN
Offline since: 2022-09-30 20:20:06 UTC

KBUY 021827Z AUTO 32007KT 3SM BR OVC007 14/14 A2995 RMK AO2 T01440139

KBUY Airport Info (Airnav.com)

Burlington CTAF: 122.975

KBVI ATIS (Archives)
Beaver Falls, Pennsylvania, United States

Feed Status: UP
Listen in your browser - HTML5 player(in browser, HTML5)
Click here to listen with your own player(launches your MP3 player)

KBVI 021815Z AUTO 36012G16KT 10SM 19/07 A3016 RMK AO2 T01890073

KBVI Airport Info (Airnav.com)

KBVI Flight Activity (Flightaware)

Listeners: 0 out of 2245 total

Beaver County ATIS: 118.350

KBVI Ground (Archives)
Beaver Falls, Pennsylvania, United States

Feed Status: UP
Listen in your browser - HTML5 player(in browser, HTML5)
Click here to listen with your own player(launches your MP3 player)

KBVI 021815Z AUTO 36012G16KT 10SM 19/07 A3016 RMK AO2 T01890073

KBVI Airport Info (Airnav.com)

KBVI Flight Activity (Flightaware)

Listeners: 0 out of 2245 total

Beaver County Clearance (when Tower closed): 124.850
Beaver County Ground: 121.800

KBVI Ground/Tower (Archives)
Beaver Falls, Pennsylvania, United States

Feed Status: UP
Listen in your browser - HTML5 player(in browser, HTML5)
Click here to listen with your own player(launches your MP3 player)

KBVI 021815Z AUTO 36012G16KT 10SM 19/07 A3016 RMK AO2 T01890073

KBVI Airport Info (Airnav.com)

KBVI Flight Activity (Flightaware)

Listeners: 1 out of 2245 total

Beaver County Clearance (when Tower closed): 124.850
Beaver County Ground: 121.800
Beaver County Tower: 120.300

KBVI Tower #1 (Archives)
Beaver Falls, Pennsylvania, United States

Feed Status: UP
Listen in your browser - HTML5 player(in browser, HTML5)
Click here to listen with your own player(launches your MP3 player)

KBVI 021815Z AUTO 36012G16KT 10SM 19/07 A3016 RMK AO2 T01890073

KBVI Airport Info (Airnav.com)

KBVI Flight Activity (Flightaware)

Listeners: 0 out of 2245 total

Beaver County Tower: 120.300

KBVI Tower #1 (Archives)
Beaver Falls, Pennsylvania, United States

Feed Status: UP
Listen in your browser - HTML5 player(in browser, HTML5)
Click here to listen with your own player(launches your MP3 player)

KBVI 021815Z AUTO 36012G16KT 10SM 19/07 A3016 RMK AO2 T01890073

KBVI Airport Info (Airnav.com)

KBVI Flight Activity (Flightaware)

Listeners: 0 out of 2245 total

Beaver County Tower: 120.300

KBVI Tower #2 (Archives)
Beaver Falls, Pennsylvania, United States

Feed Status: UP
Listen in your browser - HTML5 player(in browser, HTML5)
Click here to listen with your own player(launches your MP3 player)

KBVI 021815Z AUTO 36012G16KT 10SM 19/07 A3016 RMK AO2 T01890073

KBVI Airport Info (Airnav.com)

KBVI Flight Activity (Flightaware)

Listeners: 0 out of 2245 total

Beaver County Tower: 120.300

KBVY ATIS (Archives)
Beverly, Massachusetts, United States

Feed Status: UP
Listen in your browser - HTML5 player(in browser, HTML5)
Click here to listen with your own player(launches your MP3 player)

KBVY 021753Z 03018G28KT 10SM CLR 11/02 A3023 RMK AO2 PK WND 05028/1751 SLP233 T01110022 10122 20106 50002 $

KBVY Airport Info (Airnav.com)

KBVY Flight Activity (Flightaware)

Listeners: 0 out of 2245 total

Beverly ATIS: 119.200

KBVY Ground (Archives)
Beverly, Massachusetts, United States

Feed Status: UP
Listen in your browser - HTML5 player(in browser, HTML5)
Click here to listen with your own player(launches your MP3 player)

KBVY 021753Z 03018G28KT 10SM CLR 11/02 A3023 RMK AO2 PK WND 05028/1751 SLP233 T01110022 10122 20106 50002 $

KBVY Airport Info (Airnav.com)

KBVY Flight Activity (Flightaware)

Listeners: 0 out of 2245 total

Beverly Ground: 121.600

KBVY Tower #1 (Archives)
Beverly, Massachusetts, United States

Feed Status: UP
Listen in your browser - HTML5 player(in browser, HTML5)
Click here to listen with your own player(launches your MP3 player)

KBVY 021753Z 03018G28KT 10SM CLR 11/02 A3023 RMK AO2 PK WND 05028/1751 SLP233 T01110022 10122 20106 50002 $

KBVY Airport Info (Airnav.com)

KBVY Flight Activity (Flightaware)

Listeners: 0 out of 2245 total

Beverly Tower: 125.200

KBVY Tower #2 (Archives)
Beverly, Massachusetts, United States

Feed Status: UP
Listen in your browser - HTML5 player(in browser, HTML5)
Click here to listen with your own player(launches your MP3 player)

KBVY 021753Z 03018G28KT 10SM CLR 11/02 A3023 RMK AO2 PK WND 05028/1751 SLP233 T01110022 10122 20106 50002 $

KBVY Airport Info (Airnav.com)

KBVY Flight Activity (Flightaware)

Listeners: 0 out of 2245 total

Beverly Tower: 125.200

KBXK CTAF (Archives)
Buckeye, Arizona, United States

Feed Status: UP
Listen in your browser - HTML5 player(in browser, HTML5)
Click here to listen with your own player(launches your MP3 player)

KBXK 021815Z AUTO 22004KT 10SM CLR 31/18 A2993 RMK A01

KBXK Airport Info (Airnav.com)

KBXK Flight Activity (Flightaware)

Listeners: 0 out of 2245 total

Buckeye CTAF: 122.975

KBXM CTAF/AWOS (Archives)
Brunswick, Maine, United States

Feed Status: UP
Listen in your browser - HTML5 player(in browser, HTML5)
Click here to listen with your own player(launches your MP3 player)

KBXM Airport Info (Airnav.com)

KBXM Flight Activity (Flightaware)

Listeners: 0 out of 2245 total

Brunswick CTAF/UNICOM: 122.725
KBXM AWOS: 134.875

KBZN App/Dep (Archives)
Bozeman, Montana, United States

Feed Status: UP
Listen in your browser - HTML5 player(in browser, HTML5)
Click here to listen with your own player(launches your MP3 player)

KBZN 021756Z 13003KT 10SM SCT039 OVC065 12/08 A3014 RMK AO2 SLP196 60010 T01170083 10117 20094 50003

KBZN Airport Info (Airnav.com)

KBZN Flight Activity (Flightaware)

Listeners: 0 out of 2245 total

Big Sky Approach/Departure: 118.975

KBZN Ground (Archives)
Bozeman, Montana, United States

Feed Status: UP
Listen in your browser - HTML5 player(in browser, HTML5)
Click here to listen with your own player(launches your MP3 player)

KBZN 021756Z 13003KT 10SM SCT039 OVC065 12/08 A3014 RMK AO2 SLP196 60010 T01170083 10117 20094 50003

KBZN Airport Info (Airnav.com)

KBZN Flight Activity (Flightaware)

Listeners: 0 out of 2245 total

Bozeman Ground: 121.800

KBZN Tower #1
Bozeman, Montana, United States

Feed Status: DOWN
Offline since: 2019-12-19 20:24:05 UTC

KBZN 021756Z 13003KT 10SM SCT039 OVC065 12/08 A3014 RMK AO2 SLP196 60010 T01170083 10117 20094 50003

KBZN Airport Info (Airnav.com)

Bozeman Tower/CTAF: 118.200

KBZN Tower #2 (Archives)
Bozeman, Montana, United States

Feed Status: UP
Listen in your browser - HTML5 player(in browser, HTML5)
Click here to listen with your own player(launches your MP3 player)

KBZN 021756Z 13003KT 10SM SCT039 OVC065 12/08 A3014 RMK AO2 SLP196 60010 T01170083 10117 20094 50003

KBZN Airport Info (Airnav.com)

KBZN Flight Activity (Flightaware)

Listeners: 0 out of 2245 total

Bozeman Tower/CTAF: 118.200

KCCB CTAF (Archives)
Upland, California, United States

Feed Status: UP
Listen in your browser - HTML5 player(in browser, HTML5)
Click here to listen with your own player(launches your MP3 player)

KCCB 021810Z AUTO 22004KT 9SM CLR 21/14 A2999 RMK AO2

KCCB Airport Info (Airnav.com)

KCCB Flight Activity (Flightaware)

Listeners: 3 out of 2245 total

Upland CTAF: 123.000

KATL Approach (South Sat) (Archives)
Atlanta, Georgia, United States

Feed Status: UP
Listen in your browser - HTML5 player(in browser, HTML5)
Click here to listen with your own player(launches your MP3 player)

KCCO 021815Z AUTO 34009G16KT 10SM CLR 23/11 A2999 RMK AO2 T02260111

KCCO Airport Info (Airnav.com)

KCCO Flight Activity (Flightaware)

Listeners: 0 out of 2245 total

Atlanta Approach (SW Satellite): 119.800

KCCO Area Air-to-Air (Archives)
Atlanta, Georgia, United States

Feed Status: UP
Listen in your browser - HTML5 player(in browser, HTML5)
Click here to listen with your own player(launches your MP3 player)

KCCO 021815Z AUTO 34009G16KT 10SM CLR 23/11 A2999 RMK AO2 T02260111

KCCO Airport Info (Airnav.com)

KCCO Flight Activity (Flightaware)

Listeners: 0 out of 2245 total

Newnan Area Air to Air: 123.450

KCCO AWOS (Archives)
Atlanta, Georgia, United States

Feed Status: UP
Listen in your browser - HTML5 player(in browser, HTML5)
Click here to listen with your own player(launches your MP3 player)

KCCO 021815Z AUTO 34009G16KT 10SM CLR 23/11 A2999 RMK AO2 T02260111

KCCO Airport Info (Airnav.com)

KCCO Flight Activity (Flightaware)

Listeners: 0 out of 2245 total

Newnan AWOS: 118.975

KCCO CTAF (Archives)
Atlanta, Georgia, United States

Feed Status: UP
Listen in your browser - HTML5 player(in browser, HTML5)
Click here to listen with your own player(launches your MP3 player)

KCCO 021815Z AUTO 34009G16KT 10SM CLR 23/11 A2999 RMK AO2 T02260111

KCCO Airport Info (Airnav.com)

KCCO Flight Activity (Flightaware)

Listeners: 0 out of 2245 total

Emergency/Guard: 121.500
Flight School Company Channel: 123.300
Newnan CTAF: 122.700

KCCO Emergency/Guard (Archives)
Atlanta, Georgia, United States

Feed Status: UP
Listen in your browser - HTML5 player(in browser, HTML5)
Click here to listen with your own player(launches your MP3 player)

KCCO 021815Z AUTO 34009G16KT 10SM CLR 23/11 A2999 RMK AO2 T02260111

KCCO Airport Info (Airnav.com)

KCCO Flight Activity (Flightaware)

Listeners: 0 out of 2245 total

Emergency/Guard: 121.500

KCCR Gnd/Twr (Archives)
Concord, California, United States

Feed Status: UP
Listen in your browser - HTML5 player(in browser, HTML5)
Click here to listen with your own player(launches your MP3 player)

KCCR 021753Z 21007KT 10SM CLR 21/11 A2999 RMK AO2 SLP143 T02060106 10206 20161 51010

KCCR Airport Info (Airnav.com)

KCCR Flight Activity (Flightaware)

Listeners: 1 out of 2245 total

Concord Ground: 121.900
Concord Tower: 119.700

KCDC ASOS
Cedar City, Utah, United States

Feed Status: DOWN
Offline since: 2022-09-28 14:21:05 UTC

KCDC 021804Z AUTO 23015G24KT 10SM TS CLR 24/11 A3015 RMK AO2 TSB04 T02390106 $

KCDC Airport Info (Airnav.com)

Cedar City ASOS: 119.025

KCDC CTAF #1
Cedar City, Utah, United States

Feed Status: DOWN
Offline since: 2022-09-28 14:21:05 UTC

KCDC 021804Z AUTO 23015G24KT 10SM TS CLR 24/11 A3015 RMK AO2 TSB04 T02390106 $

KCDC Airport Info (Airnav.com)

Cedar City CTAF: 123.000

KCDC Guard
Cedar City, Utah, United States

Feed Status: DOWN
Offline since: 2022-09-28 14:21:05 UTC

KCDC 021804Z AUTO 23015G24KT 10SM TS CLR 24/11 A3015 RMK AO2 TSB04 T02390106 $

KCDC Airport Info (Airnav.com)

Emergency/Guard: 121.500

KCDC T-Bird Dispatch
Cedar City, Utah, United States

Feed Status: DOWN
Offline since: 2022-09-28 14:21:05 UTC

KCDC 021804Z AUTO 23015G24KT 10SM TS CLR 24/11 A3015 RMK AO2 TSB04 T02390106 $

KCDC Airport Info (Airnav.com)

SUU Aviation T-Bird Traffic (Dispatch): 123.500

KCDW Del/Gnd/Twr (Archives)
Caldwell, New Jersey, United States

Feed Status: UP
Listen in your browser - HTML5 player(in browser, HTML5)
Click here to listen with your own player(launches your MP3 player)

KCDW 021753Z 06010G19KT 10SM OVC036 14/07 A3012 RMK AO2 PK WND 06026/1706 SLP206 T01440067 10161 20144 51016

KCDW Airport Info (Airnav.com)

KCDW Flight Activity (Flightaware)

Listeners: 0 out of 2245 total

Caldwell Clearance: 121.100
Caldwell Ground: 121.900
Caldwell Tower: 119.800

KBOK/KCEC CTAF (Archives)
Crescent City, California, United States

Feed Status: UP
Listen in your browser - HTML5 player(in browser, HTML5)
Click here to listen with your own player(launches your MP3 player)

KBOK 021756Z AUTO 00000KT 10SM OVC004 13/12 A3001 RMK AO2 SLP163 6//// T01280122 10133 20122 53014 $

KBOK Airport Info (Airnav.com)

KBOK Flight Activity (Flightaware)

Listeners: 0 out of 2245 total

Brookings/Crescent City CTAF: 122.800

KCEU CTAF/App
Clemson, South Carolina, United States

Feed Status: DOWN
Offline since: 2019-10-13 21:53:39 UTC

KCEU Airport Info (Airnav.com)

CTAF: 122.700
Greer Approach/Departure: 118.800

KCEZ CTAF/ZDV (Archives)
Cortez, Colorado, United States

Feed Status: UP
Listen in your browser - HTML5 player(in browser, HTML5)
Click here to listen with your own player(launches your MP3 player)

KCEZ 021753Z AUTO VRB05KT 10SM SCT060 BKN075 BKN095 18/10 A3029 RMK AO2 RAB41E53 SLP205 P0000 60007 T01830100 10189 20100 50002 $

KCEZ Airport Info (Airnav.com)

KCEZ Flight Activity (Flightaware)

Listeners: 2 out of 2245 total

Cortez CTAF: 122.800
Denver Center (Sector 36 Farmington Low): 118.575
Emergency/Guard: 121.500

KCFD CTAF/App (Archives)
Bryan, Texas, United States

Feed Status: UP
Listen in your browser - HTML5 player(in browser, HTML5)
Click here to listen with your own player(launches your MP3 player)

KCFD 021815Z AUTO 01003KT 10SM CLR 27/07 A3017 RMK AO2 T02700068

KCFD Airport Info (Airnav.com)

KCFD Flight Activity (Flightaware)

Listeners: 0 out of 2245 total

Bryan CTAF/UNICOM: 123.000
Houston Approach/Departure: 134.300

KCFJ CTAF (Archives)
Crawfordsville, Indiana, United States

Feed Status: UP
Listen in your browser - HTML5 player(in browser, HTML5)
Click here to listen with your own player(launches your MP3 player)

KCFJ 021815Z AUTO 36009G16KT 10SM CLR 20/06 A3028 RMK AO2 T01960062

KCFJ Airport Info (Airnav.com)

KCFJ Flight Activity (Flightaware)

Listeners: 0 out of 2245 total

Crawfordsville CTAF: 122.800

KCFJ Emergency/Guard (Archives)
Crawfordsville, Indiana, United States

Feed Status: UP
Listen in your browser - HTML5 player(in browser, HTML5)
Click here to listen with your own player(launches your MP3 player)

KCFJ 021815Z AUTO 36009G16KT 10SM CLR 20/06 A3028 RMK AO2 T01960062

KCFJ Airport Info (Airnav.com)

KCFJ Flight Activity (Flightaware)

Listeners: 0 out of 2245 total

Emergency/Guard: 121.500

KCFO/KEIK/KBDU/KLMO/Misc (Archives)
Denver, Colorado, United States

Feed Status: UP
Listen in your browser - HTML5 player(in browser, HTML5)
Click here to listen with your own player(launches your MP3 player)

KDEN 021753Z 17008KT 10SM FEW070 SCT110 BKN130 BKN200 18/09 A3020 RMK AO2 SLP172 VIRGA 60000 T01780089 10189 20089 58000

KDEN Airport Info (Airnav.com)

KDEN Flight Activity (Flightaware)

Listeners: 1 out of 2245 total

Air-to-Air Fixed Wing: 122.750
Air-to-Air Informal: 123.450
Boulder CTAF: 122.725
Erie CTAF: 123.000
Front Range Tower: 120.200
KBKF Tower: 121.000
Longmont CTAF: 122.975
MULTICOM: 122.900
UNICOM: 122.950

KCGZ AWOS (Archives)
Casa Grande, Arizona, United States

Feed Status: UP
Listen in your browser - HTML5 player(in browser, HTML5)
Click here to listen with your own player(launches your MP3 player)

KCGZ 021756Z AUTO 36003KT 10SM CLR 30/14 A2996 RMK AO2 SLP128 6//// T03000144 10300 20217 58001 $

KCGZ Airport Info (Airnav.com)

KCGZ Flight Activity (Flightaware)

Listeners: 0 out of 2245 total

Casa Grande AWOS: 132.175

KCGZ CTAF (Archives)
Casa Grande, Arizona, United States

Feed Status: UP
Listen in your browser - HTML5 player(in browser, HTML5)
Click here to listen with your own player(launches your MP3 player)

KCGZ 021756Z AUTO 36003KT 10SM CLR 30/14 A2996 RMK AO2 SLP128 6//// T03000144 10300 20217 58001 $

KCGZ Airport Info (Airnav.com)

KCGZ Flight Activity (Flightaware)

Listeners: 0 out of 2245 total

Casa Grande CTAF: 122.700

KCGZ SE/SW Practice Area (Archives)
Casa Grande, Arizona, United States

Feed Status: UP
Listen in your browser - HTML5 player(in browser, HTML5)
Click here to listen with your own player(launches your MP3 player)

KCGZ 021756Z AUTO 36003KT 10SM CLR 30/14 A2996 RMK AO2 SLP128 6//// T03000144 10300 20217 58001 $

KCGZ Airport Info (Airnav.com)

KCGZ Flight Activity (Flightaware)

Listeners: 0 out of 2245 total

Casa Grande SE Practice Area: 122.850

KCHD Tower (North) (Archives)
Chandler, Arizona, United States

Feed Status: UP
Listen in your browser - HTML5 player(in browser, HTML5)
Click here to listen with your own player(launches your MP3 player)

KCHD 021747Z VRB06KT 10SM CLR 31/15 A2994

KCHD Airport Info (Airnav.com)

KCHD Flight Activity (Flightaware)

Listeners: 2 out of 2245 total

Chandler Tower (North): 126.100

KCHD Tower (South) (Archives)
Chandler, Arizona, United States

Feed Status: UP
Listen in your browser - HTML5 player(in browser, HTML5)
Click here to listen with your own player(launches your MP3 player)

KCHD 021747Z VRB06KT 10SM CLR 31/15 A2994

KCHD Airport Info (Airnav.com)

KCHD Flight Activity (Flightaware)

Listeners: 0 out of 2245 total

Chandler Tower (South): 133.100

KCHK CTAF
Chickasha, Oklahoma, United States

Feed Status: DOWN
Offline since: 2022-06-08 19:17:05 UTC

KCHK 021810Z AUTO 18006KT 10SM CLR 28/03 A3018 RMK AO2 T02760032

KCHK Airport Info (Airnav.com)

Chickasha CTAF: 123.000

KCHO Tower (Archives)
Charlottesville, Virginia, United States

Feed Status: UP
Listen in your browser - HTML5 player(in browser, HTML5)
Click here to listen with your own player(launches your MP3 player)

KCHO 021800Z 02010G15KT 2SM -RA BR SCT009 BKN022 OVC026 14/12 A3001 RMK AO2 P0001 T01390122

KCHO Airport Info (Airnav.com)

KCHO Flight Activity (Flightaware)

Listeners: 0 out of 2245 total

Charlottesville Tower: 124.500

KCHO Tower/App (Archives)
Charlottesville, Virginia, United States

Feed Status: UP
Listen in your browser - HTML5 player(in browser, HTML5)
Click here to listen with your own player(launches your MP3 player)

KCHO 021800Z 02010G15KT 2SM -RA BR SCT009 BKN022 OVC026 14/12 A3001 RMK AO2 P0001 T01390122

KCHO Airport Info (Airnav.com)

KCHO Flight Activity (Flightaware)

Listeners: 1 out of 2245 total

Charlottesville Tower: 124.500
Potomac Approach/Departure: 132.850

KCIC Tower/ZOA42 (Archives)
Chico, California, United States

Feed Status: UP
Listen in your browser - HTML5 player(in browser, HTML5)
Click here to listen with your own player(launches your MP3 player)

KCIC 021753Z VRB05KT 10SM CLR 20/12 A2999

KCIC Airport Info (Airnav.com)

KCIC Flight Activity (Flightaware)

Listeners: 2 out of 2245 total

Chico CTAF/Tower: 121.000
Oakland Center (Sector 42 Low): 132.200

KCID Gnd/Twr/App/KIOW (Archives)
Cedar Rapids, Iowa, United States

Feed Status: UP
Listen in your browser - HTML5 player(in browser, HTML5)
Click here to listen with your own player(launches your MP3 player)

KCID 021752Z VRB03KT 10SM CLR 22/07 A3036 RMK AO2 SLP279 T02170067 10222 20083 58003

KCID Airport Info (Airnav.com)

KCID Flight Activity (Flightaware)

Listeners: 0 out of 2245 total

Cedar Rapids Approach (091-269): 119.700
Cedar Rapids Approach (270-090): 134.050
Cedar Rapids Clearance Delivery: 125.450
Cedar Rapids Ground (0500-2330): 121.600
Cedar Rapids Tower (0500-2330): 118.700
UNICOM C17 (Marion) and surrounding area: 122.700
UNICOM IA24 Green Castle: 122.900
UNICOM KIOW (Iowa City) and surrounding area: 122.800

KCIU CTAF (Air Race Classic)
Sault Ste Marie, Michigan, United States

Feed Status: DOWN
Offline since: 2019-06-24 17:12:02 UTC

Chippewa CTAF: 123.000

KCKB App/Dep (Archives)
Clarksburg, West Virginia, United States

Feed Status: UP
Listen in your browser - HTML5 player(in browser, HTML5)
Click here to listen with your own player(launches your MP3 player)

KCKB 021753Z 01011KT 9SM OVC006 13/11 A3012 RMK AO2 SLP192 60003 T01330106 10139 20128 51013

KCKB Airport Info (Airnav.com)

KCKB Flight Activity (Flightaware)

Listeners: 1 out of 2245 total

Clarksburg Approach (East): 121.150
Clarksburg Approach (West): 119.600

KCKB App/Dep (East) (Archives)
Clarksburg, West Virginia, United States

Feed Status: UP
Listen in your browser - HTML5 player(in browser, HTML5)
Click here to listen with your own player(launches your MP3 player)

KCKB 021753Z 01011KT 9SM OVC006 13/11 A3012 RMK AO2 SLP192 60003 T01330106 10139 20128 51013

KCKB Airport Info (Airnav.com)

KCKB Flight Activity (Flightaware)

Listeners: 0 out of 2245 total

Clarksburg Approach (East): 121.150

KCKB App/Dep (West) (Archives)
Clarksburg, West Virginia, United States

Feed Status: UP
Listen in your browser - HTML5 player(in browser, HTML5)
Click here to listen with your own player(launches your MP3 player)

KCKB 021753Z 01011KT 9SM OVC006 13/11 A3012 RMK AO2 SLP192 60003 T01330106 10139 20128 51013

KCKB Airport Info (Airnav.com)

KCKB Flight Activity (Flightaware)

Listeners: 0 out of 2245 total

Clarksburg Approach (West): 119.600

KCKB Emergency/Guard (Archives)
Clarksburg, West Virginia, United States

Feed Status: UP
Listen in your browser - HTML5 player(in browser, HTML5)
Click here to listen with your own player(launches your MP3 player)

KCKB 021753Z 01011KT 9SM OVC006 13/11 A3012 RMK AO2 SLP192 60003 T01330106 10139 20128 51013

KCKB Airport Info (Airnav.com)

KCKB Flight Activity (Flightaware)

Listeners: 0 out of 2245 total

Emergency/Guard: 121.500

KCKB Ground (Archives)
Clarksburg, West Virginia, United States

Feed Status: UP
Listen in your browser - HTML5 player(in browser, HTML5)
Click here to listen with your own player(launches your MP3 player)

KCKB 021753Z 01011KT 9SM OVC006 13/11 A3012 RMK AO2 SLP192 60003 T01330106 10139 20128 51013

KCKB Airport Info (Airnav.com)

KCKB Flight Activity (Flightaware)

Listeners: 0 out of 2245 total

Clarksburg Ground: 121.900

KCKB Ground/Tower (Archives)
Clarksburg, West Virginia, United States

Feed Status: UP
Listen in your browser - HTML5 player(in browser, HTML5)
Click here to listen with your own player(launches your MP3 player)

KCKB 021753Z 01011KT 9SM OVC006 13/11 A3012 RMK AO2 SLP192 60003 T01330106 10139 20128 51013

KCKB Airport Info (Airnav.com)

KCKB Flight Activity (Flightaware)

Listeners: 0 out of 2245 total

Clarksburg Ground: 121.900
Clarksburg Tower: 126.700

KCKB Tower (Archives)
Clarksburg, West Virginia, United States

Feed Status: UP
Listen in your browser - HTML5 player(in browser, HTML5)
Click here to listen with your own player(launches your MP3 player)

KCKB 021753Z 01011KT 9SM OVC006 13/11 A3012 RMK AO2 SLP192 60003 T01330106 10139 20128 51013

KCKB Airport Info (Airnav.com)

KCKB Flight Activity (Flightaware)

Listeners: 0 out of 2245 total

Clarksburg Tower: 126.700

KCLM Del/CTAF/App
Port Angeles, Washington, United States

Feed Status: DOWN
Offline since: 2022-08-12 03:55:05 UTC

KCLM 021753Z AUTO VRB04KT 10SM CLR 22/11 A3003 RMK AO2 SLP168 T02170106 10217 20106 51010 $

KCLM Airport Info (Airnav.com)

Clearance Delivery: 124.150
Fairchild CTAF: 122.975
Seattle Radio (Port Angeles RCO): 122.600
Whidbey Approach: 118.200

KCMA App/Dep (Mugu App) (Archives)
Camarillo, California, United States

Feed Status: UP
Listen in your browser - HTML5 player(in browser, HTML5)
Click here to listen with your own player(launches your MP3 player)

KCMA 021755Z 22004KT 10SM SCT027 22/14 A2997 RMK AO2 SLP156 T02220144 10233 20189 50008

KCMA Airport Info (Airnav.com)

KCMA Flight Activity (Flightaware)

Listeners: 0 out of 2245 total

Point Mugu Approach: 123.750
Point Mugu Approach: 124.700

KCMA ATIS (Archives)
Camarillo, California, United States

Feed Status: UP
Listen in your browser - HTML5 player(in browser, HTML5)
Click here to listen with your own player(launches your MP3 player)

KCMA 021755Z 22004KT 10SM SCT027 22/14 A2997 RMK AO2 SLP156 T02220144 10233 20189 50008

KCMA Airport Info (Airnav.com)

KCMA Flight Activity (Flightaware)

Listeners: 0 out of 2245 total

Camarillo ATIS: 126.025

KCMA Ground/Tower (Archives)
Camarillo, California, United States

Feed Status: UP
Listen in your browser - HTML5 player(in browser, HTML5)
Click here to listen with your own player(launches your MP3 player)

KCMA 021755Z 22004KT 10SM SCT027 22/14 A2997 RMK AO2 SLP156 T02220144 10233 20189 50008

KCMA Airport Info (Airnav.com)

KCMA Flight Activity (Flightaware)

Listeners: 1 out of 2245 total

Camarillo Ground: 121.800
Camarillo Tower: 128.200

KWDR/KCVC/KCNI CTAF (Archives)
Canton, Georgia, United States

Feed Status: UP
Listen in your browser - HTML5 player(in browser, HTML5)
Click here to listen with your own player(launches your MP3 player)

KWDR 021815Z AUTO 06003KT 10SM SCT044 23/10 A2999 RMK AO2

KWDR Airport Info (Airnav.com)

KWDR Flight Activity (Flightaware)

Listeners: 0 out of 2245 total

KWDR/KCVC/KCNI CTAF: 123.000

KCNO Ground (Archives)
Chino, California, United States

Feed Status: UP
Listen in your browser - HTML5 player(in browser, HTML5)
Click here to listen with your own player(launches your MP3 player)

KCNO 021753Z VRB03KT 7SM FEW019 22/14 A2999 RMK AO2 SLP151 T02170144 10222 20183 51002

KCNO Airport Info (Airnav.com)

KCNO Flight Activity (Flightaware)

Listeners: 0 out of 2245 total

Chino Ground: 121.600

KCNO Ground/Tower (Archives)
Chino, California, United States

Feed Status: UP
Listen in your browser - HTML5 player(in browser, HTML5)
Click here to listen with your own player(launches your MP3 player)

KCNO 021753Z VRB03KT 7SM FEW019 22/14 A2999 RMK AO2 SLP151 T02170144 10222 20183 51002

KCNO Airport Info (Airnav.com)

KCNO Flight Activity (Flightaware)

Listeners: 0 out of 2245 total

Chino Ground: 121.600
Chino Tower: 118.500

KCNO Tower (Archives)
Chino, California, United States

Feed Status: UP
Listen in your browser - HTML5 player(in browser, HTML5)
Click here to listen with your own player(launches your MP3 player)

KCNO 021753Z VRB03KT 7SM FEW019 22/14 A2999 RMK AO2 SLP151 T02170144 10222 20183 51002

KCNO Airport Info (Airnav.com)

KCNO Flight Activity (Flightaware)

Listeners: 0 out of 2245 total

Chino Tower: 118.500

KCOE CTAF (Archives)
Coeur d'Alene, Idaho, United States

Feed Status: UP
Listen in your browser - HTML5 player(in browser, HTML5)
Click here to listen with your own player(launches your MP3 player)

KCOE 021756Z AUTO 19004KT 10SM CLR 18/09 A3008 RMK AO2 SLP197 6//// T01830094 10183 20078 50005 PNO $

KCOE Airport Info (Airnav.com)

KCOE Flight Activity (Flightaware)

Listeners: 0 out of 2245 total

Coeur d'Alene CTAF: 122.800

KCOE FSS (Archives)
Coeur d'Alene, Idaho, United States

Feed Status: UP
Listen in your browser - HTML5 player(in browser, HTML5)
Click here to listen with your own player(launches your MP3 player)

KCOE 021756Z AUTO 19004KT 10SM CLR 18/09 A3008 RMK AO2 SLP197 6//// T01830094 10183 20078 50005 PNO $

KCOE Airport Info (Airnav.com)

KCOE Flight Activity (Flightaware)

Listeners: 0 out of 2245 total

Flight Service: 122.550
Flight Service: 122.650
Flight Service: 122.000
Flight Service: 122.050

KCON/KDAW/KFIT CTAF (Archives)
Concord, New Hampshire, United States

Feed Status: UP
Listen in your browser - HTML5 player(in browser, HTML5)
Click here to listen with your own player(launches your MP3 player)

KMHT 021753Z 02011G21KT 10SM SCT060 BKN120 BKN250 13/M02 A3025 RMK AO2 SLP259 T01281022 10133 20106 58003

KMHT Airport Info (Airnav.com)

KMHT Flight Activity (Flightaware)

Listeners: 0 out of 2245 total

NH/MA Area CTAF: 122.700

MA/NH/RI/CT Area CTAF (Archives)
Concord, New Hampshire, United States

Feed Status: UP
Listen in your browser - HTML5 player(in browser, HTML5)
Click here to listen with your own player(launches your MP3 player)

KBOS 021754Z 04022G29KT 10SM FEW047 BKN140 BKN250 13/03 A3023 RMK AO2 PK WND 02030/1722 SLP235 T01280033 10133 20122 50002

KBOS Airport Info (Airnav.com)

KBOS Flight Activity (Flightaware)

Listeners: 0 out of 2245 total

Air-to-Air: 122.750
Bridgeport Flight Service: 122.200
CTAF: 122.700
CTAF: 122.800
CTAF: 122.900
CTAF: 123.000
Emergency/Guard: 121.500

MA/NH/RI/CT Area CTAF (Archives)
Concord, New Hampshire, United States

Feed Status: UP
Listen in your browser - HTML5 player(in browser, HTML5)
Click here to listen with your own player(launches your MP3 player)

KBOS 021754Z 04022G29KT 10SM FEW047 BKN140 BKN250 13/03 A3023 RMK AO2 PK WND 02030/1722 SLP235 T01280033 10133 20122 50002

KBOS Airport Info (Airnav.com)

KBOS Flight Activity (Flightaware)

Listeners: 0 out of 2245 total

Air-to-Air: 122.750
Bridgeport Flight Service: 122.200
CTAF: 122.700
CTAF: 122.800
CTAF: 122.900
CTAF: 123.000
Emergency/Guard: 121.500

MA/NH/RI/CT Area CTAF (Archives)
Concord, New Hampshire, United States

Feed Status: UP
Listen in your browser - HTML5 player(in browser, HTML5)
Click here to listen with your own player(launches your MP3 player)

KBOS 021754Z 04022G29KT 10SM FEW047 BKN140 BKN250 13/03 A3023 RMK AO2 PK WND 02030/1722 SLP235 T01280033 10133 20122 50002

KBOS Airport Info (Airnav.com)

KBOS Flight Activity (Flightaware)

Listeners: 0 out of 2245 total

Air-to-Air: 122.750
Bridgeport Flight Service: 122.200
CTAF: 122.700
CTAF: 122.800
CTAF: 122.900
CTAF: 123.000
Emergency/Guard: 121.500

KCOU CTAF/Gnd/App
Columbia, Missouri, United States

Feed Status: DOWN
Offline since: 2022-03-26 09:48:22 UTC

KCOU 021754Z VRB03KT 10SM CLR 24/07 A3030 RMK AO2 SLP257 T02390072 10244 20089 58003

KCOU Airport Info (Airnav.com)

Columbia CTAF: 119.300
Columbia Ground: 121.600
Columbia UNICOM: 122.950
Mizzou Approach/Departure: 124.375

KCPM CTAF (Archives)
Compton, California, United States

Feed Status: UP
Listen in your browser - HTML5 player(in browser, HTML5)
Click here to listen with your own player(launches your MP3 player)

KCPM Airport Info (Airnav.com)

KCPM Flight Activity (Flightaware)

Listeners: 0 out of 2245 total

Compton CTAF: 123.050

KCPR Tower/App (Archives)
Casper, Wyoming, United States

Feed Status: UP
Listen in your browser - HTML5 player(in browser, HTML5)
Click here to listen with your own player(launches your MP3 player)

KCPR 021753Z 22014G22KT 10SM CLR 17/06 A3013 RMK AO2 PK WND 23027/1718 SLP176 T01720056 10178 20028 58001

KCPR Airport Info (Airnav.com)

KCPR Flight Activity (Flightaware)

Listeners: 2 out of 2245 total

Casper Approach: 120.650
Casper Tower: 118.300

KCPS Del/Gnd/Twr/App (Archives)
Cahokia/St Louis, Illinois, United States

Feed Status: UP
Listen in your browser - HTML5 player(in browser, HTML5)
Click here to listen with your own player(launches your MP3 player)

KCPS 021753Z 34009KT 10SM CLR 23/10 A3027 RMK AO2 SLP251 T02280100 10228 20050 58006 $

KCPS Airport Info (Airnav.com)

KCPS Flight Activity (Flightaware)

Listeners: 0 out of 2245 total

Downtown Clearance Delivery: 118.275
Downtown Ground: 121.800
Downtown Tower: 119.925
St. Louis Approach/Departure: 123.700

KCQF CTAF/Misc (Archives)
Fairhope, Alabama, United States

Feed Status: UP
Listen in your browser - HTML5 player(in browser, HTML5)
Click here to listen with your own player(launches your MP3 player)

KCQF 021815Z AUTO 26004KT 10SM CLR 26/10 A3004 RMK AO2

KCQF Airport Info (Airnav.com)

KCQF Flight Activity (Flightaware)

Listeners: 0 out of 2245 total

Emergency/Guard: 121.500
Fairhope CTAF: 123.000

5B6/KCQX/KPVC CTAF
Chatham, Massachusetts, United States

Feed Status: DOWN
Offline since: 2021-11-19 19:34:05 UTC

KHYA 021756Z 03019G31KT 10SM OVC018 13/09 A3013 RMK AO2 PK WND 04032/1716 SLP203 T01330089 10150 20133 51009

KHYA Airport Info (Airnav.com)

Falmouth/Chatham/Provincetown CTAF: 122.800

KCRE ATIS (Archives)
North Myrtle Beach, South Carolina, United States

Feed Status: UP
Listen in your browser - HTML5 player(in browser, HTML5)
Click here to listen with your own player(launches your MP3 player)

KCRE 021753Z VRB04KT 10SM SCT060 23/12 A2988 RMK AO1 SLP120 T02280122 10228 20150 56012

KCRE Airport Info (Airnav.com)

KCRE Flight Activity (Flightaware)

Listeners: 0 out of 2245 total

Strand ATIS: 119.625

KCRE Ground/Tower (Archives)
North Myrtle Beach, South Carolina, United States

Feed Status: UP
Listen in your browser - HTML5 player(in browser, HTML5)
Click here to listen with your own player(launches your MP3 player)

KCRE 021753Z VRB04KT 10SM SCT060 23/12 A2988 RMK AO1 SLP120 T02280122 10228 20150 56012

KCRE Airport Info (Airnav.com)

KCRE Flight Activity (Flightaware)

Listeners: 0 out of 2245 total

Strand Ground: 121.800
Strand Tower: 124.600

KCRE Guard (Archives)
North Myrtle Beach, South Carolina, United States

Feed Status: UP
Listen in your browser - HTML5 player(in browser, HTML5)
Click here to listen with your own player(launches your MP3 player)

KCRE 021753Z VRB04KT 10SM SCT060 23/12 A2988 RMK AO1 SLP120 T02280122 10228 20150 56012

KCRE Airport Info (Airnav.com)

KCRE Flight Activity (Flightaware)

Listeners: 0 out of 2245 total

Emergency/Guard: 121.500

KCRG Gnd/Twr/App (Archives)
Jacksonville, Florida, United States

Feed Status: UP
Listen in your browser - HTML5 player(in browser, HTML5)
Click here to listen with your own player(launches your MP3 player)

KCRG 021753Z AUTO 27010KT 10SM CLR 27/15 A2989 RMK AO2 SLP122 T02720150 10278 20172 58015

KCRG Airport Info (Airnav.com)

KCRG Flight Activity (Flightaware)

Listeners: 0 out of 2245 total

Craig Clearance: 118.350
Craig Ground: 121.800
Craig Tower: 132.100
Jacksonville Approach: 118.000
Jacksonville Approach: 124.900

KCRQ Tower (Archives)
Carlsbad, California, United States

Feed Status: UP
Listen in your browser - HTML5 player(in browser, HTML5)
Click here to listen with your own player(launches your MP3 player)

KCRQ 021813Z VRB04KT 10SM SCT022 22/15 A2996 RMK AO2 T02170150

KCRQ Airport Info (Airnav.com)

KCRQ Flight Activity (Flightaware)

Listeners: 2 out of 2245 total

Palomar Tower: 118.600

KCTJ/KLGC CTAF (Archives)
Carrollton, Georgia, United States

Feed Status: UP
Listen in your browser - HTML5 player(in browser, HTML5)
Click here to listen with your own player(launches your MP3 player)

KCCO 021815Z AUTO 34009G16KT 10SM CLR 23/11 A2999 RMK AO2 T02260111

KCCO Airport Info (Airnav.com)

KCCO Flight Activity (Flightaware)

Listeners: 0 out of 2245 total

KCTJ/KLGC CTAF: 122.975

51FL/KCDK/KCTY/X60 CTAF
Cross City, Florida, United States

Feed Status: DOWN
Offline since: 2022-01-17 21:16:04 UTC

Cedar Key CTAF: 122.900
Cross City CTAF: 122.800
Emergency/Guard: 121.500
Jacksonville Approach/Departure: 118.600
Jacksonville Center: 127.800
Williston CTAF: 122.975

KCUB CTAF (Archives)
Columbia, South Carolina, United States

Feed Status: UP
Listen in your browser - HTML5 player(in browser, HTML5)
Click here to listen with your own player(launches your MP3 player)

KCUB 021753Z AUTO VRB06KT 10SM BKN046 22/11 A2995 RMK AO2 SLP139 T02220111 10222 20144 58007

KCUB Airport Info (Airnav.com)

KCUB Flight Activity (Flightaware)

Listeners: 0 out of 2245 total

Columbia CTAF: 123.075

KWDR/KCVC/KCNI CTAF (Archives)
Atlanta, Georgia, United States

Feed Status: UP
Listen in your browser - HTML5 player(in browser, HTML5)
Click here to listen with your own player(launches your MP3 player)

KWDR 021815Z AUTO 06003KT 10SM SCT044 23/10 A2999 RMK AO2

KWDR Airport Info (Airnav.com)

KWDR Flight Activity (Flightaware)

Listeners: 0 out of 2245 total

KWDR/KCVC/KCNI CTAF: 123.000

KCVO CTAF/Misc (Archives)
Corvallis, Oregon, United States

Feed Status: UP
Listen in your browser - HTML5 player(in browser, HTML5)
Click here to listen with your own player(launches your MP3 player)

KCVO 021756Z AUTO 00000KT 10SM CLR 21/12 A2996 RMK AO2 SLP144 T02060122 10206 20078 51006

KCVO Airport Info (Airnav.com)

KCVO Flight Activity (Flightaware)

Listeners: 1 out of 2245 total

Cascade Approach: 127.500
Cascade Approach: 119.600
Corvallis CTAF: 123.075
Seattle Center (Sector 6 Low): 125.800

Houston App/Dep (119.7)
Houston, Texas, United States

Feed Status: DOWN
Offline since: 2022-08-05 16:21:39 UTC

KCXO 021753Z 06005KT 10SM CLR 27/08 A3014 RMK AO2 SLP206 T02720083 10278 20083 58009

KCXO Airport Info (Airnav.com)

Houston Approach/Departure: 119.700

KCXO ATIS
Houston, Texas, United States

Feed Status: DOWN
Offline since: 2022-08-05 16:21:39 UTC

KCXO 021753Z 06005KT 10SM CLR 27/08 A3014 RMK AO2 SLP206 T02720083 10278 20083 58009

KCXO Airport Info (Airnav.com)

Conroe ATIS: 118.325

KCXO Ground
Houston, Texas, United States

Feed Status: DOWN
Offline since: 2022-08-05 16:21:39 UTC

KCXO 021753Z 06005KT 10SM CLR 27/08 A3014 RMK AO2 SLP206 T02720083 10278 20083 58009

KCXO Airport Info (Airnav.com)

Conroe Ground: 120.450

KCXO Ground/Tower
Houston, Texas, United States

Feed Status: DOWN
Offline since: 2022-08-05 16:21:39 UTC

KCXO 021753Z 06005KT 10SM CLR 27/08 A3014 RMK AO2 SLP206 T02720083 10278 20083 58009

KCXO Airport Info (Airnav.com)

Conroe Ground: 120.450
Conroe Tower: 124.125

KCXO Tower
Houston, Texas, United States

Feed Status: DOWN
Offline since: 2022-08-05 16:21:39 UTC

KCXO 021753Z 06005KT 10SM CLR 27/08 A3014 RMK AO2 SLP206 T02720083 10278 20083 58009

KCXO Airport Info (Airnav.com)

Conroe Tower: 124.125

KCXP CTAF (Archives)
Carson City, Nevada, United States

Feed Status: UP
Listen in your browser - HTML5 player(in browser, HTML5)
Click here to listen with your own player(launches your MP3 player)

KCXP 021815Z AUTO 00000KT 10SM CLR 19/01 A3014 RMK AO2

KCXP Airport Info (Airnav.com)

KCXP Flight Activity (Flightaware)

Listeners: 0 out of 2245 total

Carson City CTAF: 123.000

KCXY Ground
Harrisburg, Pennsylvania, United States

Feed Status: DOWN
Offline since: 2022-10-01 10:27:22 UTC

KMDT 021816Z 35004KT 10SM -RA OVC030 13/11 A3009 RMK AO2 P0000 T01330111 $

KMDT Airport Info (Airnav.com)

Capital City Ground: 121.900

KCXY Ground/Tower
Harrisburg, Pennsylvania, United States

Feed Status: DOWN
Offline since: 2022-10-01 10:27:22 UTC

KMDT 021816Z 35004KT 10SM -RA OVC030 13/11 A3009 RMK AO2 P0000 T01330111 $

KMDT Airport Info (Airnav.com)

Capital City Ground: 121.900
Capital City Tower: 119.500

KCXY Tower
Harrisburg, Pennsylvania, United States

Feed Status: DOWN
Offline since: 2022-10-01 10:27:22 UTC

KMDT 021816Z 35004KT 10SM -RA OVC030 13/11 A3009 RMK AO2 P0000 T01330111 $

KMDT Airport Info (Airnav.com)

Capital City Tower: 119.500

KCYS Gnd/Twr/App/Center (Archives)
Cheyenne, Wyoming, United States

Feed Status: UP
Listen in your browser - HTML5 player(in browser, HTML5)
Click here to listen with your own player(launches your MP3 player)

KCYS 021753Z 21007KT 10SM CLR 17/07 A3020 RMK AO2 SLP174 T01670072 10167 20072 58001

KCYS Airport Info (Airnav.com)

KCYS Flight Activity (Flightaware)

Listeners: 3 out of 2245 total

Cheyenne Approach: 124.550
Cheyenne Ground: 121.900
Cheyenne Tower: 118.700
Denver Center (Sector 21 Cheyenne Low): 125.900
Emergency/Guard: 121.500

KDAA/KADW Tower (Archives)
Fort Belvoir, Virginia, United States

Feed Status: UP
Listen in your browser - HTML5 player(in browser, HTML5)
Click here to listen with your own player(launches your MP3 player)

KDAA 021812Z AUTO 34005KT 8SM -DZ OVC015 13/12 A3000 RMK AO2 DZB07 SLP162 $

KDAA Airport Info (Airnav.com)

KDAA Flight Activity (Flightaware)

Listeners: 2 out of 2245 total

Andrews Tower: 118.400
Andrews Tower: 349.000
Davison Tower: 241.000
Davison Tower: 126.300
Davison Tower: 229.400

KCON/KDAW/KFIT CTAF (Archives)
Rochester, New Hampshire, United States

Feed Status: UP
Listen in your browser - HTML5 player(in browser, HTML5)
Click here to listen with your own player(launches your MP3 player)

KMHT 021753Z 02011G21KT 10SM SCT060 BKN120 BKN250 13/M02 A3025 RMK AO2 SLP259 T01281022 10133 20106 58003

KMHT Airport Info (Airnav.com)

KMHT Flight Activity (Flightaware)

Listeners: 0 out of 2245 total

NH/MA Area CTAF: 122.700

KDBQ ATIS (Archives)
Dubuque, Iowa, United States

Feed Status: UP
Listen in your browser - HTML5 player(in browser, HTML5)
Click here to listen with your own player(launches your MP3 player)

KDBQ 021753Z 06004KT 10SM CLR 21/11 A3039 RMK AO2 SLP289 T02060106 10211 20111 58002

KDBQ Airport Info (Airnav.com)

KDBQ Flight Activity (Flightaware)

Listeners: 0 out of 2245 total

Dubuque ATIS: 127.250

KDBQ Ground (Archives)
Dubuque, Iowa, United States

Feed Status: UP
Listen in your browser - HTML5 player(in browser, HTML5)
Click here to listen with your own player(launches your MP3 player)

KDBQ 021753Z 06004KT 10SM CLR 21/11 A3039 RMK AO2 SLP289 T02060106 10211 20111 58002

KDBQ Airport Info (Airnav.com)

KDBQ Flight Activity (Flightaware)

Listeners: 0 out of 2245 total

Dubuque Ground: 121.800

KDBQ Ground/Tower (Archives)
Dubuque, Iowa, United States

Feed Status: UP
Listen in your browser - HTML5 player(in browser, HTML5)
Click here to listen with your own player(launches your MP3 player)

KDBQ 021753Z 06004KT 10SM CLR 21/11 A3039 RMK AO2 SLP289 T02060106 10211 20111 58002

KDBQ Airport Info (Airnav.com)

KDBQ Flight Activity (Flightaware)

Listeners: 0 out of 2245 total

Dubuque Ground: 121.800
Dubuque Tower: 119.500

KDBQ Guard (Archives)
Dubuque, Iowa, United States

Feed Status: UP
Listen in your browser - HTML5 player(in browser, HTML5)
Click here to listen with your own player(launches your MP3 player)

KDBQ 021753Z 06004KT 10SM CLR 21/11 A3039 RMK AO2 SLP289 T02060106 10211 20111 58002

KDBQ Airport Info (Airnav.com)

KDBQ Flight Activity (Flightaware)

Listeners: 0 out of 2245 total

Emergency/Guard: 121.500

KDBQ Tower (Archives)
Dubuque, Iowa, United States

Feed Status: UP
Listen in your browser - HTML5 player(in browser, HTML5)
Click here to listen with your own player(launches your MP3 player)

KDBQ 021753Z 06004KT 10SM CLR 21/11 A3039 RMK AO2 SLP289 T02060106 10211 20111 58002

KDBQ Airport Info (Airnav.com)

KDBQ Flight Activity (Flightaware)

Listeners: 0 out of 2245 total

Dubuque Tower: 119.500

KDED CTAF/Misc
DeLand, Florida, United States

Feed Status: DOWN
Offline since: 2022-09-29 13:38:39 UTC



KDED Airport Info (Airnav.com)

DeLand CTAF/UNICOM: 123.075
Skydive DeLand: 122.850

KDED/1J6 CTAF/UNICOM (Archives)
DeLand, Florida, United States

Feed Status: UP
Listen in your browser - HTML5 player(in browser, HTML5)
Click here to listen with your own player(launches your MP3 player)



KDED Airport Info (Airnav.com)

KDED Flight Activity (Flightaware)

Listeners: 0 out of 2245 total

DeLand CTAF/UNICOM: 123.075

KDLH Gnd/Twr/App (Archives)
Duluth, Minnesota, United States

Feed Status: UP
Listen in your browser - HTML5 player(in browser, HTML5)
Click here to listen with your own player(launches your MP3 player)

KDLH 021755Z 10009KT 10SM FEW008 BKN100 13/09 A3039 RMK AO2 SLP301 T01280094 10133 20100 58007

KDLH Airport Info (Airnav.com)

KDLH Flight Activity (Flightaware)

Listeners: 4 out of 2245 total

Duluth Approach/Departure: 125.450
Duluth Ground: 121.900
Duluth Tower: 118.300

KDOV App/Dep (Archives)
Dover, Delaware, United States

Feed Status: UP
Listen in your browser - HTML5 player(in browser, HTML5)
Click here to listen with your own player(launches your MP3 player)

KDOV 021822Z AUTO 35017KT 9SM -RA BKN014 14/14 A2996 RMK AO2 CIG 014V021 CIG 009 RWY14 CIG 009 RWY19 SLP149 $

KDOV Airport Info (Airnav.com)

KDOV Flight Activity (Flightaware)

Listeners: 0 out of 2245 total

Dover Approach/Departure: 132.425

KDOV ATIS (Archives)
Dover, Delaware, United States

Feed Status: UP
Listen in your browser - HTML5 player(in browser, HTML5)
Click here to listen with your own player(launches your MP3 player)

KDOV 021822Z AUTO 35017KT 9SM -RA BKN014 14/14 A2996 RMK AO2 CIG 014V021 CIG 009 RWY14 CIG 009 RWY19 SLP149 $

KDOV Airport Info (Airnav.com)

KDOV Flight Activity (Flightaware)

Listeners: 0 out of 2245 total

Dover ATIS: 127.825

KDOV Del/Gnd/Twr (Archives)
Dover, Delaware, United States

Feed Status: UP
Listen in your browser - HTML5 player(in browser, HTML5)
Click here to listen with your own player(launches your MP3 player)

KDOV 021822Z AUTO 35017KT 9SM -RA BKN014 14/14 A2996 RMK AO2 CIG 014V021 CIG 009 RWY14 CIG 009 RWY19 SLP149 $

KDOV Airport Info (Airnav.com)

KDOV Flight Activity (Flightaware)

Listeners: 0 out of 2245 total

Dover Clearance Delivery: 118.050
Dover Clearance Delivery: 125.550
Dover Ground: 118.875
Dover Tower: 126.350

KDOV Gnd/App (Archives)
Dover, Delaware, United States

Feed Status: UP
Listen in your browser - HTML5 player(in browser, HTML5)
Click here to listen with your own player(launches your MP3 player)

KDOV 021822Z AUTO 35017KT 9SM -RA BKN014 14/14 A2996 RMK AO2 CIG 014V021 CIG 009 RWY14 CIG 009 RWY19 SLP149 $

KDOV Airport Info (Airnav.com)

KDOV Flight Activity (Flightaware)

Listeners: 0 out of 2245 total

Dover Approach/Departure: 132.425
Dover Ground: 118.875

KDOV Tower (Archives)
Dover, Delaware, United States

Feed Status: UP
Listen in your browser - HTML5 player(in browser, HTML5)
Click here to listen with your own player(launches your MP3 player)

KDOV 021822Z AUTO 35017KT 9SM -RA BKN014 14/14 A2996 RMK AO2 CIG 014V021 CIG 009 RWY14 CIG 009 RWY19 SLP149 $

KDOV Airport Info (Airnav.com)

KDOV Flight Activity (Flightaware)

Listeners: 0 out of 2245 total

Dover Tower: 126.350

KDPA ATIS (Archives)
Chicago, Illinois, United States

Feed Status: UP
Listen in your browser - HTML5 player(in browser, HTML5)
Click here to listen with your own player(launches your MP3 player)

KDPA 021752Z 03013KT 10SM SCT024 18/11 A3038 RMK AO2 SLP287 T01830111 10189 20094 51005

KDPA Airport Info (Airnav.com)

KDPA Flight Activity (Flightaware)

Listeners: 0 out of 2245 total

DuPage ATIS: 132.075

KDPA Chicago Approach (Archives)
Chicago, Illinois, United States

Feed Status: UP
Listen in your browser - HTML5 player(in browser, HTML5)
Click here to listen with your own player(launches your MP3 player)

KORD 021809Z 04013G20KT 10SM SCT021 18/11 A3038 RMK AO2 T01780106

KORD Airport Info (Airnav.com)

KORD Flight Activity (Flightaware)

Listeners: 0 out of 2245 total

Chicago Approach/Departure: 133.500

KDPA Del/Gnd/Twr/Misc (Archives)
Chicago, Illinois, United States

Feed Status: UP
Listen in your browser - HTML5 player(in browser, HTML5)
Click here to listen with your own player(launches your MP3 player)

KDPA 021752Z 03013KT 10SM SCT024 18/11 A3038 RMK AO2 SLP287 T01830111 10189 20094 51005

KDPA Airport Info (Airnav.com)

KDPA Flight Activity (Flightaware)

Listeners: 2 out of 2245 total

DuPage Clearance Delivery: 119.750
DuPage Flight Center (FBO): 464.375
DuPage Ground: 121.800
DuPage Ground Operations: 469.5875
DuPage Ground Operations: 453.225
DuPage Ground Operations (Airport Authority): 453.500
DuPage Tower: 120.900
DuPage UNICOM ("Flight Center"): 122.950
Flight Service Station (FSS) RCO: 122.550

KDTO ASOS (Archives)
Denton, Texas, United States

Feed Status: UP
Listen in your browser - HTML5 player(in browser, HTML5)
Click here to listen with your own player(launches your MP3 player)

KDTO 021753Z 09005KT 10SM CLR 27/04 A3020 RMK AO2 SLP222 T02670044 10267 20083 58009

KDTO Airport Info (Airnav.com)

KDTO Flight Activity (Flightaware)

Listeners: 0 out of 2245 total

Denton ASOS: 119.325

KDTO Gnd/Twr (Archives)
Denton, Texas, United States

Feed Status: UP
Listen in your browser - HTML5 player(in browser, HTML5)
Click here to listen with your own player(launches your MP3 player)

KDTO 021753Z 09005KT 10SM CLR 27/04 A3020 RMK AO2 SLP222 T02670044 10267 20083 58009

KDTO Airport Info (Airnav.com)

KDTO Flight Activity (Flightaware)

Listeners: 0 out of 2245 total

Denton Ground: 123.950
Denton Tower: 119.950

KDTO Tower (Archives)
Denton, Texas, United States

Feed Status: UP
Listen in your browser - HTML5 player(in browser, HTML5)
Click here to listen with your own player(launches your MP3 player)

KDTO 021753Z 09005KT 10SM CLR 27/04 A3020 RMK AO2 SLP222 T02670044 10267 20083 58009

KDTO Airport Info (Airnav.com)

KDTO Flight Activity (Flightaware)

Listeners: 0 out of 2245 total

Denton Tower: 119.950

KDVO CTAF (Archives)
Novato, California, United States

Feed Status: UP
Listen in your browser - HTML5 player(in browser, HTML5)
Click here to listen with your own player(launches your MP3 player)

KDVO 021815Z AUTO 19004KT 10SM CLR 21/11 A3001 RMK AO2

KDVO Airport Info (Airnav.com)

KDVO Flight Activity (Flightaware)

Listeners: 1 out of 2245 total

Novato CTAF: 123.075

KDVT ATIS (Archives)
Phoenix, Arizona, United States

Feed Status: UP
Listen in your browser - HTML5 player(in browser, HTML5)
Click here to listen with your own player(launches your MP3 player)

KDVT 021753Z 21006KT 10SM CLR 31/14 A2995 RMK AO2 SLP116 T03060139 10311 20233 50001

KDVT Airport Info (Airnav.com)

KDVT Flight Activity (Flightaware)

Listeners: 0 out of 2245 total

Deer Valley ATIS: 126.500

KDVT Clearance Delivery (Archives)
Phoenix, Arizona, United States

Feed Status: UP
Listen in your browser - HTML5 player(in browser, HTML5)
Click here to listen with your own player(launches your MP3 player)

KDVT 021753Z 21006KT 10SM CLR 31/14 A2995 RMK AO2 SLP116 T03060139 10311 20233 50001

KDVT Airport Info (Airnav.com)

KDVT Flight Activity (Flightaware)

Listeners: 0 out of 2245 total

Deer Valley Clearance Delivery: 123.900

KDVT Delivery/Ground (Archives)
Phoenix, Arizona, United States

Feed Status: UP
Listen in your browser - HTML5 player(in browser, HTML5)
Click here to listen with your own player(launches your MP3 player)

KDVT 021753Z 21006KT 10SM CLR 31/14 A2995 RMK AO2 SLP116 T03060139 10311 20233 50001

KDVT Airport Info (Airnav.com)

KDVT Flight Activity (Flightaware)

Listeners: 0 out of 2245 total

Deer Valley Clearance Delivery: 123.900
Deer Valley Ground: 121.800

KDVT Ground (Archives)
Phoenix, Arizona, United States

Feed Status: UP
Listen in your browser - HTML5 player(in browser, HTML5)
Click here to listen with your own player(launches your MP3 player)

KDVT 021753Z 21006KT 10SM CLR 31/14 A2995 RMK AO2 SLP116 T03060139 10311 20233 50001

KDVT Airport Info (Airnav.com)

KDVT Flight Activity (Flightaware)

Listeners: 0 out of 2245 total

Deer Valley Ground: 121.800

KDVT Tower (Both) (Archives)
Phoenix, Arizona, United States

Feed Status: UP
Listen in your browser - HTML5 player(in browser, HTML5)
Click here to listen with your own player(launches your MP3 player)

KDVT 021753Z 21006KT 10SM CLR 31/14 A2995 RMK AO2 SLP116 T03060139 10311 20233 50001

KDVT Airport Info (Airnav.com)

KDVT Flight Activity (Flightaware)

Listeners: 0 out of 2245 total

Deer Valley Tower (North): 120.200
Deer Valley Tower (South): 118.400

KDVT Tower (North) (Archives)
Phoenix, Arizona, United States

Feed Status: UP
Listen in your browser - HTML5 player(in browser, HTML5)
Click here to listen with your own player(launches your MP3 player)

KDVT 021753Z 21006KT 10SM CLR 31/14 A2995 RMK AO2 SLP116 T03060139 10311 20233 50001

KDVT Airport Info (Airnav.com)

KDVT Flight Activity (Flightaware)

Listeners: 0 out of 2245 total

Deer Valley Tower (North): 120.200

KDVT Tower (South) (Archives)
Phoenix, Arizona, United States

Feed Status: UP
Listen in your browser - HTML5 player(in browser, HTML5)
Click here to listen with your own player(launches your MP3 player)

KDVT 021753Z 21006KT 10SM CLR 31/14 A2995 RMK AO2 SLP116 T03060139 10311 20233 50001

KDVT Airport Info (Airnav.com)

KDVT Flight Activity (Flightaware)

Listeners: 0 out of 2245 total

Deer Valley Tower (South): 118.400

KDWH Del/ Gnd/Twr (Archives)
Houston, Texas, United States

Feed Status: UP
Listen in your browser - HTML5 player(in browser, HTML5)
Click here to listen with your own player(launches your MP3 player)

KDWH 021753Z 03005KT 10SM CLR 28/09 A3013 RMK AO2 SLP201 T02830089 10283 20100 58011

KDWH Airport Info (Airnav.com)

KDWH Flight Activity (Flightaware)

Listeners: 7 out of 2245 total

Hooks Clearance Delivery: 119.450
Hooks Ground: 121.800
Hooks Tower (E): 127.400
Hooks Tower (W): 118.400
Hooks UNICOM: 122.950

KDXR ATIS (Archives)
Danbury, Connecticut, United States

Feed Status: UP
Listen in your browser - HTML5 player(in browser, HTML5)
Click here to listen with your own player(launches your MP3 player)

KDXR 021753Z 05013G22KT 10SM OVC075 14/03 A3016 RMK AO2 PK WND 05026/1656 SLP211 60000 T01390033 10144 20133 51012

KDXR Airport Info (Airnav.com)

KDXR Flight Activity (Flightaware)

Listeners: 0 out of 2245 total

Danbury ATIS: 127.750

KDXR Ground/Tower (Archives)
Danbury, Connecticut, United States

Feed Status: UP
Listen in your browser - HTML5 player(in browser, HTML5)
Click here to listen with your own player(launches your MP3 player)

KDXR 021753Z 05013G22KT 10SM OVC075 14/03 A3016 RMK AO2 PK WND 05026/1656 SLP211 60000 T01390033 10144 20133 51012

KDXR Airport Info (Airnav.com)

KDXR Flight Activity (Flightaware)

Listeners: 1 out of 2245 total

Danbury Ground: 121.600
Danbury Tower: 119.400

KDYB CTAF (Archives)
Summerville, South Carolina, United States

Feed Status: UP
Listen in your browser - HTML5 player(in browser, HTML5)
Click here to listen with your own player(launches your MP3 player)

KDYB 021815Z AUTO 36007KT 330V040 10SM OVC065 22/13 A2991 RMK AO2

KDYB Airport Info (Airnav.com)

KDYB Flight Activity (Flightaware)

Listeners: 0 out of 2245 total

Summerville CTAF: 123.000

KDYL CTAF #1 (Archives)
Doylestown, Pennsylvania, United States

Feed Status: UP
Listen in your browser - HTML5 player(in browser, HTML5)
Click here to listen with your own player(launches your MP3 player)

KDYL 021808Z AUTO 04009KT 10SM -RA FEW008 SCT014 OVC035 12/11 A3007 RMK AO2 T01220106 PNO $

KDYL Airport Info (Airnav.com)

KDYL Flight Activity (Flightaware)

Listeners: 0 out of 2245 total

Doylestown CTAF/UNICOM: 122.975

KDYL CTAF #2 (Archives)
Doylestown, Pennsylvania, United States

Feed Status: UP
Listen in your browser - HTML5 player(in browser, HTML5)
Click here to listen with your own player(launches your MP3 player)

KDYL 021808Z AUTO 04009KT 10SM -RA FEW008 SCT014 OVC035 12/11 A3007 RMK AO2 T01220106 PNO $

KDYL Airport Info (Airnav.com)

KDYL Flight Activity (Flightaware)

Listeners: 0 out of 2245 total

Doylestown CTAF/UNICOM: 122.975

KEAR AWOS (Archives)
Kearney, Nebraska, United States

Feed Status: UP
Listen in your browser - HTML5 player(in browser, HTML5)
Click here to listen with your own player(launches your MP3 player)

KEAR 021756Z AUTO 16015G21KT 10SM CLR 27/05 A3022 RMK AO2 SLP222 T02670050 10267 20078 58005

KEAR Airport Info (Airnav.com)

KEAR Flight Activity (Flightaware)

Listeners: 0 out of 2245 total

Kearney AWOS: 123.875

KEAR Columbus Radio (Archives)
Kearney, Nebraska, United States

Feed Status: UP
Listen in your browser - HTML5 player(in browser, HTML5)
Click here to listen with your own player(launches your MP3 player)

KEAR 021756Z AUTO 16015G21KT 10SM CLR 27/05 A3022 RMK AO2 SLP222 T02670050 10267 20078 58005

KEAR Airport Info (Airnav.com)

KEAR Flight Activity (Flightaware)

Listeners: 1 out of 2245 total

Columbus Radio: 122.550

KEAR CTAF (Archives)
Kearney, Nebraska, United States

Feed Status: UP
Listen in your browser - HTML5 player(in browser, HTML5)
Click here to listen with your own player(launches your MP3 player)

KEAR 021756Z AUTO 16015G21KT 10SM CLR 27/05 A3022 RMK AO2 SLP222 T02670050 10267 20078 58005

KEAR Airport Info (Airnav.com)

KEAR Flight Activity (Flightaware)

Listeners: 0 out of 2245 total

Kearney CTAF: 123.000

KEAU Tower
Eau Claire, Wisconsin, United States

Feed Status: DOWN
Offline since: 2022-10-01 20:11:05 UTC

KEAU 021756Z 14008KT 10SM FEW110 17/11 A3041 RMK AO2 SLP299 T01720111 10172 20089 58002 $

KEAU Airport Info (Airnav.com)

Eau Claire Tower: 118.575

KEDC ATIS (Archives)
Austin, Texas, United States

Feed Status: UP
Listen in your browser - HTML5 player(in browser, HTML5)
Click here to listen with your own player(launches your MP3 player)

KEDC 021755Z AUTO 07005KT 10SM CLR 27/04 A3015 RMK AO2

KEDC Airport Info (Airnav.com)

KEDC Flight Activity (Flightaware)

Listeners: 0 out of 2245 total

Executive ATIS/AWOS: 118.825

KEDC Austin App/Dep (Archives)
Austin, Texas, United States

Feed Status: UP
Listen in your browser - HTML5 player(in browser, HTML5)
Click here to listen with your own player(launches your MP3 player)

KEDC 021755Z AUTO 07005KT 10SM CLR 27/04 A3015 RMK AO2

KEDC Airport Info (Airnav.com)

KEDC Flight Activity (Flightaware)

Listeners: 0 out of 2245 total

Auston Approach/Departure: 127.225

KEDC Clearance Delivery (Archives)
Austin, Texas, United States

Feed Status: UP
Listen in your browser - HTML5 player(in browser, HTML5)
Click here to listen with your own player(launches your MP3 player)

KEDC 021755Z AUTO 07005KT 10SM CLR 27/04 A3015 RMK AO2

KEDC Airport Info (Airnav.com)

KEDC Flight Activity (Flightaware)

Listeners: 0 out of 2245 total

Executive Clearance Delivery (when Tower is closed): 126.025

KEDC Clearance/Ground (Archives)
Austin, Texas, United States

Feed Status: UP
Listen in your browser - HTML5 player(in browser, HTML5)
Click here to listen with your own player(launches your MP3 player)

KEDC 021755Z AUTO 07005KT 10SM CLR 27/04 A3015 RMK AO2

KEDC Airport Info (Airnav.com)

KEDC Flight Activity (Flightaware)

Listeners: 0 out of 2245 total

Executive Clearance Delivery (when Tower is closed): 126.025
Executive Ground: 119.450

KEDC Del/Gnd/Twr (Archives)
Austin, Texas, United States

Feed Status: UP
Listen in your browser - HTML5 player(in browser, HTML5)
Click here to listen with your own player(launches your MP3 player)

KEDC 021755Z AUTO 07005KT 10SM CLR 27/04 A3015 RMK AO2

KEDC Airport Info (Airnav.com)

KEDC Flight Activity (Flightaware)

Listeners: 0 out of 2245 total

Executive Ground: 119.450
Executive Tower: 120.300

KEDC Ground (Archives)
Austin, Texas, United States

Feed Status: UP
Listen in your browser - HTML5 player(in browser, HTML5)
Click here to listen with your own player(launches your MP3 player)

KEDC 021755Z AUTO 07005KT 10SM CLR 27/04 A3015 RMK AO2

KEDC Airport Info (Airnav.com)

KEDC Flight Activity (Flightaware)

Listeners: 0 out of 2245 total

Executive Ground: 119.450

KEDC Ground/Tower (Archives)
Austin, Texas, United States

Feed Status: UP
Listen in your browser - HTML5 player(in browser, HTML5)
Click here to listen with your own player(launches your MP3 player)

KEDC 021755Z AUTO 07005KT 10SM CLR 27/04 A3015 RMK AO2

KEDC Airport Info (Airnav.com)

KEDC Flight Activity (Flightaware)

Listeners: 0 out of 2245 total

Executive Ground: 119.450
Executive Tower: 120.300

KEDC Tower (Archives)
Austin, Texas, United States

Feed Status: UP
Listen in your browser - HTML5 player(in browser, HTML5)
Click here to listen with your own player(launches your MP3 player)

KEDC 021755Z AUTO 07005KT 10SM CLR 27/04 A3015 RMK AO2

KEDC Airport Info (Airnav.com)

KEDC Flight Activity (Flightaware)

Listeners: 0 out of 2245 total

Executive Tower: 120.300

KEDU CTAF (Archives)
Davis, California, United States

Feed Status: UP
Listen in your browser - HTML5 player(in browser, HTML5)
Click here to listen with your own player(launches your MP3 player)

KEDU 021815Z AUTO 31004KT 10SM CLR 20/12 A2999 RMK AO1

KEDU Airport Info (Airnav.com)

KEDU Flight Activity (Flightaware)

Listeners: 0 out of 2245 total

University CTAF: 123.075

KEEN CTAF (Archives)
Keene, New Hampshire, United States

Feed Status: UP
Listen in your browser - HTML5 player(in browser, HTML5)
Click here to listen with your own player(launches your MP3 player)

KMHT 021753Z 02011G21KT 10SM SCT060 BKN120 BKN250 13/M02 A3025 RMK AO2 SLP259 T01281022 10133 20106 58003

KMHT Airport Info (Airnav.com)

KMHT Flight Activity (Flightaware)

Listeners: 0 out of 2245 total

Keene CTAF: 123.000

MA/NH/RI/CT Area CTAF (Archives)
Keene, New Hampshire, United States

Feed Status: UP
Listen in your browser - HTML5 player(in browser, HTML5)
Click here to listen with your own player(launches your MP3 player)

KBOS 021754Z 04022G29KT 10SM FEW047 BKN140 BKN250 13/03 A3023 RMK AO2 PK WND 02030/1722 SLP235 T01280033 10133 20122 50002

KBOS Airport Info (Airnav.com)

KBOS Flight Activity (Flightaware)

Listeners: 0 out of 2245 total

Air-to-Air: 122.750
Bridgeport Flight Service: 122.200
CTAF: 122.700
CTAF: 122.800
CTAF: 122.900
CTAF: 123.000
Emergency/Guard: 121.500

MA/NH/RI/CT Area CTAF (Archives)
Keene, New Hampshire, United States

Feed Status: UP
Listen in your browser - HTML5 player(in browser, HTML5)
Click here to listen with your own player(launches your MP3 player)

KBOS 021754Z 04022G29KT 10SM FEW047 BKN140 BKN250 13/03 A3023 RMK AO2 PK WND 02030/1722 SLP235 T01280033 10133 20122 50002

KBOS Airport Info (Airnav.com)

KBOS Flight Activity (Flightaware)

Listeners: 0 out of 2245 total

Air-to-Air: 122.750
Bridgeport Flight Service: 122.200
CTAF: 122.700
CTAF: 122.800
CTAF: 122.900
CTAF: 123.000
Emergency/Guard: 121.500

MA/NH/RI/CT Area CTAF (Archives)
Keene, New Hampshire, United States

Feed Status: UP
Listen in your browser - HTML5 player(in browser, HTML5)
Click here to listen with your own player(launches your MP3 player)

KBOS 021754Z 04022G29KT 10SM FEW047 BKN140 BKN250 13/03 A3023 RMK AO2 PK WND 02030/1722 SLP235 T01280033 10133 20122 50002

KBOS Airport Info (Airnav.com)

KBOS Flight Activity (Flightaware)

Listeners: 0 out of 2245 total

Air-to-Air: 122.750
Bridgeport Flight Service: 122.200
CTAF: 122.700
CTAF: 122.800
CTAF: 122.900
CTAF: 123.000
Emergency/Guard: 121.500

KEFD Tower (Archives)
Houston, Texas, United States

Feed Status: UP
Listen in your browser - HTML5 player(in browser, HTML5)
Click here to listen with your own player(launches your MP3 player)

KEFD 021754Z 35003KT 10SM CLR 27/06 A3011

KEFD Airport Info (Airnav.com)

KEFD Flight Activity (Flightaware)

Listeners: 0 out of 2245 total

Ellington Tower: 126.050

KFTG/KEIK/KBDU/KLMO/Misc (Archives)
Erie, Colorado, United States

Feed Status: UP
Listen in your browser - HTML5 player(in browser, HTML5)
Click here to listen with your own player(launches your MP3 player)

KDEN 021753Z 17008KT 10SM FEW070 SCT110 BKN130 BKN200 18/09 A3020 RMK AO2 SLP172 VIRGA 60000 T01780089 10189 20089 58000

KDEN Airport Info (Airnav.com)

KDEN Flight Activity (Flightaware)

Listeners: 1 out of 2245 total

Air-to-Air Fixed Wing: 122.750
Air-to-Air Informal: 123.450
Boulder CTAF: 122.725
Erie CTAF: 123.000
Front Range Tower: 120.200
KBKF Tower: 121.000
Longmont CTAF: 122.975
MULTICOM: 122.900
UNICOM: 122.950

KELM App/Dep (Archives)
Elmira, New York, United States

Feed Status: UP
Listen in your browser - HTML5 player(in browser, HTML5)
Click here to listen with your own player(launches your MP3 player)

KELM 021753Z 01009KT 10SM CLR 14/08 A3021 RMK AO2 SLP229 T01440078 10144 20100 50002

KELM Airport Info (Airnav.com)

KELM Flight Activity (Flightaware)

Listeners: 0 out of 2245 total

Elmira Approach/Departure: 128.425
Elmira Approach/Departure (Backup): 118.150
Elmira Approach/Departure (Ithica): 124.300

KELM ATIS (Archives)
Elmira, New York, United States

Feed Status: UP
Listen in your browser - HTML5 player(in browser, HTML5)
Click here to listen with your own player(launches your MP3 player)

KELM 021753Z 01009KT 10SM CLR 14/08 A3021 RMK AO2 SLP229 T01440078 10144 20100 50002

KELM Airport Info (Airnav.com)

KELM Flight Activity (Flightaware)

Listeners: 0 out of 2245 total

Elmira ATIS: 125.475

KELM Del/Gnd/Twr/App (Archives)
Elmira, New York, United States

Feed Status: UP
Listen in your browser - HTML5 player(in browser, HTML5)
Click here to listen with your own player(launches your MP3 player)

KELM 021753Z 01009KT 10SM CLR 14/08 A3021 RMK AO2 SLP229 T01440078 10144 20100 50002

KELM Airport Info (Airnav.com)

KELM Flight Activity (Flightaware)

Listeners: 0 out of 2245 total

Elmira Approach/Departure: 128.425
Elmira Approach/Departure (Backup): 118.150
Elmira Approach/Departure (Ithica): 124.300
Elmira Clearance Delivery/Ground: 121.900
Elmira Tower: 121.100

KELM Del/Ground (Archives)
Elmira, New York, United States

Feed Status: UP
Listen in your browser - HTML5 player(in browser, HTML5)
Click here to listen with your own player(launches your MP3 player)

KELM 021753Z 01009KT 10SM CLR 14/08 A3021 RMK AO2 SLP229 T01440078 10144 20100 50002

KELM Airport Info (Airnav.com)

KELM Flight Activity (Flightaware)

Listeners: 0 out of 2245 total

Elmira Clearance Delivery/Ground: 121.900

KELM Emergency/Guard (Archives)
Elmira, New York, United States

Feed Status: UP
Listen in your browser - HTML5 player(in browser, HTML5)
Click here to listen with your own player(launches your MP3 player)

KELM 021753Z 01009KT 10SM CLR 14/08 A3021 RMK AO2 SLP229 T01440078 10144 20100 50002

KELM Airport Info (Airnav.com)

KELM Flight Activity (Flightaware)

Listeners: 0 out of 2245 total

Emergency/Guard: 121.500

KELM Tower (Archives)
Elmira, New York, United States

Feed Status: UP
Listen in your browser - HTML5 player(in browser, HTML5)
Click here to listen with your own player(launches your MP3 player)

KELM 021753Z 01009KT 10SM CLR 14/08 A3021 RMK AO2 SLP229 T01440078 10144 20100 50002

KELM Airport Info (Airnav.com)

KELM Flight Activity (Flightaware)

Listeners: 0 out of 2245 total

Elmira Tower: 121.100

KEMT Gnd/Twr (Archives)
El Monte, California, United States

Feed Status: UP
Listen in your browser - HTML5 player(in browser, HTML5)
Click here to listen with your own player(launches your MP3 player)

KEMT 021747Z 25003KT 10SM FEW025 22/14 A2998

KEMT Airport Info (Airnav.com)

KEMT Flight Activity (Flightaware)

Listeners: 2 out of 2245 total

El Monte Ground: 125.900
El Monte Tower: 121.200
Santa Fe Dam Practice Area: 123.300

KENW Ground/Tower (Archives)
Kenosha, Wisconsin, United States

Feed Status: UP
Listen in your browser - HTML5 player(in browser, HTML5)
Click here to listen with your own player(launches your MP3 player)

KENW 021753Z 05008KT 10SM SCT020 17/11 A3041 RMK AO2 SLP300 T01720111 10178 20139 51006

KENW Airport Info (Airnav.com)

KENW Flight Activity (Flightaware)

Listeners: 0 out of 2245 total

Kenosha Ground: 121.875
Kenosha Tower: 118.600

KEST CTAF (Archives)
Estherville, Iowa, United States

Feed Status: UP
Listen in your browser - HTML5 player(in browser, HTML5)
Click here to listen with your own player(launches your MP3 player)

KEST 021752Z AUTO 16010KT 10SM CLR 21/08 A3031 RMK AO2 SLP262 T02060083 10211 20106 58008

KEST Airport Info (Airnav.com)

KEST Flight Activity (Flightaware)

Listeners: 0 out of 2245 total

Estherville CTAF: 122.975

KMAN/KEUL CTAF
Nampa, Idaho, United States

Feed Status: DOWN
Offline since: 2022-04-28 00:26:04 UTC

KMAN 021815Z AUTO 13006G11KT 8SM 21/05 A3009 RMK A01

KMAN Airport Info (Airnav.com)

Nampa/Caldwell CTAF/UNICOM: 122.700

KEVB ATIS (Archives)
New Smyrna Beach, Florida, United States

Feed Status: UP
Listen in your browser - HTML5 player(in browser, HTML5)
Click here to listen with your own player(launches your MP3 player)

KEVB 021747Z 30012KT 10SM CLR 29/13 A2989

KEVB Airport Info (Airnav.com)

KEVB Flight Activity (Flightaware)

Listeners: 0 out of 2245 total

New Smyrna ATIS: 124.625

KEVB Gnd/Twr (Archives)
New Smyrna Beach, Florida, United States

Feed Status: UP
Listen in your browser - HTML5 player(in browser, HTML5)
Click here to listen with your own player(launches your MP3 player)

KEVB 021747Z 30012KT 10SM CLR 29/13 A2989

KEVB Airport Info (Airnav.com)

KEVB Flight Activity (Flightaware)

Listeners: 0 out of 2245 total

New Smyrna Ground: 121.325
New Smyrna Tower: 119.675

KEVB Ground (Archives)
New Smyrna Beach, Florida, United States

Feed Status: UP
Listen in your browser - HTML5 player(in browser, HTML5)
Click here to listen with your own player(launches your MP3 player)

KEVB 021747Z 30012KT 10SM CLR 29/13 A2989

KEVB Airport Info (Airnav.com)

KEVB Flight Activity (Flightaware)

Listeners: 0 out of 2245 total

New Smyrna Ground: 121.325

KEVB Tower (Archives)
New Smyrna Beach, Florida, United States

Feed Status: UP
Listen in your browser - HTML5 player(in browser, HTML5)
Click here to listen with your own player(launches your MP3 player)

KEVB 021747Z 30012KT 10SM CLR 29/13 A2989

KEVB Airport Info (Airnav.com)

KEVB Flight Activity (Flightaware)

Listeners: 0 out of 2245 total

New Smyrna Tower: 119.675

KFAR Tower (Archives)
Fargo, North Dakota, United States

Feed Status: UP
Listen in your browser - HTML5 player(in browser, HTML5)
Click here to listen with your own player(launches your MP3 player)

KFAR 021753Z 16012G26KT 10SM BKN110 20/08 A3020 RMK AO2 PK WND 17027/1743 SLP227 60001 T02000078 10206 20117 55005

KFAR Airport Info (Airnav.com)

KFAR Flight Activity (Flightaware)

Listeners: 0 out of 2245 total

Fargo Tower: 133.800

KFCM Tower (Archives)
Minneapolis, Minnesota, United States

Feed Status: UP
Listen in your browser - HTML5 player(in browser, HTML5)
Click here to listen with your own player(launches your MP3 player)

KFCM 021753Z 16008G16KT 10SM BKN110 22/09 A3033 RMK AO2 SLP270 T02170089 10217 20128 58012 $

KFCM Airport Info (Airnav.com)

KFCM Flight Activity (Flightaware)

Listeners: 3 out of 2245 total

Flying Cloud Tower: 119.150

KFDK ATIS (Archives)
Frederick, Maryland, United States

Feed Status: UP
Listen in your browser - HTML5 player(in browser, HTML5)
Click here to listen with your own player(launches your MP3 player)

KFDK 021747Z 03011KT 4SM -RA OVC009 13/13 A3007

KFDK Airport Info (Airnav.com)

KFDK Flight Activity (Flightaware)

Listeners: 0 out of 2245 total

Frederick ATIS: 124.875

KFDK Del/Gnd/Twr/CTAF #1 (Archives)
Frederick, Maryland, United States

Feed Status: UP
Listen in your browser - HTML5 player(in browser, HTML5)
Click here to listen with your own player(launches your MP3 player)

KFDK 021747Z 03011KT 4SM -RA OVC009 13/13 A3007

KFDK Airport Info (Airnav.com)

KFDK Flight Activity (Flightaware)

Listeners: 1 out of 2245 total

Clearance Delivery (Potomac Approach): 126.900
Frederick Ground: 121.975
Frederick Tower/CTAF: 132.400

KFFC CTAF (Archives)
Atlanta, Georgia, United States

Feed Status: UP
Listen in your browser - HTML5 player(in browser, HTML5)
Click here to listen with your own player(launches your MP3 player)

KCCO 021815Z AUTO 34009G16KT 10SM CLR 23/11 A2999 RMK AO2 T02260111

KCCO Airport Info (Airnav.com)

KCCO Flight Activity (Flightaware)

Listeners: 1 out of 2245 total

Falcon CTAF: 123.050

KFFZ ATIS (Archives)
Mesa, Arizona, United States

Feed Status: UP
Listen in your browser - HTML5 player(in browser, HTML5)
Click here to listen with your own player(launches your MP3 player)

KFFZ Airport Info (Airnav.com)

KFFZ Flight Activity (Flightaware)

Listeners: 0 out of 2245 total

Falcon ATIS: 118.250

KFFZ Ground (Archives)
Mesa, Arizona, United States

Feed Status: UP
Listen in your browser - HTML5 player(in browser, HTML5)
Click here to listen with your own player(launches your MP3 player)

KFFZ Airport Info (Airnav.com)

KFFZ Flight Activity (Flightaware)

Listeners: 0 out of 2245 total

Falcon Ground: 121.300

KFFZ Twr #1 (Archives)
Mesa, Arizona, United States

Feed Status: UP
Listen in your browser - HTML5 player(in browser, HTML5)
Click here to listen with your own player(launches your MP3 player)

KFFZ Airport Info (Airnav.com)

KFFZ Flight Activity (Flightaware)

Listeners: 1 out of 2245 total

Falcon Tower (North, 4L/22R): 119.700
Falcon Tower (South)/CTAF: 124.600

KFFZ Twr #2 (Archives)
Mesa, Arizona, United States

Feed Status: UP
Listen in your browser - HTML5 player(in browser, HTML5)
Click here to listen with your own player(launches your MP3 player)

KFFZ Airport Info (Airnav.com)

KFFZ Flight Activity (Flightaware)

Listeners: 0 out of 2245 total

Falcon Tower (North, 4L/22R): 119.700
Falcon Tower (South)/CTAF: 124.600

KFFZ Twr (North) (Archives)
Mesa, Arizona, United States

Feed Status: UP
Listen in your browser - HTML5 player(in browser, HTML5)
Click here to listen with your own player(launches your MP3 player)

KFFZ Airport Info (Airnav.com)

KFFZ Flight Activity (Flightaware)

Listeners: 3 out of 2245 total

Falcon Tower (North, 4L/22R): 119.700

KFFZ Twr (South)/CTAF (Archives)
Mesa, Arizona, United States

Feed Status: UP
Listen in your browser - HTML5 player(in browser, HTML5)
Click here to listen with your own player(launches your MP3 player)

KFFZ Airport Info (Airnav.com)

KFFZ Flight Activity (Flightaware)

Listeners: 0 out of 2245 total

Falcon Tower (South)/CTAF: 124.600

KFHU Gnd/Twr/Radar (Archives)
Fort Huachuca/Sierra Vista, Arizona, United States

Feed Status: UP
Listen in your browser - HTML5 player(in browser, HTML5)
Click here to listen with your own player(launches your MP3 player)

KFHU 021755Z AUTO 11007KT 10SM CLR 25/10 A3015 RMK AO2 SLP154 T02450104 10246 20132 50001 $

KFHU Airport Info (Airnav.com)

KFHU Flight Activity (Flightaware)

Listeners: 0 out of 2245 total

Libby AAF GCA Radar: 127.050
Libby AAF GCA Radar: 254.350
Libby Ground: 121.700
Libby Ground: 268.700
Libby Tower: 124.950
Libby Tower: 284.750

KCON/KDAW/KFIT CTAF (Archives)
Fitchburg, Massachusetts, United States

Feed Status: UP
Listen in your browser - HTML5 player(in browser, HTML5)
Click here to listen with your own player(launches your MP3 player)

KMHT 021753Z 02011G21KT 10SM SCT060 BKN120 BKN250 13/M02 A3025 RMK AO2 SLP259 T01281022 10133 20106 58003

KMHT Airport Info (Airnav.com)

KMHT Flight Activity (Flightaware)

Listeners: 0 out of 2245 total

NH/MA Area CTAF: 122.700

KFIT CTAF
Fitchburg, Massachusetts, United States

Feed Status: DOWN
Offline since: 2022-07-12 22:14:22 UTC

KFIT 021752Z AUTO 04009G18KT 10SM CLR 12/M02 A3025 RMK AO2 SLP246 T01171022 10128 20106 58001

KFIT Airport Info (Airnav.com)

Fitchburg CTAF/UNICOM: 122.700

KFIT CTAF/FSS RCO (Archives)
Fitchburg, Massachusetts, United States

Feed Status: UP
Listen in your browser - HTML5 player(in browser, HTML5)
Click here to listen with your own player(launches your MP3 player)

KFIT 021752Z AUTO 04009G18KT 10SM CLR 12/M02 A3025 RMK AO2 SLP246 T01171022 10128 20106 58001

KFIT Airport Info (Airnav.com)

KFIT Flight Activity (Flightaware)

Listeners: 0 out of 2245 total

Bridgeport Radio (FSS via RCO): 119.025
Emergency/Guard: 121.500
Fitchburg CTAF/UNICOM: 122.700

MA/NH/RI/CT Area CTAF (Archives)
Fitchburg, Massachusetts, United States

Feed Status: UP
Listen in your browser - HTML5 player(in browser, HTML5)
Click here to listen with your own player(launches your MP3 player)

KBOS 021754Z 04022G29KT 10SM FEW047 BKN140 BKN250 13/03 A3023 RMK AO2 PK WND 02030/1722 SLP235 T01280033 10133 20122 50002

KBOS Airport Info (Airnav.com)

KBOS Flight Activity (Flightaware)

Listeners: 0 out of 2245 total

Air-to-Air: 122.750
Bridgeport Flight Service: 122.200
CTAF: 122.700
CTAF: 122.800
CTAF: 122.900
CTAF: 123.000
Emergency/Guard: 121.500

MA/NH/RI/CT Area CTAF (Archives)
Fitchburg, Massachusetts, United States

Feed Status: UP
Listen in your browser - HTML5 player(in browser, HTML5)
Click here to listen with your own player(launches your MP3 player)

KBOS 021754Z 04022G29KT 10SM FEW047 BKN140 BKN250 13/03 A3023 RMK AO2 PK WND 02030/1722 SLP235 T01280033 10133 20122 50002

KBOS Airport Info (Airnav.com)

KBOS Flight Activity (Flightaware)

Listeners: 0 out of 2245 total

Air-to-Air: 122.750
Bridgeport Flight Service: 122.200
CTAF: 122.700
CTAF: 122.800
CTAF: 122.900
CTAF: 123.000
Emergency/Guard: 121.500

MA/NH/RI/CT Area CTAF (Archives)
Fitchburg, Massachusetts, United States

Feed Status: UP
Listen in your browser - HTML5 player(in browser, HTML5)
Click here to listen with your own player(launches your MP3 player)

KBOS 021754Z 04022G29KT 10SM FEW047 BKN140 BKN250 13/03 A3023 RMK AO2 PK WND 02030/1722 SLP235 T01280033 10133 20122 50002

KBOS Airport Info (Airnav.com)

KBOS Flight Activity (Flightaware)

Listeners: 0 out of 2245 total

Air-to-Air: 122.750
Bridgeport Flight Service: 122.200
CTAF: 122.700
CTAF: 122.800
CTAF: 122.900
CTAF: 123.000
Emergency/Guard: 121.500

KFKA CTAF (Archives)
Preston, Minnesota, United States

Feed Status: UP
Listen in your browser - HTML5 player(in browser, HTML5)
Click here to listen with your own player(launches your MP3 player)

KFKA 021815Z AUTO 08004KT 10SM CLR 19/09 A3038 RMK AO2 T01920087

KFKA Airport Info (Airnav.com)

KFKA Flight Activity (Flightaware)

Listeners: 0 out of 2245 total

Preston CTAF: 122.900

KFLG Ground/Tower (Archives)
Flagstaff, Arizona, United States

Feed Status: UP
Listen in your browser - HTML5 player(in browser, HTML5)
Click here to listen with your own player(launches your MP3 player)

KFLG 021815Z VRB03KT 10SM VCTS BKN048 19/07 A3028 RMK AO2 TSE09 T01940067

KFLG Airport Info (Airnav.com)

KFLG Flight Activity (Flightaware)

Listeners: 0 out of 2245 total

Flagstaff Ground: 121.900
Flagstaff Tower: 134.550

KFLO App/Dep (Archives)
Florence, South Carolina, United States

Feed Status: UP
Listen in your browser - HTML5 player(in browser, HTML5)
Click here to listen with your own player(launches your MP3 player)

KFLO 021753Z 33010KT 10SM CLR 22/11 A2992 RMK AO2 SLP130 T02170111 10228 20144 58009

KFLO Airport Info (Airnav.com)

KFLO Flight Activity (Flightaware)

Listeners: 0 out of 2245 total

Florence Approach: 135.250
Florence Approach: 118.600

KFLO ATIS (Archives)
Florence, South Carolina, United States

Feed Status: UP
Listen in your browser - HTML5 player(in browser, HTML5)
Click here to listen with your own player(launches your MP3 player)

KFLO 021753Z 33010KT 10SM CLR 22/11 A2992 RMK AO2 SLP130 T02170111 10228 20144 58009

KFLO Airport Info (Airnav.com)

KFLO Flight Activity (Flightaware)

Listeners: 0 out of 2245 total

Florence ATIS: 123.625

KFLO Emergency/Guard (Archives)
Florence, South Carolina, United States

Feed Status: UP
Listen in your browser - HTML5 player(in browser, HTML5)
Click here to listen with your own player(launches your MP3 player)

KFLO 021753Z 33010KT 10SM CLR 22/11 A2992 RMK AO2 SLP130 T02170111 10228 20144 58009

KFLO Airport Info (Airnav.com)

KFLO Flight Activity (Flightaware)

Listeners: 0 out of 2245 total

Emergency/Guard: 121.500

KFLO Gnd/Twr/App (Archives)
Florence, South Carolina, United States

Feed Status: UP
Listen in your browser - HTML5 player(in browser, HTML5)
Click here to listen with your own player(launches your MP3 player)

KFLO 021753Z 33010KT 10SM CLR 22/11 A2992 RMK AO2 SLP130 T02170111 10228 20144 58009

KFLO Airport Info (Airnav.com)

KFLO Flight Activity (Flightaware)

Listeners: 0 out of 2245 total

Florence Approach: 118.600
Florence Approach: 135.250
Florence Ground: 121.900
Florence Tower: 125.100

KFLO Ground (Archives)
Florence, South Carolina, United States

Feed Status: UP
Listen in your browser - HTML5 player(in browser, HTML5)
Click here to listen with your own player(launches your MP3 player)

KFLO 021753Z 33010KT 10SM CLR 22/11 A2992 RMK AO2 SLP130 T02170111 10228 20144 58009

KFLO Airport Info (Airnav.com)

KFLO Flight Activity (Flightaware)

Listeners: 0 out of 2245 total

Florence Ground: 121.900

KFLO Tower (Archives)
Florence, South Carolina, United States

Feed Status: UP
Listen in your browser - HTML5 player(in browser, HTML5)
Click here to listen with your own player(launches your MP3 player)

KFLO 021753Z 33010KT 10SM CLR 22/11 A2992 RMK AO2 SLP130 T02170111 10228 20144 58009

KFLO Airport Info (Airnav.com)

KFLO Flight Activity (Flightaware)

Listeners: 0 out of 2245 total

Florence Tower: 125.100

Boston Approach (Cape North)
Falmouth, Massachusetts, United States

Feed Status: DOWN
Offline since: 2022-10-01 02:30:06 UTC

KFMH 021755Z 04027G33KT 10SM OVC019 12/08 A3014

KFMH Airport Info (Airnav.com)

Boston Approach (Cape North Arrival): 118.200

Boston Approach (OTIS Arrival)
Falmouth, Massachusetts, United States

Feed Status: DOWN
Offline since: 2022-10-01 02:30:06 UTC

KFMH 021755Z 04027G33KT 10SM OVC019 12/08 A3014

KFMH Airport Info (Airnav.com)

Boston Approach (OTIS Arrival): 126.300

KFMH ATIS
Falmouth, Massachusetts, United States

Feed Status: DOWN
Offline since: 2022-10-01 02:30:06 UTC

KFMH 021755Z 04027G33KT 10SM OVC019 12/08 A3014

KFMH Airport Info (Airnav.com)

Coast Guard ATIS: 120.475

KFMH Ground
Falmouth, Massachusetts, United States

Feed Status: DOWN
Offline since: 2022-10-01 02:30:06 UTC

KFMH 021755Z 04027G33KT 10SM OVC019 12/08 A3014

KFMH Airport Info (Airnav.com)

Coast Guard Ground: 124.150

KFMH Tower
Falmouth, Massachusetts, United States

Feed Status: DOWN
Offline since: 2022-10-01 02:30:06 UTC

KFMH 021755Z 04027G33KT 10SM OVC019 12/08 A3014

KFMH Airport Info (Airnav.com)

Coast Guard Tower: 128.425

KFMN Gnd/Twr/App (Archives)
Farmington, New Mexico, United States

Feed Status: UP
Listen in your browser - HTML5 player(in browser, HTML5)
Click here to listen with your own player(launches your MP3 player)

KFMN 021753Z 10014KT 10SM SCT085 SCT100 18/11 A3028 RMK AO2 SLP207 60009 T01780106 10178 20117 50000

KFMN Airport Info (Airnav.com)

KFMN Flight Activity (Flightaware)

Listeners: 0 out of 2245 total

Denver Center (Sector 36 Farmington Low): 118.575
Emergency/Guard: 121.500
Farmington Ground: 121.700
Farmington Tower: 118.900

KFMY ATIS
Fort Myers, Florida, United States

Feed Status: DOWN
Offline since: 2022-09-28 17:51:22 UTC



KFMY Airport Info (Airnav.com)

Page ATIS: 123.725

KFMY Del/Gnd/Twr
Fort Myers, Florida, United States

Feed Status: DOWN
Offline since: 2022-09-28 17:51:22 UTC



KFMY Airport Info (Airnav.com)

Page Clearance/Ground: 121.700
Page Tower: 119.000

KFNL ASRI (FBO) (Archives)
Fort Collins/Loveland, Colorado, United States

Feed Status: UP
Listen in your browser - HTML5 player(in browser, HTML5)
Click here to listen with your own player(launches your MP3 player)

KFNL 021756Z 17007KT 10SM FEW110 14/11 A3019 RMK AO2 SLP193 T01440106 10150 20078 58005

KFNL Airport Info (Airnav.com)

KFNL Flight Activity (Flightaware)

Listeners: 0 out of 2245 total

Fort Collins ASRI (FBO): 130.575

KFNL Ground (Archives)
Fort Collins/Loveland, Colorado, United States

Feed Status: UP
Listen in your browser - HTML5 player(in browser, HTML5)
Click here to listen with your own player(launches your MP3 player)

KFNL 021756Z 17007KT 10SM FEW110 14/11 A3019 RMK AO2 SLP193 T01440106 10150 20078 58005

KFNL Airport Info (Airnav.com)

KFNL Flight Activity (Flightaware)

Listeners: 0 out of 2245 total

Fort Collins Ground: 121.650

KFNL Tower/CTAF (Archives)
Fort Collins/Loveland, Colorado, United States

Feed Status: UP
Listen in your browser - HTML5 player(in browser, HTML5)
Click here to listen with your own player(launches your MP3 player)

KFNL 021756Z 17007KT 10SM FEW110 14/11 A3019 RMK AO2 SLP193 T01440106 10150 20078 58005

KFNL Airport Info (Airnav.com)

KFNL Flight Activity (Flightaware)

Listeners: 0 out of 2245 total

Fort Collins Tower/CTAF: 118.400

KFPR ATIS #1 (Archives)
Fort Pierce, Florida, United States

Feed Status: UP
Listen in your browser - HTML5 player(in browser, HTML5)
Click here to listen with your own player(launches your MP3 player)

KFPR 021753Z VRB03KT 10SM OVC070 29/16 A2991 RMK AO2 SLP128 T02890161 10294 20228 58010

KFPR Airport Info (Airnav.com)

KFPR Flight Activity (Flightaware)

Listeners: 0 out of 2245 total

Fort Pierce ATIS: 134.825

KFPR Gnd/Twr #1 (Archives)
Fort Pierce, Florida, United States

Feed Status: UP
Listen in your browser - HTML5 player(in browser, HTML5)
Click here to listen with your own player(launches your MP3 player)

KFPR 021753Z VRB03KT 10SM OVC070 29/16 A2991 RMK AO2 SLP128 T02890161 10294 20228 58010

KFPR Airport Info (Airnav.com)

KFPR Flight Activity (Flightaware)

Listeners: 1 out of 2245 total

Ft Pierce Ground: 119.550
Ft Pierce Tower: 128.200

KFPR Ground (Archives)
Fort Pierce, Florida, United States

Feed Status: UP
Listen in your browser - HTML5 player(in browser, HTML5)
Click here to listen with your own player(launches your MP3 player)

KFPR 021753Z VRB03KT 10SM OVC070 29/16 A2991 RMK AO2 SLP128 T02890161 10294 20228 58010

KFPR Airport Info (Airnav.com)

KFPR Flight Activity (Flightaware)

Listeners: 0 out of 2245 total

Ft Pierce Ground: 119.550

KFPR Tower (Archives)
Fort Pierce, Florida, United States

Feed Status: UP
Listen in your browser - HTML5 player(in browser, HTML5)
Click here to listen with your own player(launches your MP3 player)

KFPR 021753Z VRB03KT 10SM OVC070 29/16 A2991 RMK AO2 SLP128 T02890161 10294 20228 58010

KFPR Airport Info (Airnav.com)

KFPR Flight Activity (Flightaware)

Listeners: 0 out of 2245 total

Ft Pierce Tower: 128.200

Palm Beach App/Dep (Archives)
Fort Pierce, Florida, United States

Feed Status: UP
Listen in your browser - HTML5 player(in browser, HTML5)
Click here to listen with your own player(launches your MP3 player)

KFPR 021753Z VRB03KT 10SM OVC070 29/16 A2991 RMK AO2 SLP128 T02890161 10294 20228 58010

KFPR Airport Info (Airnav.com)

KFPR Flight Activity (Flightaware)

Listeners: 0 out of 2245 total

Palm Beach Approach/Departure: 123.625

KFRG ATIS (Archives)
Farmingdale, New York, United States

Feed Status: UP
Listen in your browser - HTML5 player(in browser, HTML5)
Click here to listen with your own player(launches your MP3 player)

KFRG 021753Z 04018G24KT 10SM FEW030 BKN049 OVC055 15/08 A3009 RMK AO2 PK WND 04028/1710 SLP190 T01500078 10161 20144 51015

KFRG Airport Info (Airnav.com)

KFRG Flight Activity (Flightaware)

Listeners: 1 out of 2245 total

Republic ATIS: 126.650

KFRG Delivery/Ground (Archives)
Farmingdale, New York, United States

Feed Status: UP
Listen in your browser - HTML5 player(in browser, HTML5)
Click here to listen with your own player(launches your MP3 player)

KFRG 021753Z 04018G24KT 10SM FEW030 BKN049 OVC055 15/08 A3009 RMK AO2 PK WND 04028/1710 SLP190 T01500078 10161 20144 51015

KFRG Airport Info (Airnav.com)

KFRG Flight Activity (Flightaware)

Listeners: 0 out of 2245 total

Emergency/Guard: 121.500
Republic Clearance Delivery: 128.250
Republic Ground: 121.600

KFRG Tower (Archives)
Farmingdale, New York, United States

Feed Status: UP
Listen in your browser - HTML5 player(in browser, HTML5)
Click here to listen with your own player(launches your MP3 player)

KFRG 021753Z 04018G24KT 10SM FEW030 BKN049 OVC055 15/08 A3009 RMK AO2 PK WND 04028/1710 SLP190 T01500078 10161 20144 51015

KFRG Airport Info (Airnav.com)

KFRG Flight Activity (Flightaware)

Listeners: 2 out of 2245 total

Republic Tower: 118.800

KFRM CTAF (Air Race Classic)
Fairmont, Minnesota, United States

Feed Status: DOWN
Offline since: 2019-06-25 18:58:03 UTC

Fairmont CTAF: 122.800

KFSD Twr/App/Dep/ZMP (Archives)
Sioux Falls, South Dakota, United States

Feed Status: UP
Listen in your browser - HTML5 player(in browser, HTML5)
Click here to listen with your own player(launches your MP3 player)

KFSD 021756Z 18013KT 10SM FEW130 SCT200 25/06 A3025 RMK AO2 SLP236 T02500061 10250 20133 58005

KFSD Airport Info (Airnav.com)

KFSD Flight Activity (Flightaware)

Listeners: 2 out of 2245 total

Minneapolis Center (Sector 33 PIR Low): 132.050
Sioux Falls Approach/Departure: 125.800
Sioux Falls Tower: 118.300

KFTW Del/Gnd/Twr (Archives)
Fort Worth, Texas, United States

Feed Status: UP
Listen in your browser - HTML5 player(in browser, HTML5)
Click here to listen with your own player(launches your MP3 player)

KFTW 021753Z 00000KT 10SM CLR 26/08 A3019 RMK AO2 SLP218 T02560078 10261 20117 58009

KFTW Airport Info (Airnav.com)

KFTW Flight Activity (Flightaware)

Listeners: 1 out of 2245 total

Meacham Clearance Delivery: 124.650
Meacham Ground: 121.900
Meacham Tower: 118.300

KFTW Del/Ground (Archives)
Fort Worth, Texas, United States

Feed Status: UP
Listen in your browser - HTML5 player(in browser, HTML5)
Click here to listen with your own player(launches your MP3 player)

KFTW 021753Z 00000KT 10SM CLR 26/08 A3019 RMK AO2 SLP218 T02560078 10261 20117 58009

KFTW Airport Info (Airnav.com)

KFTW Flight Activity (Flightaware)

Listeners: 0 out of 2245 total

Meacham Clearance Delivery: 124.650
Meacham Ground: 121.900

KFTW Tower (Archives)
Fort Worth, Texas, United States

Feed Status: UP
Listen in your browser - HTML5 player(in browser, HTML5)
Click here to listen with your own player(launches your MP3 player)

KFTW 021753Z 00000KT 10SM CLR 26/08 A3019 RMK AO2 SLP218 T02560078 10261 20117 58009

KFTW Airport Info (Airnav.com)

KFTW Flight Activity (Flightaware)

Listeners: 0 out of 2245 total

Meacham Tower: 118.300

Regional App (Meacham North) (Archives)
Fort Worth, Texas, United States

Feed Status: UP
Listen in your browser - HTML5 player(in browser, HTML5)
Click here to listen with your own player(launches your MP3 player)

KFTW 021753Z 00000KT 10SM CLR 26/08 A3019 RMK AO2 SLP218 T02560078 10261 20117 58009

KFTW Airport Info (Airnav.com)

KFTW Flight Activity (Flightaware)

Listeners: 0 out of 2245 total

Regional Approach (Meacham North): 118.100

Regional App (Meacham South) (Archives)
Fort Worth, Texas, United States

Feed Status: UP
Listen in your browser - HTML5 player(in browser, HTML5)
Click here to listen with your own player(launches your MP3 player)

KDFW 021753Z 00000KT 10SM CLR 26/07 A3019 RMK AO2 SLP215 T02560072 10261 20139 58008

KDFW Airport Info (Airnav.com)

KDFW Flight Activity (Flightaware)

Listeners: 0 out of 2245 total

Regional Approach (Meacham South): 135.975

Regional Approach (Meacham North/South) (Archives)
Fort Worth, Texas, United States

Feed Status: UP
Listen in your browser - HTML5 player(in browser, HTML5)
Click here to listen with your own player(launches your MP3 player)

KFTW 021753Z 00000KT 10SM CLR 26/08 A3019 RMK AO2 SLP218 T02560078 10261 20117 58009

KFTW Airport Info (Airnav.com)

KFTW Flight Activity (Flightaware)

Listeners: 0 out of 2245 total

Regional Approach (Meacham North): 118.100
Regional Approach (Meacham South): 135.975

Atlanta Approach (N. Sat) (Archives)
Atlanta, Georgia, United States

Feed Status: UP
Listen in your browser - HTML5 player(in browser, HTML5)
Click here to listen with your own player(launches your MP3 player)

KRYY 021750Z VRB06G15KT 10SM CLR 22/12 A3001 RMK AO2 SLP156 T02170117 10217 20117 58004 $

KRYY Airport Info (Airnav.com)

KRYY Flight Activity (Flightaware)

Listeners: 1 out of 2245 total

Atlanta Approach (North Satellite): 121.000

KFTY Ground/Tower (Archives)
Atlanta, Georgia, United States

Feed Status: UP
Listen in your browser - HTML5 player(in browser, HTML5)
Click here to listen with your own player(launches your MP3 player)

KFTY 021753Z 33008KT 10SM CLR 23/12 A2999 RMK AO2 SLP149 T02280117 10233 20128 58006

KFTY Airport Info (Airnav.com)

KFTY Flight Activity (Flightaware)

Listeners: 0 out of 2245 total

County Ground: 121.700
County Tower: 118.450

KFUL Ground/Tower (Archives)
Fullerton, California, United States

Feed Status: UP
Listen in your browser - HTML5 player(in browser, HTML5)
Click here to listen with your own player(launches your MP3 player)

KFUL 021753Z VRB03KT 10SM SCT026 24/14 A2996 RMK AO2 SLP144 T02390144 10239 20206 50007

KFUL Airport Info (Airnav.com)

KFUL Flight Activity (Flightaware)

Listeners: 0 out of 2245 total

Fullerton Ground: 121.800
Fullerton Tower: 119.100

KFWS Ground/Tower (Archives)
Fort Worth, Texas, United States

Feed Status: UP
Listen in your browser - HTML5 player(in browser, HTML5)
Click here to listen with your own player(launches your MP3 player)

KFWS 021752Z 08008KT 10SM CLR 27/06 A3021

KFWS Airport Info (Airnav.com)

KFWS Flight Activity (Flightaware)

Listeners: 2 out of 2245 total

Spinks Ground: 119.475
Spinks Tower/CTAF: 124.625

KFXE Practice Area (Archives)
Fort Lauderdale, Florida, United States

Feed Status: UP
Listen in your browser - HTML5 player(in browser, HTML5)
Click here to listen with your own player(launches your MP3 player)

KFXE 021753Z VRB06KT 10SM OVC070 29/19 A2990 RMK AO2 SLP126 6//// T02940189 10300 20244 58013 PNO $

KFXE Airport Info (Airnav.com)

KFXE Flight Activity (Flightaware)

Listeners: 0 out of 2245 total

Coral Springs/Everglades Practice Area: 123.450

KFYV Gnd/Twr/App/ZME (Archives)
Fayetteville, Arkansas, United States

Feed Status: UP
Listen in your browser - HTML5 player(in browser, HTML5)
Click here to listen with your own player(launches your MP3 player)

KFYV 021753Z VRB03KT 10SM CLR 26/03 A3025 RMK AO2 SLP237 T02610033 10267 20044 58009

KFYV Airport Info (Airnav.com)

KFYV Flight Activity (Flightaware)

Listeners: 3 out of 2245 total

Drake Ground: 121.800
Drake Tower: 128.000
Jonesboro Flight Service Station (FSS): 122.300
Memphis Center (High): 132.550
Memphis Center (High): 353.800
Razorback Approach: 121.000

KGAI CTAF/UNICOM (Archives)
Gaithersburg, Maryland, United States

Feed Status: UP
Listen in your browser - HTML5 player(in browser, HTML5)
Click here to listen with your own player(launches your MP3 player)

KGAI 021756Z AUTO VRB05KT BKN010 BKN016 OVC022 13/12 A3004 RMK AO2 SLP187 P0002 60010 T01280122 10133 20122 51008 PWINO $

KGAI Airport Info (Airnav.com)

KGAI Flight Activity (Flightaware)

Listeners: 0 out of 2245 total

Gaithersburg CTAF: 123.075

KGBG CTAF (Archives)
Galesburg, Illinois, United States

Feed Status: UP
Listen in your browser - HTML5 player(in browser, HTML5)
Click here to listen with your own player(launches your MP3 player)

KGBG 021815Z AUTO 05009KT 10SM CLR 22/11 A3035 RMK AO2 T02210114

KGBG Airport Info (Airnav.com)

KGBG Flight Activity (Flightaware)

Listeners: 0 out of 2245 total

Emergency/Guard: 121.500
Galesburg CTAF: 123.000

KGBR/20N CTAF
Great Barrington, Massachusetts, United States

Feed Status: DOWN
Offline since: 2020-11-21 13:08:39 UTC

KGBR Airport Info (Airnav.com)

Great Barrington CTAF: 122.800

KGDM/KORE CTAF
Gardner, Massachusetts, United States

Feed Status: DOWN
Offline since: 2022-07-12 22:14:22 UTC

KGDM Airport Info (Airnav.com)

Gardner CTAF: 122.800

KGED ASOS (Archives)
Georgetown, Delaware, United States

Feed Status: UP
Listen in your browser - HTML5 player(in browser, HTML5)
Click here to listen with your own player(launches your MP3 player)

KGED 021754Z AUTO 04016G29KT 2SM -RA BR BKN008 OVC015 17/16 A2993 RMK AO2 PK WND 05030/1656 SLP134 P0003 60013 T01720156 10178 20167 50002 $

KGED Airport Info (Airnav.com)

KGED Flight Activity (Flightaware)

Listeners: 0 out of 2245 total

Georgetown ASOS: 118.375

KGED Clearance Delivery (Archives)
Georgetown, Delaware, United States

Feed Status: UP
Listen in your browser - HTML5 player(in browser, HTML5)
Click here to listen with your own player(launches your MP3 player)

KGED 021754Z AUTO 04016G29KT 2SM -RA BR BKN008 OVC015 17/16 A2993 RMK AO2 PK WND 05030/1656 SLP134 P0003 60013 T01720156 10178 20167 50002 $

KGED Airport Info (Airnav.com)

KGED Flight Activity (Flightaware)

Listeners: 0 out of 2245 total

Georgetown Clearance Delivery (Dover Approach): 125.550

KGED CTAF (Archives)
Georgetown, Delaware, United States

Feed Status: UP
Listen in your browser - HTML5 player(in browser, HTML5)
Click here to listen with your own player(launches your MP3 player)

KGED 021754Z AUTO 04016G29KT 2SM -RA BR BKN008 OVC015 17/16 A2993 RMK AO2 PK WND 05030/1656 SLP134 P0003 60013 T01720156 10178 20167 50002 $

KGED Airport Info (Airnav.com)

KGED Flight Activity (Flightaware)

Listeners: 0 out of 2245 total

Georgetown CTAF: 123.000

KGED Emergency/Guard (Archives)
Georgetown, Delaware, United States

Feed Status: UP
Listen in your browser - HTML5 player(in browser, HTML5)
Click here to listen with your own player(launches your MP3 player)

KGED 021754Z AUTO 04016G29KT 2SM -RA BR BKN008 OVC015 17/16 A2993 RMK AO2 PK WND 05030/1656 SLP134 P0003 60013 T01720156 10178 20167 50002 $

KGED Airport Info (Airnav.com)

KGED Flight Activity (Flightaware)

Listeners: 0 out of 2245 total

Emergency/Guard: 121.500

KGEU App/Dep (Archives)
Glendale, Arizona, United States

Feed Status: UP
Listen in your browser - HTML5 player(in browser, HTML5)
Click here to listen with your own player(launches your MP3 player)

KGEU 021752Z VRB03KT 10SM FEW150 31/16 A2992

KGEU Airport Info (Airnav.com)

KGEU Flight Activity (Flightaware)

Listeners: 0 out of 2245 total

Luke Approach/Departure: 118.150

KGEU ATIS (Archives)
Glendale, Arizona, United States

Feed Status: UP
Listen in your browser - HTML5 player(in browser, HTML5)
Click here to listen with your own player(launches your MP3 player)

KGEU 021752Z VRB03KT 10SM FEW150 31/16 A2992

KGEU Airport Info (Airnav.com)

KGEU Flight Activity (Flightaware)

Listeners: 0 out of 2245 total

Glendale ATIS: 119.425

KGEU Ground (Archives)
Glendale, Arizona, United States

Feed Status: UP
Listen in your browser - HTML5 player(in browser, HTML5)
Click here to listen with your own player(launches your MP3 player)

KGEU 021752Z VRB03KT 10SM FEW150 31/16 A2992

KGEU Airport Info (Airnav.com)

KGEU Flight Activity (Flightaware)

Listeners: 0 out of 2245 total

Glendale Ground: 118.000

KGEU Tower (Archives)
Glendale, Arizona, United States

Feed Status: UP
Listen in your browser - HTML5 player(in browser, HTML5)
Click here to listen with your own player(launches your MP3 player)

KGEU 021752Z VRB03KT 10SM FEW150 31/16 A2992

KGEU Airport Info (Airnav.com)

KGEU Flight Activity (Flightaware)

Listeners: 0 out of 2245 total

Glendale Tower: 121.000

KGFK Approach (Archives)
Grand Forks, North Dakota, United States

Feed Status: UP
Listen in your browser - HTML5 player(in browser, HTML5)
Click here to listen with your own player(launches your MP3 player)

KGFK 021753Z 17012KT 10SM SCT110 BKN200CB 18/09 A3019 RMK AO2 SLP226 CB S-W MOV NE CBMAM OHD MOV NE T01780094 10183 20122 56009

KGFK Airport Info (Airnav.com)

KGFK Flight Activity (Flightaware)

Listeners: 0 out of 2245 total

Grand Forks Approach: 118.100
Grand Forks Approach (VFR): 132.300

KGFK ATIS (Archives)
Grand Forks, North Dakota, United States

Feed Status: UP
Listen in your browser - HTML5 player(in browser, HTML5)
Click here to listen with your own player(launches your MP3 player)

KGFK 021753Z 17012KT 10SM SCT110 BKN200CB 18/09 A3019 RMK AO2 SLP226 CB S-W MOV NE CBMAM OHD MOV NE T01780094 10183 20122 56009

KGFK Airport Info (Airnav.com)

KGFK Flight Activity (Flightaware)

Listeners: 0 out of 2245 total

Grand Forks ATIS: 119.400

KGFK Ground (Archives)
Grand Forks, North Dakota, United States

Feed Status: UP
Listen in your browser - HTML5 player(in browser, HTML5)
Click here to listen with your own player(launches your MP3 player)

KGFK 021753Z 17012KT 10SM SCT110 BKN200CB 18/09 A3019 RMK AO2 SLP226 CB S-W MOV NE CBMAM OHD MOV NE T01780094 10183 20122 56009

KGFK Airport Info (Airnav.com)

KGFK Flight Activity (Flightaware)

Listeners: 1 out of 2245 total

Grand Forks Ground: 124.575

KGFK Tower 1 (118.4/IFR/VFR) (Archives)
Grand Forks, North Dakota, United States

Feed Status: UP
Listen in your browser - HTML5 player(in browser, HTML5)
Click here to listen with your own player(launches your MP3 player)

KGFK 021753Z 17012KT 10SM SCT110 BKN200CB 18/09 A3019 RMK AO2 SLP226 CB S-W MOV NE CBMAM OHD MOV NE T01780094 10183 20122 56009

KGFK Airport Info (Airnav.com)

KGFK Flight Activity (Flightaware)

Listeners: 0 out of 2245 total

Grand Forks Tower (IFR/VFR): 118.400

KGFK Tower 2 (120.55/VFR) (Archives)
Grand Forks, North Dakota, United States

Feed Status: UP
Listen in your browser - HTML5 player(in browser, HTML5)
Click here to listen with your own player(launches your MP3 player)

KGFK 021753Z 17012KT 10SM SCT110 BKN200CB 18/09 A3019 RMK AO2 SLP226 CB S-W MOV NE CBMAM OHD MOV NE T01780094 10183 20122 56009

KGFK Airport Info (Airnav.com)

KGFK Flight Activity (Flightaware)

Listeners: 0 out of 2245 total

Grand Forks Tower (VFR): 120.550

KGFL CTAF/App (Archives)
Glens Falls, New York, United States

Feed Status: UP
Listen in your browser - HTML5 player(in browser, HTML5)
Click here to listen with your own player(launches your MP3 player)

KGFL 021753Z AUTO 05014KT 10SM CLR 14/03 A3026 RMK AO2 SLP250 T01390033 10139 20078 56006

KGFL Airport Info (Airnav.com)

KGFL Flight Activity (Flightaware)

Listeners: 0 out of 2245 total

Albany Approach: 118.050
Albany Approach: 132.825
Glens Falls Unicom: 123.000
Unicom (Granville, Schroon Lake, Argyle, Heber Air: 122.900
Unicom (Saratoga Co., Rutland, Ticonderoga, Round : 122.800

KGIF ASOS
Winter Haven, Florida, United States

Feed Status: DOWN
Offline since: 2022-09-28 19:54:22 UTC

KGIF 021753Z AUTO 32009KT 10SM CLR 36/17 A2993 RMK AO2 SLPNO T03610172 10367 20211 58013 $

KGIF Airport Info (Airnav.com)

Winter Haven ASOS: 133.675

KGIF CTAF/GCO/Guard
Winter Haven, Florida, United States

Feed Status: DOWN
Offline since: 2022-09-28 19:54:22 UTC

KGIF 021753Z AUTO 32009KT 10SM CLR 36/17 A2993 RMK AO2 SLPNO T03610172 10367 20211 58013 $

KGIF Airport Info (Airnav.com)

Emergency/Guard: 121.500
Winter Haven CTAF: 123.050
Winter Haven GCO (Clearance Delivery): 121.725

KGIF GCO/Guard
Winter Haven, Florida, United States

Feed Status: DOWN
Offline since: 2022-09-28 19:53:39 UTC

KGIF 021753Z AUTO 32009KT 10SM CLR 36/17 A2993 RMK AO2 SLPNO T03610172 10367 20211 58013 $

KGIF Airport Info (Airnav.com)

Emergency/Guard: 121.500
Winter Haven GCO (Clearance Delivery): 121.725

KGIF/F57 CTAF
Winter Haven, Florida, United States

Feed Status: DOWN
Offline since: 2022-09-28 19:53:39 UTC

KGIF 021753Z AUTO 32009KT 10SM CLR 36/17 A2993 RMK AO2 SLPNO T03610172 10367 20211 58013 $

KGIF Airport Info (Airnav.com)

Winter Haven CTAF: 123.050

KGJT Gnd/Twr/App/ZDV (Archives)
Grand Junction, Colorado, United States

Feed Status: UP
Listen in your browser - HTML5 player(in browser, HTML5)
Click here to listen with your own player(launches your MP3 player)

KGJT 021753Z 14018G25KT 10SM OVC065 16/11 A3024 RMK AO2 SLP197 60000 T01610106 10167 20117 51009 $

KGJT Airport Info (Airnav.com)

KGJT Flight Activity (Flightaware)

Listeners: 2 out of 2245 total

Denver Approach: 119.700
Denver Center (Sector 11 Grand Junction Low): 134.500
Grand Junction Ground: 121.700
Grand Junction Tower: 118.100

KGKT CTAF (Archives)
Sevierville, Tennessee, United States

Feed Status: UP
Listen in your browser - HTML5 player(in browser, HTML5)
Click here to listen with your own player(launches your MP3 player)

KGKT 021815Z AUTO 19003KT 10SM BKN023 OVC029 16/11 A3011 RMK A01

KGKT Airport Info (Airnav.com)

KGKT Flight Activity (Flightaware)

Listeners: 0 out of 2245 total

Gatlinburg CTAF: 123.000

KGKY Ground/Tower (Archives)
Arlington, Texas, United States

Feed Status: UP
Listen in your browser - HTML5 player(in browser, HTML5)
Click here to listen with your own player(launches your MP3 player)

KGKY 021753Z 08007KT 10SM CLR 27/06 A3020 RMK AO2 SLP219 T02670056 10267 20083 58009

KGKY Airport Info (Airnav.com)

KGKY Flight Activity (Flightaware)

Listeners: 0 out of 2245 total

Arlington Ground: 121.875
Arlington Tower: 128.625

KGMU ATIS (Archives)
Greenville, South Carolina, United States

Feed Status: UP
Listen in your browser - HTML5 player(in browser, HTML5)
Click here to listen with your own player(launches your MP3 player)

KGMU 021753Z 35010G16KT 10SM BKN042 23/11 A2999 RMK AO2 SLP147 T02280111 10228 20139 50000

KGMU Airport Info (Airnav.com)

KGMU Flight Activity (Flightaware)

Listeners: 0 out of 2245 total

Greenville ATIS: 127.075

KGMU Ground (Archives)
Greenville, South Carolina, United States

Feed Status: UP
Listen in your browser - HTML5 player(in browser, HTML5)
Click here to listen with your own player(launches your MP3 player)

KGMU 021753Z 35010G16KT 10SM BKN042 23/11 A2999 RMK AO2 SLP147 T02280111 10228 20139 50000

KGMU Airport Info (Airnav.com)

KGMU Flight Activity (Flightaware)

Listeners: 0 out of 2245 total

Greenville Ground: 121.250

KGMU Ground/Tower (Archives)
Greenville, South Carolina, United States

Feed Status: UP
Listen in your browser - HTML5 player(in browser, HTML5)
Click here to listen with your own player(launches your MP3 player)

KGMU 021753Z 35010G16KT 10SM BKN042 23/11 A2999 RMK AO2 SLP147 T02280111 10228 20139 50000

KGMU Airport Info (Airnav.com)

KGMU Flight Activity (Flightaware)

Listeners: 3 out of 2245 total

Greenville Ground: 121.250
Greenville Tower: 119.900

KGMU Tower (Archives)
Greenville, South Carolina, United States

Feed Status: UP
Listen in your browser - HTML5 player(in browser, HTML5)
Click here to listen with your own player(launches your MP3 player)

KGMU 021753Z 35010G16KT 10SM BKN042 23/11 A2999 RMK AO2 SLP147 T02280111 10228 20139 50000

KGMU Airport Info (Airnav.com)

KGMU Flight Activity (Flightaware)

Listeners: 0 out of 2245 total

Greenville Tower: 119.900

KGNV Ground/Tower (Archives)
Gainesville, Florida, United States

Feed Status: UP
Listen in your browser - HTML5 player(in browser, HTML5)
Click here to listen with your own player(launches your MP3 player)

KGNV 021753Z 31009G17KT 10SM CLR 28/13 A2993 RMK AO2 SLP132 T02780133 10283 20161 58017

KGNV Airport Info (Airnav.com)

KGNV Flight Activity (Flightaware)

Listeners: 1 out of 2245 total

Gainesville Ground: 121.700
Gainesville Tower: 119.550

KGPM Tower (Archives)
Grand Prairie, Texas, United States

Feed Status: UP
Listen in your browser - HTML5 player(in browser, HTML5)
Click here to listen with your own player(launches your MP3 player)

KGPM 021750Z 00000KT 10SM SKC 26/05 A3021

KGPM Airport Info (Airnav.com)

KGPM Flight Activity (Flightaware)

Listeners: 0 out of 2245 total

Grand Prairie Tower: 128.550

KGQQ CTAF/Del/App (Archives)
Galion, Ohio, United States

Feed Status: UP
Listen in your browser - HTML5 player(in browser, HTML5)
Click here to listen with your own player(launches your MP3 player)

KGQQ Airport Info (Airnav.com)

KGQQ Flight Activity (Flightaware)

Listeners: 0 out of 2245 total

Galion Clearance Delivery: 126.800
Galion CTAF/UNICOM: 122.800
Mansfield Approach: 124.200

KGRK Twr/App
Fort Hood (Killeen), Texas, United States

Feed Status: DOWN
Offline since: 2019-11-24 15:09:39 UTC

KGRK 021755Z AUTO 05004KT 10SM CLR 26/05 A3015 RMK AO2 SLP202 T02630053 10265 20112 58008

KGRK Airport Info (Airnav.com)

Gray Tower: 120.750

KGTU Gnd/Twr (Archives)
Georgetown, Texas, United States

Feed Status: UP
Listen in your browser - HTML5 player(in browser, HTML5)
Click here to listen with your own player(launches your MP3 player)

KGTU 021756Z 04007KT 10SM CLR 28/07 A3019 RMK AO2 SLP218 T02830072 10283 20100 58013

KGTU Airport Info (Airnav.com)

KGTU Flight Activity (Flightaware)

Listeners: 1 out of 2245 total

Georgetown Ground: 119.125
Georgetown Tower: 120.225

KGVL AWOS (Archives)
Gainesville, Georgia, United States

Feed Status: UP
Listen in your browser - HTML5 player(in browser, HTML5)
Click here to listen with your own player(launches your MP3 player)

KGVL 021753Z AUTO 01010KT 10SM SCT044 23/11 A3000 RMK AO2 SLP148 T02330111 10239 20128 58004

KGVL Airport Info (Airnav.com)

KGVL Flight Activity (Flightaware)

Listeners: 0 out of 2245 total

Gainesville AWOS: 126.475

KGVL CTAF/Clearance (Archives)
Gainesville, Georgia, United States

Feed Status: UP
Listen in your browser - HTML5 player(in browser, HTML5)
Click here to listen with your own player(launches your MP3 player)

KGVL 021753Z AUTO 01010KT 10SM SCT044 23/11 A3000 RMK AO2 SLP148 T02330111 10239 20128 58004

KGVL Airport Info (Airnav.com)

KGVL Flight Activity (Flightaware)

Listeners: 3 out of 2245 total

Gainesville Clearance (Atlanta Center or TRACON): 134.800
Gainesville CTAF: 123.075

KGWB AWOS (Archives)
Auburn, Indiana, United States

Feed Status: UP
Listen in your browser - HTML5 player(in browser, HTML5)
Click here to listen with your own player(launches your MP3 player)

KGWB 021815Z AUTO 02010G14KT 10SM CLR 18/06 A3031 RMK AO2

KGWB Airport Info (Airnav.com)

KGWB Flight Activity (Flightaware)

Listeners: 0 out of 2245 total

De Kalb AWOS: 124.150

KGWB Clearance Delivery
Auburn, Indiana, United States

Feed Status: DOWN
Offline since: 2022-05-24 13:54:39 UTC

KGWB 021815Z AUTO 02010G14KT 10SM CLR 18/06 A3031 RMK AO2

KGWB Airport Info (Airnav.com)

De Kalb Clearance Delivery (Indy Approach): 126.600

KGWB CTAF (Archives)
Auburn, Indiana, United States

Feed Status: UP
Listen in your browser - HTML5 player(in browser, HTML5)
Click here to listen with your own player(launches your MP3 player)

KGWB 021815Z AUTO 02010G14KT 10SM CLR 18/06 A3031 RMK AO2

KGWB Airport Info (Airnav.com)

KGWB Flight Activity (Flightaware)

Listeners: 0 out of 2245 total

De Kalb CTAF: 123.000

KGWS CTAF/Guard
Glenwood Springs, Colorado, United States

Feed Status: DOWN
Offline since: 2022-09-13 16:54:22 UTC

KGWS Airport Info (Airnav.com)

Emergency/Guard: 121.500
Glenwood Springs CTAF: 123.000

KGYH Tower (Archives)
Greenville, South Carolina, United States

Feed Status: UP
Listen in your browser - HTML5 player(in browser, HTML5)
Click here to listen with your own player(launches your MP3 player)

KGMU 021753Z 35010G16KT 10SM BKN042 23/11 A2999 RMK AO2 SLP147 T02280111 10228 20139 50000

KGMU Airport Info (Airnav.com)

KGMU Flight Activity (Flightaware)

Listeners: 0 out of 2245 total

Donaldson Tower: 133.325

KGYI Ground/Tower (Archives)
Sherman/Denison, Texas, United States

Feed Status: UP
Listen in your browser - HTML5 player(in browser, HTML5)
Click here to listen with your own player(launches your MP3 player)

KGYI 021750Z 09003KT 10SM SKC 27/05 A3022

KGYI Airport Info (Airnav.com)

KGYI Flight Activity (Flightaware)

Listeners: 0 out of 2245 total

North Texas Ground: 124.125
North Texas Tower: 120.575

KGYI Tower (Archives)
Sherman/Denison, Texas, United States

Feed Status: UP
Listen in your browser - HTML5 player(in browser, HTML5)
Click here to listen with your own player(launches your MP3 player)

KGYI 021750Z 09003KT 10SM SKC 27/05 A3022

KGYI Airport Info (Airnav.com)

KGYI Flight Activity (Flightaware)

Listeners: 0 out of 2245 total

North Texas Tower: 120.575

KGYR Ground (Archives)
Goodyear, Arizona, United States

Feed Status: UP
Listen in your browser - HTML5 player(in browser, HTML5)
Click here to listen with your own player(launches your MP3 player)

KGYR 021747Z VRB04KT 10SM FEW070 31/18 A2994

KGYR Airport Info (Airnav.com)

KGYR Flight Activity (Flightaware)

Listeners: 0 out of 2245 total

Goodyear Ground: 121.700

KGYR Ground/Tower (Archives)
Goodyear, Arizona, United States

Feed Status: UP
Listen in your browser - HTML5 player(in browser, HTML5)
Click here to listen with your own player(launches your MP3 player)

KGYR 021747Z VRB04KT 10SM FEW070 31/18 A2994

KGYR Airport Info (Airnav.com)

KGYR Flight Activity (Flightaware)

Listeners: 0 out of 2245 total

Goodyear Ground: 121.700
Goodyear Tower: 120.100

KGYR Tower (Archives)
Goodyear, Arizona, United States

Feed Status: UP
Listen in your browser - HTML5 player(in browser, HTML5)
Click here to listen with your own player(launches your MP3 player)

KGYR 021747Z VRB04KT 10SM FEW070 31/18 A2994

KGYR Airport Info (Airnav.com)

KGYR Flight Activity (Flightaware)

Listeners: 0 out of 2245 total

Goodyear Tower: 120.100

KHAF CTAF (Archives)
Half Moon Bay, California, United States

Feed Status: UP
Listen in your browser - HTML5 player(in browser, HTML5)
Click here to listen with your own player(launches your MP3 player)

KHAF 021815Z AUTO 17009KT 9SM OVC030 19/13 A3002 RMK AO2

KHAF Airport Info (Airnav.com)

KHAF Flight Activity (Flightaware)

Listeners: 0 out of 2245 total

Half Moon Bay CTAF: 122.800

KHBG CTAF (Air Race Classic)
Hattiesburg, Mississippi, United States

Feed Status: DOWN
Offline since: 2019-07-19 17:38:22 UTC

Hattiesburg CTAF: 122.800

KHDC De/Gnd/Twr/App/ZHU (Archives)
Hammond, Louisiana, United States

Feed Status: UP
Listen in your browser - HTML5 player(in browser, HTML5)
Click here to listen with your own player(launches your MP3 player)



KHDC Airport Info (Airnav.com)

KHDC Flight Activity (Flightaware)

Listeners: 0 out of 2245 total

Hammond CTAF: 122.700
Hammond Ground: 119.850
Hammond Tower: 120.575
Houston Center (Low): 126.350
New Orleans Approach (West): 125.500
New Orleans Clearance/Approach: 119.300

KHEF Del/Gnd/Twr (Archives)
Manassas, Virginia, United States

Feed Status: UP
Listen in your browser - HTML5 player(in browser, HTML5)
Click here to listen with your own player(launches your MP3 player)

KHEF 021804Z 01010KT 2SM RA BR BKN007 OVC014 13/12 A3003 RMK AO2 SFC VIS 3 CIG 005V010 PNO $

KHEF Airport Info (Airnav.com)

KHEF Flight Activity (Flightaware)

Listeners: 1 out of 2245 total

Manassas Clearance Delivery (after Tower closes): 120.200
Manassas Ground: 121.800
Manassas Tower: 133.100

KHFD Ground/Tower (Archives)
Hartford, Connecticut, United States

Feed Status: UP
Listen in your browser - HTML5 player(in browser, HTML5)
Click here to listen with your own player(launches your MP3 player)

KHFD 021753Z 03013G23KT 10SM SCT100 14/03 A3018 RMK AO2 SLP220 60000 T01440028 10150 20133 51009 $

KHFD Airport Info (Airnav.com)

KHFD Flight Activity (Flightaware)

Listeners: 0 out of 2245 total

Brainard Ground: 121.600
Brainard Tower: 119.600

KHGR Ground/Tower (Archives)
Hagerstown, Maryland, United States

Feed Status: UP
Listen in your browser - HTML5 player(in browser, HTML5)
Click here to listen with your own player(launches your MP3 player)

KHGR 021753Z 02012KT 9SM -RA BKN019 OVC025 12/11 A3008 RMK AO2 SLP196 P0001 60018 T01220111 10133 20117 51011

KHGR Airport Info (Airnav.com)

KHGR Flight Activity (Flightaware)

Listeners: 1 out of 2245 total

Hagerstown Ground: 120.800
Hagerstown Tower: 120.300

KHGR Tower (Archives)
Hagerstown, Maryland, United States

Feed Status: UP
Listen in your browser - HTML5 player(in browser, HTML5)
Click here to listen with your own player(launches your MP3 player)

KMRB 021753Z 36011KT 10SM FEW014 OVC022 12/11 A3007 RMK AO2 RAE39 SLP183 P0001 60042 T01220111 10128 20117 51005

KMRB Airport Info (Airnav.com)

KMRB Flight Activity (Flightaware)

Listeners: 0 out of 2245 total

Hagerstown Tower: 120.300

KHIO Ground (Archives)
Portland, Oregon, United States

Feed Status: UP
Listen in your browser - HTML5 player(in browser, HTML5)
Click here to listen with your own player(launches your MP3 player)

KHIO 021753Z 00000KT 10SM CLR 23/12 A2994 RMK AO2 SLP137 T02330117 10233 20100 51007

KHIO Airport Info (Airnav.com)

KHIO Flight Activity (Flightaware)

Listeners: 0 out of 2245 total

Hillsboro Ground: 121.700

KHIO Tower (Both) (Archives)
Portland, Oregon, United States

Feed Status: UP
Listen in your browser - HTML5 player(in browser, HTML5)
Click here to listen with your own player(launches your MP3 player)

KHIO 021753Z 00000KT 10SM CLR 23/12 A2994 RMK AO2 SLP137 T02330117 10233 20100 51007

KHIO Airport Info (Airnav.com)

KHIO Flight Activity (Flightaware)

Listeners: 1 out of 2245 total

Hillsboro Tower: 119.300
Hillsboro Tower: 132.800

KHIO Tower (Primary) (Archives)
Portland, Oregon, United States

Feed Status: UP
Listen in your browser - HTML5 player(in browser, HTML5)
Click here to listen with your own player(launches your MP3 player)

KHIO 021753Z 00000KT 10SM CLR 23/12 A2994 RMK AO2 SLP137 T02330117 10233 20100 51007

KHIO Airport Info (Airnav.com)

KHIO Flight Activity (Flightaware)

Listeners: 0 out of 2245 total

Hillsboro Tower: 119.300

KHKY ASOS (Archives)
Hickory, North Carolina, United States

Feed Status: UP
Listen in your browser - HTML5 player(in browser, HTML5)
Click here to listen with your own player(launches your MP3 player)

KHKY 021753Z 02007KT 10SM BKN100 20/12 A2998 RMK AO2 SLP138 T02000122 10200 20111 58001

KHKY Airport Info (Airnav.com)

KHKY Flight Activity (Flightaware)

Listeners: 0 out of 2245 total

Hickory ASOS: 118.325

KHKY Clearance Delivery (ZTL) (Archives)
Hickory, North Carolina, United States

Feed Status: UP
Listen in your browser - HTML5 player(in browser, HTML5)
Click here to listen with your own player(launches your MP3 player)

KHKY 021753Z 02007KT 10SM BKN100 20/12 A2998 RMK AO2 SLP138 T02000122 10200 20111 58001

KHKY Airport Info (Airnav.com)

KHKY Flight Activity (Flightaware)

Listeners: 0 out of 2245 total

Hickory Clearance Delivery (Atlanta Center): 124.250

KHKY Emergency/Guard (Archives)
Hickory, North Carolina, United States

Feed Status: UP
Listen in your browser - HTML5 player(in browser, HTML5)
Click here to listen with your own player(launches your MP3 player)

KHKY 021753Z 02007KT 10SM BKN100 20/12 A2998 RMK AO2 SLP138 T02000122 10200 20111 58001

KHKY Airport Info (Airnav.com)

KHKY Flight Activity (Flightaware)

Listeners: 0 out of 2245 total

Emergency/Guard: 121.500

KHKY Ground (Archives)
Hickory, North Carolina, United States

Feed Status: UP
Listen in your browser - HTML5 player(in browser, HTML5)
Click here to listen with your own player(launches your MP3 player)

KHKY 021753Z 02007KT 10SM BKN100 20/12 A2998 RMK AO2 SLP138 T02000122 10200 20111 58001

KHKY Airport Info (Airnav.com)

KHKY Flight Activity (Flightaware)

Listeners: 0 out of 2245 total

Hickory Ground: 121.700

KHKY Tower (Archives)
Hickory, North Carolina, United States

Feed Status: UP
Listen in your browser - HTML5 player(in browser, HTML5)
Click here to listen with your own player(launches your MP3 player)

KHKY 021753Z 02007KT 10SM BKN100 20/12 A2998 RMK AO2 SLP138 T02000122 10200 20111 58001

KHKY Airport Info (Airnav.com)

KHKY Flight Activity (Flightaware)

Listeners: 1 out of 2245 total

Hickory Tower: 128.150

KHND ATIS (Archives)
Las Vegas, Nevada, United States

Feed Status: UP
Listen in your browser - HTML5 player(in browser, HTML5)
Click here to listen with your own player(launches your MP3 player)

KHND 021756Z 24011KT 10SM CLR 31/13 A2999 RMK AO2 SLP145 T03060128 10306 20222 50005

KHND Airport Info (Airnav.com)

KHND Flight Activity (Flightaware)

Listeners: 0 out of 2245 total

Henderson ATIS: 120.775

KHND Ground/Tower (Archives)
Las Vegas, Nevada, United States

Feed Status: UP
Listen in your browser - HTML5 player(in browser, HTML5)
Click here to listen with your own player(launches your MP3 player)

KHND 021756Z 24011KT 10SM CLR 31/13 A2999 RMK AO2 SLP145 T03060128 10306 20222 50005

KHND Airport Info (Airnav.com)

KHND Flight Activity (Flightaware)

Listeners: 2 out of 2245 total

Henderson Ground: 127.800
Henderson Tower: 125.100

KHPN ATIS (Archives)
White Plains, New York, United States

Feed Status: UP
Listen in your browser - HTML5 player(in browser, HTML5)
Click here to listen with your own player(launches your MP3 player)

KHPN 021756Z AUTO 04012G18KT 10SM FEW032 OVC060 14/07 A3012 RMK AO2 SLP197 T01390067 10150 20133 50012

KHPN Airport Info (Airnav.com)

KHPN Flight Activity (Flightaware)

Listeners: 0 out of 2245 total

Westchester County ATIS: 133.800

KHPN Del/Gnd/Tower #1 (Archives)
White Plains, New York, United States

Feed Status: UP
Listen in your browser - HTML5 player(in browser, HTML5)
Click here to listen with your own player(launches your MP3 player)

KHPN 021756Z AUTO 04012G18KT 10SM FEW032 OVC060 14/07 A3012 RMK AO2 SLP197 T01390067 10150 20133 50012

KHPN Airport Info (Airnav.com)

KHPN Flight Activity (Flightaware)

Listeners: 0 out of 2245 total

Westchester Clearance Delivery: 127.250
Westchester Ground: 121.825
Westchester Tower: 118.575

KHPN Delivery/Ground (Archives)
White Plains, New York, United States

Feed Status: UP
Listen in your browser - HTML5 player(in browser, HTML5)
Click here to listen with your own player(launches your MP3 player)

KHPN 021756Z AUTO 04012G18KT 10SM FEW032 OVC060 14/07 A3012 RMK AO2 SLP197 T01390067 10150 20133 50012

KHPN Airport Info (Airnav.com)

KHPN Flight Activity (Flightaware)

Listeners: 0 out of 2245 total

Westchester Clearance Delivery: 127.250
Westchester Ground: 121.825

KHPN Tower (Archives)
New York, New York, United States

Feed Status: UP
Listen in your browser - HTML5 player(in browser, HTML5)
Click here to listen with your own player(launches your MP3 player)

KHPN 021756Z AUTO 04012G18KT 10SM FEW032 OVC060 14/07 A3012 RMK AO2 SLP197 T01390067 10150 20133 50012

KHPN Airport Info (Airnav.com)

KHPN Flight Activity (Flightaware)

Listeners: 0 out of 2245 total

Westchester Tower: 118.575

KHPN Tower (Archives)
New York, New York, United States

Feed Status: UP
Listen in your browser - HTML5 player(in browser, HTML5)
Click here to listen with your own player(launches your MP3 player)

KHPN 021756Z AUTO 04012G18KT 10SM FEW032 OVC060 14/07 A3012 RMK AO2 SLP197 T01390067 10150 20133 50012

KHPN Airport Info (Airnav.com)

KHPN Flight Activity (Flightaware)

Listeners: 0 out of 2245 total

Westchester Tower: 118.575

NY Approach (NOBBI/NYACK/HAARP) (Archives)
New York, New York, United States

Feed Status: UP
Listen in your browser - HTML5 player(in browser, HTML5)
Click here to listen with your own player(launches your MP3 player)

KHPN 021756Z AUTO 04012G18KT 10SM FEW032 OVC060 14/07 A3012 RMK AO2 SLP197 T01390067 10150 20133 50012

KHPN Airport Info (Airnav.com)

KHPN Flight Activity (Flightaware)

Listeners: 1 out of 2245 total

New York Approach (HAARP Sector): 135.350
New York Approach (HAARP Sector): 120.800
New York Approach (NOBBI Sector): 126.400
New York Approach (NYACK Sector): 120.550

KHRL Gnd/Twr/App
Harlingen, Texas, United States

Feed Status: DOWN
Offline since: 2022-09-23 03:21:22 UTC

KHRL 021752Z VRB03KT 10SM SCT060 31/16 A3007 RMK AO2 SLP181 T03060156 10311 20178 58005

KHRL Airport Info (Airnav.com)

Harlingen Clearance/Ground: 121.700
Harlingen Tower: 119.300
Valley Approach: 120.700

KHRO CTAF/ZME/Misc (Archives)
Harrison, Arkansas, United States

Feed Status: UP
Listen in your browser - HTML5 player(in browser, HTML5)
Click here to listen with your own player(launches your MP3 player)

KHRO 021753Z AUTO VRB03KT 10SM CLR 24/05 A3027 RMK AO2 SLP243 T02390050 10239 20067 58007

KHRO Airport Info (Airnav.com)

KHRO Flight Activity (Flightaware)

Listeners: 1 out of 2245 total

Boone County CTAF: 123.000
Jonesboro FSS: 122.450
Jonesboro FSS: 255.400
KBBG Tower (aircraft only): 128.150
Memphis Center (Low): 126.850
Memphis Center (Low): 281.550
Memphis Center (Ultra-High): 133.025
Memphis Center (Ultra-High): 284.750
Springfield Approach (aircraft only): 126.350

KHSD CTAF (Archives)
Oklahoma City, Oklahoma, United States

Feed Status: UP
Listen in your browser - HTML5 player(in browser, HTML5)
Click here to listen with your own player(launches your MP3 player)

KHSD Airport Info (Airnav.com)

KHSD Flight Activity (Flightaware)

Listeners: 0 out of 2245 total

Sundance CTAF: 122.700

KHUF App/Dep (Archives)
Terre Haute, Indiana, United States

Feed Status: UP
Listen in your browser - HTML5 player(in browser, HTML5)
Click here to listen with your own player(launches your MP3 player)

KHUF 021753Z 03011KT 360V060 10SM CLR 22/11 A3026 RMK AO2 SLP246 T02220111 10222 20083 58004

KHUF Airport Info (Airnav.com)

KHUF Flight Activity (Flightaware)

Listeners: 0 out of 2245 total

Hulman Approach: 125.450

KHUF Emergency/Guard (Archives)
Terre Haute, Indiana, United States

Feed Status: UP
Listen in your browser - HTML5 player(in browser, HTML5)
Click here to listen with your own player(launches your MP3 player)

KHUF 021753Z 03011KT 360V060 10SM CLR 22/11 A3026 RMK AO2 SLP246 T02220111 10222 20083 58004

KHUF Airport Info (Airnav.com)

KHUF Flight Activity (Flightaware)

Listeners: 0 out of 2245 total

Emergency/Guard: 121.500

KHUF Gnd/Twr (Archives)
Terre Haute, Indiana, United States

Feed Status: UP
Listen in your browser - HTML5 player(in browser, HTML5)
Click here to listen with your own player(launches your MP3 player)

KHUF 021753Z 03011KT 360V060 10SM CLR 22/11 A3026 RMK AO2 SLP246 T02220111 10222 20083 58004

KHUF Airport Info (Airnav.com)

KHUF Flight Activity (Flightaware)

Listeners: 0 out of 2245 total

Hulman Ground/Clearance: 121.600
Hulman Tower: 134.725

KHUF Gnd/Twr/App (Archives)
Terre Haute, Indiana, United States

Feed Status: UP
Listen in your browser - HTML5 player(in browser, HTML5)
Click here to listen with your own player(launches your MP3 player)

KHUF 021753Z 03011KT 360V060 10SM CLR 22/11 A3026 RMK AO2 SLP246 T02220111 10222 20083 58004

KHUF Airport Info (Airnav.com)

KHUF Flight Activity (Flightaware)

Listeners: 0 out of 2245 total

Hulman Approach: 125.450
Hulman Ground/Clearance: 121.600
Hulman Tower: 134.725
Indianapolis Center (Sector 35 Terre Haute Low): 132.200
Indianapolis Center (Sector 80 King High): 134.175

KHUF Ground (Archives)
Terre Haute, Indiana, United States

Feed Status: UP
Listen in your browser - HTML5 player(in browser, HTML5)
Click here to listen with your own player(launches your MP3 player)

KHUF 021753Z 03011KT 360V060 10SM CLR 22/11 A3026 RMK AO2 SLP246 T02220111 10222 20083 58004

KHUF Airport Info (Airnav.com)

KHUF Flight Activity (Flightaware)

Listeners: 0 out of 2245 total

Hulman Ground/Clearance: 121.600

KHUF Tower (Archives)
Terre Haute, Indiana, United States

Feed Status: UP
Listen in your browser - HTML5 player(in browser, HTML5)
Click here to listen with your own player(launches your MP3 player)

KHUF 021753Z 03011KT 360V060 10SM CLR 22/11 A3026 RMK AO2 SLP246 T02220111 10222 20083 58004

KHUF Airport Info (Airnav.com)

KHUF Flight Activity (Flightaware)

Listeners: 1 out of 2245 total

Hulman Tower: 134.725

KHUL ASOS (Archives)
Houlton, Maine, United States

Feed Status: UP
Listen in your browser - HTML5 player(in browser, HTML5)
Click here to listen with your own player(launches your MP3 player)

KHUL 021753Z AUTO 01010G19KT 10SM CLR 12/M03 A3028 RMK AO2 SLP258 T01171028 10117 20017 58013

KHUL Airport Info (Airnav.com)

KHUL Flight Activity (Flightaware)

Listeners: 0 out of 2245 total

Houlton ASOS: 132.025

KHUL/KPQI/ZBW01/15 (Archives)
Houlton, Maine, United States

Feed Status: UP
Listen in your browser - HTML5 player(in browser, HTML5)
Click here to listen with your own player(launches your MP3 player)

KHUL 021753Z AUTO 01010G19KT 10SM CLR 12/M03 A3028 RMK AO2 SLP258 T01171028 10117 20017 58013

KHUL Airport Info (Airnav.com)

KHUL Flight Activity (Flightaware)

Listeners: 1 out of 2245 total

Boston Center (Sector 01 Millinocket High Sector): 128.050
Boston Center (Sector 01 Millinocket High Sector): 319.100
Boston Center (Surry 15 Low Sector): 120.250
Boston Center (Surry 15 Low Sector): 346.400
Boston Center (Surry 15 Low Sector): 124.750
Emergency/Guard: 121.500
Houlton CTAF/UNICOM: 122.800
Presque Isle CTAF/UNICOM: 122.800

KHUT Ground/Twr (Archives)
Hutchinson, Kansas, United States

Feed Status: UP
Listen in your browser - HTML5 player(in browser, HTML5)
Click here to listen with your own player(launches your MP3 player)

KHUT 021752Z 19008G15KT 10SM CLR 26/03 A3025 RMK AO2 SLP225 T02610033 10261 20106 58005 $

KHUT Airport Info (Airnav.com)

KHUT Flight Activity (Flightaware)

Listeners: 2 out of 2245 total

Emergency/Guard: 121.500
Hutchinson Ground: 121.900
Hutchinson Tower: 118.500

KHVN Ground/Tower (Archives)
New Haven, Connecticut, United States

Feed Status: UP
Listen in your browser - HTML5 player(in browser, HTML5)
Click here to listen with your own player(launches your MP3 player)

KHVN 021753Z 02016KT 10SM OVC070 15/07 A3013 RMK AO2 SLP204 T01500067 10167 20150 51013 $

KHVN Airport Info (Airnav.com)

KHVN Flight Activity (Flightaware)

Listeners: 0 out of 2245 total

New Haven Ground: 121.700
New Haven Tower: 124.800

KHWD Ground/Tower (Archives)
Hayward, California, United States

Feed Status: UP
Listen in your browser - HTML5 player(in browser, HTML5)
Click here to listen with your own player(launches your MP3 player)

KHWD 021821Z 24005KT 10SM SCT029 19/12 A3001 RMK AO2 T01940117

KHWD Airport Info (Airnav.com)

KHWD Flight Activity (Flightaware)

Listeners: 0 out of 2245 total

Hayward Ground: 121.400
Hayward Tower: 118.900
Hayward Tower: 120.200

KHWO ATIS (Archives)
Hollywood, Florida, United States

Feed Status: UP
Listen in your browser - HTML5 player(in browser, HTML5)
Click here to listen with your own player(launches your MP3 player)

KHWO 021753Z 33009KT 10SM BKN055 OVC070 29/17 A2992 RMK AO2 SLP130 T02890172 10289 20239 58010

KHWO Airport Info (Airnav.com)

KHWO Flight Activity (Flightaware)

Listeners: 0 out of 2245 total

North Perry ATIS: 135.475

KHWO Ground (Archives)
Hollywood, Florida, United States

Feed Status: UP
Listen in your browser - HTML5 player(in browser, HTML5)
Click here to listen with your own player(launches your MP3 player)

KHWO 021753Z 33009KT 10SM BKN055 OVC070 29/17 A2992 RMK AO2 SLP130 T02890172 10289 20239 58010

KHWO Airport Info (Airnav.com)

KHWO Flight Activity (Flightaware)

Listeners: 0 out of 2245 total

North Perry Ground: 120.450

KHWO Tower (Both) (Archives)
Hollywood, Florida, United States

Feed Status: UP
Listen in your browser - HTML5 player(in browser, HTML5)
Click here to listen with your own player(launches your MP3 player)

KHWO 021753Z 33009KT 10SM BKN055 OVC070 29/17 A2992 RMK AO2 SLP130 T02890172 10289 20239 58010

KHWO Airport Info (Airnav.com)

KHWO Flight Activity (Flightaware)

Listeners: 0 out of 2245 total

North Perry Tower (Primary): 132.100
North Perry Tower (Secondary): 134.300

KHWO Tower (Secondary) (Archives)
Hollywood, Florida, United States

Feed Status: UP
Listen in your browser - HTML5 player(in browser, HTML5)
Click here to listen with your own player(launches your MP3 player)

KHWO 021753Z 33009KT 10SM BKN055 OVC070 29/17 A2992 RMK AO2 SLP130 T02890172 10289 20239 58010

KHWO Airport Info (Airnav.com)

KHWO Flight Activity (Flightaware)

Listeners: 0 out of 2245 total

North Perry Tower (Secondary): 134.300

KHWV CTAF (Archives)
Shirley, New York, United States

Feed Status: UP
Listen in your browser - HTML5 player(in browser, HTML5)
Click here to listen with your own player(launches your MP3 player)

KHWV 021756Z AUTO 01009G23KT 330V030 10SM OVC055 14/07 A3009 RMK AO2 SLP190 T01440072 10172 20144 50007

KHWV Airport Info (Airnav.com)

KHWV Flight Activity (Flightaware)

Listeners: 0 out of 2245 total

Brookhaven CTAF: 122.800
Emergency/Guard: 121.500

KHXD Ground/Tower (Archives)
Hilton Head Island, South Carolina, United States

Feed Status: UP
Listen in your browser - HTML5 player(in browser, HTML5)
Click here to listen with your own player(launches your MP3 player)

KHXD 021750Z 02008KT 10SM SCT055 24/15 A2993

KHXD Airport Info (Airnav.com)

KHXD Flight Activity (Flightaware)

Listeners: 0 out of 2245 total

Hilton Head Ground: 121.100
Hilton Head Tower: 118.975

Boston Approach (Cape North)
Hyannis, Massachusetts, United States

Feed Status: DOWN
Offline since: 2022-10-01 02:30:06 UTC

KFMH 021755Z 04027G33KT 10SM OVC019 12/08 A3014

KFMH Airport Info (Airnav.com)

Boston Approach (Cape North Arrival): 118.200

KHYI Gnd/Twr/Misc (Archives)
Austin, Texas, United States

Feed Status: UP
Listen in your browser - HTML5 player(in browser, HTML5)
Click here to listen with your own player(launches your MP3 player)

KHYI 021756Z 03005KT 10SM CLR 28/11 A3019 RMK AO2 SLPNO T02800110 58003 $

KHYI Airport Info (Airnav.com)

KHYI Flight Activity (Flightaware)

Listeners: 0 out of 2245 total

Redbird FBO ASRI: 130.850
San Marcos Ground: 120.125
San Marcos Tower: 126.825

KHYS CTAF (Archives)
Hays, Kansas, United States

Feed Status: UP
Listen in your browser - HTML5 player(in browser, HTML5)
Click here to listen with your own player(launches your MP3 player)

KHYS 021756Z AUTO 18014KT 10SM CLR 26/04 A3023 RMK AO2 SLP227 6//// T02610044 10261 20067 58008 $

KHYS Airport Info (Airnav.com)

KHYS Flight Activity (Flightaware)

Listeners: 0 out of 2245 total

Hays CTAF: 122.800

KIAG Del/Gnd/Twr (Archives)
Niagara Falls, New York, United States

Feed Status: UP
Listen in your browser - HTML5 player(in browser, HTML5)
Click here to listen with your own player(launches your MP3 player)

KIAG 021753Z 04015G23KT 10SM CLR 14/05 A3031 RMK AO2 SLP267 T01390050 10144 20100 58001

KIAG Airport Info (Airnav.com)

KIAG Flight Activity (Flightaware)

Listeners: 0 out of 2245 total

Niagara Clearance Delivery: 119.250
Niagara Emergency/Guard: 121.500
Niagara Ground: 121.700
Niagara Tower: 118.500
Niagara UNICOM: 122.950

KIKV Del/CTAF (Archives)
Ankeny, Iowa, United States

Feed Status: UP
Listen in your browser - HTML5 player(in browser, HTML5)
Click here to listen with your own player(launches your MP3 player)

KIKV 021810Z AUTO 13007KT 10SM CLR 22/08 A3033 RMK AO2

KIKV Airport Info (Airnav.com)

KIKV Flight Activity (Flightaware)

Listeners: 0 out of 2245 total

Ankeny Clearance Delivery (Des Moines via RCO): 126.650
Ankeny CTAF: 122.900

KILM Gnd/Twr/App (Archives)
Wilmington, North Carolina, United States

Feed Status: UP
Listen in your browser - HTML5 player(in browser, HTML5)
Click here to listen with your own player(launches your MP3 player)

KILM 021753Z VRB06KT 10SM FEW043 23/12 A2988 RMK AO2 SLP118 T02330122 10244 20172 58010

KILM Airport Info (Airnav.com)

KILM Flight Activity (Flightaware)

Listeners: 0 out of 2245 total

Emergency/Guard: 121.500
Wilmington Approach: 118.250
Wilmington Approach: 135.750
Wilmington Approach: 317.425
Wilmington Approach: 284.650
Wilmington Ground: 121.900
Wilmington Ground: 348.600
Wilmington Tower: 119.900
Wilmington Tower: 239.300

KILM Gnd/Twr/App/ZDC (Archives)
Wilmington, North Carolina, United States

Feed Status: UP
Listen in your browser - HTML5 player(in browser, HTML5)
Click here to listen with your own player(launches your MP3 player)

KILM 021753Z VRB06KT 10SM FEW043 23/12 A2988 RMK AO2 SLP118 T02330122 10244 20172 58010

KILM Airport Info (Airnav.com)

KILM Flight Activity (Flightaware)

Listeners: 0 out of 2245 total

Emergency/Guard: 121.500
Washington Center (Sector 35 Wilmington High): 269.150
Washington Center (Sector 35 Wilmington High): 124.025
Wilmington Approach: 317.425
Wilmington Approach: 284.650
Wilmington Approach: 135.750
Wilmington Approach: 118.250
Wilmington Ground: 121.900
Wilmington Ground: 348.600
Wilmington Tower: 239.300
Wilmington Tower: 119.900

KIMS AWOS (Archives)
Madison, Indiana, United States

Feed Status: UP
Listen in your browser - HTML5 player(in browser, HTML5)
Click here to listen with your own player(launches your MP3 player)

KIMS 021815Z AUTO 02009KT 10SM SCT038 21/11 A3021 RMK AO2

KIMS Airport Info (Airnav.com)

KIMS Flight Activity (Flightaware)

Listeners: 0 out of 2245 total

Madison AWOS Weather: 119.175

KIMS CTAF (Archives)
Madison, Indiana, United States

Feed Status: UP
Listen in your browser - HTML5 player(in browser, HTML5)
Click here to listen with your own player(launches your MP3 player)

KIMS 021815Z AUTO 02009KT 10SM SCT038 21/11 A3021 RMK AO2

KIMS Airport Info (Airnav.com)

KIMS Flight Activity (Flightaware)

Listeners: 0 out of 2245 total

Madison CTAF: 123.000

KINF CTAF (Archives)
Inverness, Florida, United States

Feed Status: UP
Listen in your browser - HTML5 player(in browser, HTML5)
Click here to listen with your own player(launches your MP3 player)

KINF 021815Z AUTO 31004KT 10SM CLR 29/13 A2992 RMK AO2

KINF Airport Info (Airnav.com)

KINF Flight Activity (Flightaware)

Listeners: 0 out of 2245 total

Inverness CTAF: 122.725

KCID Gnd/Twr/App/KIOW (Archives)
Iowa City, Iowa, United States

Feed Status: UP
Listen in your browser - HTML5 player(in browser, HTML5)
Click here to listen with your own player(launches your MP3 player)

KCID 021752Z VRB03KT 10SM CLR 22/07 A3036 RMK AO2 SLP279 T02170067 10222 20083 58003

KCID Airport Info (Airnav.com)

KCID Flight Activity (Flightaware)

Listeners: 0 out of 2245 total

Cedar Rapids Approach (091-269): 119.700
Cedar Rapids Approach (270-090): 134.050
Cedar Rapids Clearance Delivery: 125.450
Cedar Rapids Ground (0500-2330): 121.600
Cedar Rapids Tower (0500-2330): 118.700
UNICOM C17 (Marion) and surrounding area: 122.700
UNICOM IA24 Green Castle: 122.900
UNICOM KIOW (Iowa City) and surrounding area: 122.800

KIPJ CTAF/Del (Archives)
Lincolnton, North Carolina, United States

Feed Status: UP
Listen in your browser - HTML5 player(in browser, HTML5)
Click here to listen with your own player(launches your MP3 player)



KIPJ Airport Info (Airnav.com)

KIPJ Flight Activity (Flightaware)

Listeners: 0 out of 2245 total

Lincolnton Clearance Delivery: 124.900
Lincolnton CTAF: 123.050

KIPT ASOS (Archives)
Williamsport, Pennsylvania, United States

Feed Status: UP
Listen in your browser - HTML5 player(in browser, HTML5)
Click here to listen with your own player(launches your MP3 player)

KIPT 021754Z 01005KT 10SM BKN035 15/08 A3014 RMK AO2 SLP207 60003 T01500083 10150 20111 51004 $

KIPT Airport Info (Airnav.com)

KIPT Flight Activity (Flightaware)

Listeners: 0 out of 2245 total

Williamsport ASOS: 125.225

KIPT Gnd/Twr/UNICOM (Archives)
Williamsport, Pennsylvania, United States

Feed Status: UP
Listen in your browser - HTML5 player(in browser, HTML5)
Click here to listen with your own player(launches your MP3 player)

KIPT 021754Z 01005KT 10SM BKN035 15/08 A3014 RMK AO2 SLP207 60003 T01500083 10150 20111 51004 $

KIPT Airport Info (Airnav.com)

KIPT Flight Activity (Flightaware)

Listeners: 0 out of 2245 total

Williamsport Ground: 121.900
Williamsport Tower: 119.100
Williamsport UNICOM: 122.950

KIPT Gnd/Twr/ZNY (Archives)
Williamsport, Pennsylvania, United States

Feed Status: UP
Listen in your browser - HTML5 player(in browser, HTML5)
Click here to listen with your own player(launches your MP3 player)

KIPT 021754Z 01005KT 10SM BKN035 15/08 A3014 RMK AO2 SLP207 60003 T01500083 10150 20111 51004 $

KIPT Airport Info (Airnav.com)

KIPT Flight Activity (Flightaware)

Listeners: 0 out of 2245 total

Emergency/Guard: 121.500
Flight Service: 122.200
Williamsport Ground: 121.900
Williamsport Tower: 119.100

KISM Ground
Orlando, Florida, United States

Feed Status: DOWN
Offline since: 2022-09-29 07:06:05 UTC

KJSM Airport Info (Airnav.com)

Kissimmee Ground/Clearance Delivery: 121.700

KISM Ground/Tower
Orlando, Florida, United States

Feed Status: DOWN
Offline since: 2022-09-29 07:06:40 UTC

KJSM Airport Info (Airnav.com)

Kissimmee Ground/Clearance Delivery: 121.700
Kissimmee Tower/CTAF: 124.450

KISM Tower
Orlando, Florida, United States

Feed Status: DOWN
Offline since: 2022-09-29 07:06:05 UTC

KJSM Airport Info (Airnav.com)

Kissimmee Tower/CTAF: 124.450

KIUA CTAF (Archives)
Canandaigua, New York, United States

Feed Status: UP
Listen in your browser - HTML5 player(in browser, HTML5)
Click here to listen with your own player(launches your MP3 player)

KIUA 021815Z AUTO 03011KT 10SM SCT025 14/08 A3028 RMK AO2 T01430080

KIUA Airport Info (Airnav.com)

KIUA Flight Activity (Flightaware)

Listeners: 0 out of 2245 total

Canandaigua CTAF: 122.800

KIWA ATIS (Archives)
Phoenix, Arizona, United States

Feed Status: UP
Listen in your browser - HTML5 player(in browser, HTML5)
Click here to listen with your own player(launches your MP3 player)

KIWA 021747Z VRB05KT 10SM CLR 31/15 A2996

KIWA Airport Info (Airnav.com)

KIWA Flight Activity (Flightaware)

Listeners: 0 out of 2245 total

Gateway ATIS: 133.500

KIWA Clearance Delivery (Archives)
Phoenix, Arizona, United States

Feed Status: UP
Listen in your browser - HTML5 player(in browser, HTML5)
Click here to listen with your own player(launches your MP3 player)

KIWA 021747Z VRB05KT 10SM CLR 31/15 A2996

KIWA Airport Info (Airnav.com)

KIWA Flight Activity (Flightaware)

Listeners: 0 out of 2245 total

Gateway Clearance Delivery: 135.050

KIWA Ground (Archives)
Phoenix, Arizona, United States

Feed Status: UP
Listen in your browser - HTML5 player(in browser, HTML5)
Click here to listen with your own player(launches your MP3 player)

KIWA 021747Z VRB05KT 10SM CLR 31/15 A2996

KIWA Airport Info (Airnav.com)

KIWA Flight Activity (Flightaware)

Listeners: 0 out of 2245 total

Gateway Ground: 128.250

KIWA Tower (Archives)
Phoenix, Arizona, United States

Feed Status: UP
Listen in your browser - HTML5 player(in browser, HTML5)
Click here to listen with your own player(launches your MP3 player)

KIWA 021747Z VRB05KT 10SM CLR 31/15 A2996

KIWA Airport Info (Airnav.com)

KIWA Flight Activity (Flightaware)

Listeners: 2 out of 2245 total

Gateway Tower (East): 124.750
Gateway Tower (West): 120.600

KIWS CTAF (Archives)
Houston, Texas, United States

Feed Status: UP
Listen in your browser - HTML5 player(in browser, HTML5)
Click here to listen with your own player(launches your MP3 player)



KIWS Airport Info (Airnav.com)

KIWS Flight Activity (Flightaware)

Listeners: 0 out of 2245 total

West Houston CTAF: 123.050

KIXD ASOS/ATIS (Archives)
Olathe, Kansas, United States

Feed Status: UP
Listen in your browser - HTML5 player(in browser, HTML5)
Click here to listen with your own player(launches your MP3 player)

KIXD 021753Z AUTO 13007KT 10SM CLR 24/06 A3030 RMK AO2 SLP255 T02390056 10239 20089 58003

KIXD Airport Info (Airnav.com)

KIXD Flight Activity (Flightaware)

Listeners: 0 out of 2245 total

New Century ATIS/ASOS: 135.325

KIXD Ground/Tower/K34 (Archives)
Olathe, Kansas, United States

Feed Status: UP
Listen in your browser - HTML5 player(in browser, HTML5)
Click here to listen with your own player(launches your MP3 player)

KIXD 021753Z AUTO 13007KT 10SM CLR 24/06 A3030 RMK AO2 SLP255 T02390056 10239 20089 58003

KIXD Airport Info (Airnav.com)

KIXD Flight Activity (Flightaware)

Listeners: 0 out of 2245 total

K34 CTAF: 122.800
New Century Ground: 124.300
New Century Tower: 133.000

KJFX CTAF (Archives)
Jasper, Alabama, United States

Feed Status: UP
Listen in your browser - HTML5 player(in browser, HTML5)
Click here to listen with your own player(launches your MP3 player)

KJFX 021815Z AUTO 36009KT 10SM CLR 25/10 A3007 RMK AO2

KJFX Airport Info (Airnav.com)

KJFX Flight Activity (Flightaware)

Listeners: 0 out of 2245 total

Walker County CTAF: 122.700

KJKA Twr/CTAF (Archives)
Gulf Shores, Alabama, United States

Feed Status: UP
Listen in your browser - HTML5 player(in browser, HTML5)
Click here to listen with your own player(launches your MP3 player)

KPNS 021753Z 32010G16KT 10SM CLR 29/11 A3001 RMK AO2 SLP164 T02940111 10294 20161 58013

KPNS Airport Info (Airnav.com)

KPNS Flight Activity (Flightaware)

Listeners: 1 out of 2245 total

Jack Edwards Tower/CTAF: 118.650

KJLN ATIS (Archives)
Joplin, Missouri, United States

Feed Status: UP
Listen in your browser - HTML5 player(in browser, HTML5)
Click here to listen with your own player(launches your MP3 player)

KJLN 021753Z 04005KT 10SM CLR 26/03 A3026 RMK AO2 SLP242 T02560033 10261 20078 58008 $

KJLN Airport Info (Airnav.com)

KJLN Flight Activity (Flightaware)

Listeners: 0 out of 2245 total

Joplin ATIS: 120.850

KJLN Ground (Archives)
Joplin, Missouri, United States

Feed Status: UP
Listen in your browser - HTML5 player(in browser, HTML5)
Click here to listen with your own player(launches your MP3 player)

KJLN 021753Z 04005KT 10SM CLR 26/03 A3026 RMK AO2 SLP242 T02560033 10261 20078 58008 $

KJLN Airport Info (Airnav.com)

KJLN Flight Activity (Flightaware)

Listeners: 0 out of 2245 total

Joplin Ground: 121.600

KJLN Ground/Tower (Archives)
Joplin, Missouri, United States

Feed Status: UP
Listen in your browser - HTML5 player(in browser, HTML5)
Click here to listen with your own player(launches your MP3 player)

KJLN 021753Z 04005KT 10SM CLR 26/03 A3026 RMK AO2 SLP242 T02560033 10261 20078 58008 $

KJLN Airport Info (Airnav.com)

KJLN Flight Activity (Flightaware)

Listeners: 0 out of 2245 total

Joplin Ground: 121.600
Joplin Tower: 119.800

KJLN Tower (Archives)
Joplin, Missouri, United States

Feed Status: UP
Listen in your browser - HTML5 player(in browser, HTML5)
Click here to listen with your own player(launches your MP3 player)

KJLN 021753Z 04005KT 10SM CLR 26/03 A3026 RMK AO2 SLP242 T02560033 10261 20078 58008 $

KJLN Airport Info (Airnav.com)

KJLN Flight Activity (Flightaware)

Listeners: 0 out of 2245 total

Joplin Tower: 119.800

KJNX AWOS
Smithfield, North Carolina, United States

Feed Status: DOWN
Offline since: 2022-09-29 12:45:22 UTC



KJNX Airport Info (Airnav.com)

Johnston AWOS: 120.225

KJNX CTAF
Smithfield, North Carolina, United States

Feed Status: DOWN
Offline since: 2022-09-29 12:45:22 UTC



KJNX Airport Info (Airnav.com)

Johnston CTAF: 122.725

KJQF Ground/Tower (Archives)
Concord, North Carolina, United States

Feed Status: UP
Listen in your browser - HTML5 player(in browser, HTML5)
Click here to listen with your own player(launches your MP3 player)

KJQF 021750Z 35010G22KT 10SM OVC034 18/11 A3000

KJQF Airport Info (Airnav.com)

KJQF Flight Activity (Flightaware)

Listeners: 0 out of 2245 total

Concord Ground: 121.850
Concord Tower: 134.650

KJRA/KJRB CTAF #3 (Archives)
New York, New York, United States

Feed Status: UP
Listen in your browser - HTML5 player(in browser, HTML5)
Click here to listen with your own player(launches your MP3 player)


Listeners: 0 out of 2245 total

Hudson River/New York Harbor/KJRA West 30th Street Heliport: 123.050

KJWY/2TS6 CTAF/Unicom (Archives)
Midlothian/Waxahachie, Texas, United States

Feed Status: UP
Listen in your browser - HTML5 player(in browser, HTML5)
Click here to listen with your own player(launches your MP3 player)

KJWY 021815Z AUTO 00000KT 10SM CLR 27/08 A3020 RMK AO2 T02660077

KJWY Airport Info (Airnav.com)

KJWY Flight Activity (Flightaware)

Listeners: 0 out of 2245 total

Mid-Way CTAF/UNICOM: 122.975

Regional Approach (South/RBD)
Midlothian/Waxahachie, Texas, United States

Feed Status: DOWN
Offline since: 2020-03-29 19:10:05 UTC

KRBD 021753Z 07005KT 10SM CLR 26/07 A3020 RMK AO2 SLP219 T02560072 10261 20106 58007

KRBD Airport Info (Airnav.com)

Regional Approach (South): 125.200

KJYO AWOS (Archives)
Leesburg, Virginia, United States

Feed Status: UP
Listen in your browser - HTML5 player(in browser, HTML5)
Click here to listen with your own player(launches your MP3 player)

KJYO 021815Z AUTO 02009KT 10SM OVC008 13/13 A3007 RMK AO2 P0001

KJYO Airport Info (Airnav.com)

KJYO Flight Activity (Flightaware)

Listeners: 0 out of 2245 total

Leesburg AWOS: 125.225

KJYO CTAF/Tower (Archives)
Leesburg, Virginia, United States

Feed Status: UP
Listen in your browser - HTML5 player(in browser, HTML5)
Click here to listen with your own player(launches your MP3 player)

KJYO 021815Z AUTO 02009KT 10SM OVC008 13/13 A3007 RMK AO2 P0001

KJYO Airport Info (Airnav.com)

KJYO Flight Activity (Flightaware)

Listeners: 0 out of 2245 total

Leesburg Tower/CTAF: 127.500

KJYO Del/Gnd (Archives)
Leesburg, Virginia, United States

Feed Status: UP
Listen in your browser - HTML5 player(in browser, HTML5)
Click here to listen with your own player(launches your MP3 player)

KJYO 021815Z AUTO 02009KT 10SM OVC008 13/13 A3007 RMK AO2 P0001

KJYO Airport Info (Airnav.com)

KJYO Flight Activity (Flightaware)

Listeners: 0 out of 2245 total

Leesburg Clearance Delivery (Potomac TRACON): 118.550
Leesburg Ground: 120.500

KJYO Del/Gnd/Twr/CTAF (Archives)
Leesburg, Virginia, United States

Feed Status: UP
Listen in your browser - HTML5 player(in browser, HTML5)
Click here to listen with your own player(launches your MP3 player)

KJYO 021815Z AUTO 02009KT 10SM OVC008 13/13 A3007 RMK AO2 P0001

KJYO Airport Info (Airnav.com)

KJYO Flight Activity (Flightaware)

Listeners: 0 out of 2245 total

Leesburg Clearance Delivery (Potomac TRACON): 118.550
Leesburg Ground: 120.500
Leesburg Tower/CTAF: 127.500

ZDC Sectors 12/04 (Archives)
Leesburg, Virginia, United States

Feed Status: UP
Listen in your browser - HTML5 player(in browser, HTML5)
Click here to listen with your own player(launches your MP3 player)

KIAD 021752Z 01008KT 2 1/2SM -RA BR BKN008 OVC021 13/12 A3004 RMK AO2 SLP170 P0005 60021 T01330117 10139 20128 51010

KIAD Airport Info (Airnav.com)

KIAD Flight Activity (Flightaware)

Listeners: 1 out of 2245 total

Washington Center (Sector 04 Pinion High): 133.975
Washington Center (Sector 12 Brooke High): 126.875
Washington Center (ZDC Guard Dog Low (Shared w/Potomac TRACON): 135.525

KLAF App/Dep (Archives)
Lafayette, Indiana, United States

Feed Status: UP
Listen in your browser - HTML5 player(in browser, HTML5)
Click here to listen with your own player(launches your MP3 player)

KLAF 021754Z 06012G17KT 10SM CLR 21/10 A3030 RMK AO2 SLP258 T02110100 10211 20100 50002

KLAF Airport Info (Airnav.com)

KLAF Flight Activity (Flightaware)

Listeners: 0 out of 2245 total

Grissom Approach: 123.850

KLAF ATIS (Archives)
Lafayette, Indiana, United States

Feed Status: UP
Listen in your browser - HTML5 player(in browser, HTML5)
Click here to listen with your own player(launches your MP3 player)

KLAF 021754Z 06012G17KT 10SM CLR 21/10 A3030 RMK AO2 SLP258 T02110100 10211 20100 50002

KLAF Airport Info (Airnav.com)

KLAF Flight Activity (Flightaware)

Listeners: 0 out of 2245 total

Lafayette ATIS: 127.750

KLAF Ground (Archives)
Lafayette, Indiana, United States

Feed Status: UP
Listen in your browser - HTML5 player(in browser, HTML5)
Click here to listen with your own player(launches your MP3 player)

KLAF 021754Z 06012G17KT 10SM CLR 21/10 A3030 RMK AO2 SLP258 T02110100 10211 20100 50002

KLAF Airport Info (Airnav.com)

KLAF Flight Activity (Flightaware)

Listeners: 0 out of 2245 total

Lafayette Ground: 121.900

KLAF Tower (Archives)
Lafayette, Indiana, United States

Feed Status: UP
Listen in your browser - HTML5 player(in browser, HTML5)
Click here to listen with your own player(launches your MP3 player)

KLAF 021754Z 06012G17KT 10SM CLR 21/10 A3030 RMK AO2 SLP258 T02110100 10211 20100 50002

KLAF Airport Info (Airnav.com)

KLAF Flight Activity (Flightaware)

Listeners: 1 out of 2245 total

Lafayette Tower: 119.600

KLAL Arrival ATIS (Archives)
Lakeland, Florida, United States

Feed Status: UP
Listen in your browser - HTML5 player(in browser, HTML5)
Click here to listen with your own player(launches your MP3 player)

KLAL 021815Z AUTO 32005KT 10SM CLR 29/16 A2992 RMK AO2 T02890159

KLAL Airport Info (Airnav.com)

KLAL Flight Activity (Flightaware)

Listeners: 0 out of 2245 total

Lakeland Arrival ATIS (Sun 'n Fun): 128.575

KLAL ATIS (Departure during Sun 'n Fun) (Archives)
Lakeland, Florida, United States

Feed Status: UP
Listen in your browser - HTML5 player(in browser, HTML5)
Click here to listen with your own player(launches your MP3 player)

KLAL 021815Z AUTO 32005KT 10SM CLR 29/16 A2992 RMK AO2 T02890159

KLAL Airport Info (Airnav.com)

KLAL Flight Activity (Flightaware)

Listeners: 1 out of 2245 total

Lakeland ATIS: 118.025

KLAL Departure Mon (Rwy 10L/28R) (Archives)
Lakeland, Florida, United States

Feed Status: UP
Listen in your browser - HTML5 player(in browser, HTML5)
Click here to listen with your own player(launches your MP3 player)

KLAL 021815Z AUTO 32005KT 10SM CLR 29/16 A2992 RMK AO2 T02890159

KLAL Airport Info (Airnav.com)

KLAL Flight Activity (Flightaware)

Listeners: 0 out of 2245 total

Lakeland Departure Monitor (Rwy 10L/28R): 133.125

KLAL Departure Mon (Rwy 10R/28L) (Archives)
Lakeland, Florida, United States

Feed Status: UP
Listen in your browser - HTML5 player(in browser, HTML5)
Click here to listen with your own player(launches your MP3 player)

KLAL 021815Z AUTO 32005KT 10SM CLR 29/16 A2992 RMK AO2 T02890159

KLAL Airport Info (Airnav.com)

KLAL Flight Activity (Flightaware)

Listeners: 0 out of 2245 total

Lakeland Departure Monitor (Rwy 10R/28L): 127.850

KLAL Ground/Advisory (Archives)
Lakeland, Florida, United States

Feed Status: UP
Listen in your browser - HTML5 player(in browser, HTML5)
Click here to listen with your own player(launches your MP3 player)

KLAL 021815Z AUTO 32005KT 10SM CLR 29/16 A2992 RMK AO2 T02890159

KLAL Airport Info (Airnav.com)

KLAL Flight Activity (Flightaware)

Listeners: 1 out of 2245 total

Lakeland Ground: 121.400
Lakeland Helicopter: 123.025
Lakeland IFR Ground Control: 127.100
Paradise City Advisory: 123.625
Sun 'n Fun Ground Advisory: 126.075
Warbird Parking Advisory: 125.025

KLAL Lake Parker VFR Arrival
Lakeland, Florida, United States

Feed Status: DOWN
Offline since: 2022-04-12 21:46:05 UTC

KLAL 021815Z AUTO 32005KT 10SM CLR 29/16 A2992 RMK AO2 T02890159

KLAL Airport Info (Airnav.com)

Lake Parker Arrival (Sun 'n Fun): 124.500

KLAL Tower (Archives)
Lakeland, Florida, United States

Feed Status: UP
Listen in your browser - HTML5 player(in browser, HTML5)
Click here to listen with your own player(launches your MP3 player)

KLAL 021815Z AUTO 32005KT 10SM CLR 29/16 A2992 RMK AO2 T02890159

KLAL Airport Info (Airnav.com)

KLAL Flight Activity (Flightaware)

Listeners: 3 out of 2245 total

Lakeland Tower: 124.500

KLAL Tower (North) (Archives)
Lakeland, Florida, United States

Feed Status: UP
Listen in your browser - HTML5 player(in browser, HTML5)
Click here to listen with your own player(launches your MP3 player)

KLAL 021815Z AUTO 32005KT 10SM CLR 29/16 A2992 RMK AO2 T02890159

KLAL Airport Info (Airnav.com)

KLAL Flight Activity (Flightaware)

Listeners: 0 out of 2245 total

Lakeland Tower (North): 135.225

KLAL Tower (South) (Archives)
Lakeland, Florida, United States

Feed Status: UP
Listen in your browser - HTML5 player(in browser, HTML5)
Click here to listen with your own player(launches your MP3 player)

KLAL 021815Z AUTO 32005KT 10SM CLR 29/16 A2992 RMK AO2 T02890159

KLAL Airport Info (Airnav.com)

KLAL Flight Activity (Flightaware)

Listeners: 0 out of 2245 total

Lakeland Tower (South): 120.350

Sun 'n Fun Air Show/Dep/Misc (Archives)
Lakeland, Florida, United States

Feed Status: UP
Listen in your browser - HTML5 player(in browser, HTML5)
Click here to listen with your own player(launches your MP3 player)

KLAL 021815Z AUTO 32005KT 10SM CLR 29/16 A2992 RMK AO2 T02890159

KLAL Airport Info (Airnav.com)

KLAL Flight Activity (Flightaware)

Listeners: 1 out of 2245 total

Air Boss: Priv

Tampa App/Dep (LAL Area) (Archives)
Lakeland, Florida, United States

Feed Status: UP
Listen in your browser - HTML5 player(in browser, HTML5)
Click here to listen with your own player(launches your MP3 player)

KLAL 021815Z AUTO 32005KT 10SM CLR 29/16 A2992 RMK AO2 T02890159

KLAL Airport Info (Airnav.com)

KLAL Flight Activity (Flightaware)

Listeners: 0 out of 2245 total

Tampa Approach (Lakeland Area): 120.650

KLBE Ground/Tower (Archives)
Latrobe, Pennsylvania, United States

Feed Status: UP
Listen in your browser - HTML5 player(in browser, HTML5)
Click here to listen with your own player(launches your MP3 player)

KLBE 021747Z 02010KT 1SM -RA SCT009 OVC015 12/12 A3015

KLBE Airport Info (Airnav.com)

KLBE Flight Activity (Flightaware)

Listeners: 1 out of 2245 total

Latrobe Ground: 121.800
Latrobe Tower: 125.000

KLBX CTAF (Archives)
Angleton/Lake Jackson, Texas, United States

Feed Status: UP
Listen in your browser - HTML5 player(in browser, HTML5)
Click here to listen with your own player(launches your MP3 player)

KLBX 021753Z AUTO 05007KT 10SM CLR 28/08 A3012 RMK AO2 SLP200 T02780078 10283 20106 58007

KLBX Airport Info (Airnav.com)

KLBX Flight Activity (Flightaware)

Listeners: 0 out of 2245 total

KLBX CTAF: 123.000

KLCI AWOS (Archives)
Laconia, New Hampshire, United States

Feed Status: UP
Listen in your browser - HTML5 player(in browser, HTML5)
Click here to listen with your own player(launches your MP3 player)

KLCI 021756Z AUTO 06012KT 10SM CLR 13/00 A3027 RMK AO2 SLP253 T01280000 10128 20083 58006

KLCI Airport Info (Airnav.com)

KLCI Flight Activity (Flightaware)

Listeners: 0 out of 2245 total

Laconia AWOS: 133.525

KLCI Clearance Delivery (Archives)
Laconia, New Hampshire, United States

Feed Status: UP
Listen in your browser - HTML5 player(in browser, HTML5)
Click here to listen with your own player(launches your MP3 player)

KLCI 021756Z AUTO 06012KT 10SM CLR 13/00 A3027 RMK AO2 SLP253 T01280000 10128 20083 58006

KLCI Airport Info (Airnav.com)

KLCI Flight Activity (Flightaware)

Listeners: 0 out of 2245 total

Laconia Clearance Delivery (Boston Approach): 119.850

KLCI Del/CTAF (Archives)
Laconia, New Hampshire, United States

Feed Status: UP
Listen in your browser - HTML5 player(in browser, HTML5)
Click here to listen with your own player(launches your MP3 player)

KLCI 021756Z AUTO 06012KT 10SM CLR 13/00 A3027 RMK AO2 SLP253 T01280000 10128 20083 58006

KLCI Airport Info (Airnav.com)

KLCI Flight Activity (Flightaware)

Listeners: 1 out of 2245 total

Laconia CTAF: 123.000

KLCK ATIS/AWOS (Archives)
Columbus, Ohio, United States

Feed Status: UP
Listen in your browser - HTML5 player(in browser, HTML5)
Click here to listen with your own player(launches your MP3 player)

KLCK 021755Z AUTO 35015G21KT 10SM SCT041 21/10 A3016 RMK AO2 T02070097 10207 20119

KLCK Airport Info (Airnav.com)

KLCK Flight Activity (Flightaware)

Listeners: 0 out of 2245 total

Rick ATIS/AWOS: 132.750

KLCK Del/Gnd (Archives)
Columbus, Ohio, United States

Feed Status: UP
Listen in your browser - HTML5 player(in browser, HTML5)
Click here to listen with your own player(launches your MP3 player)

KLCK 021755Z AUTO 35015G21KT 10SM SCT041 21/10 A3016 RMK AO2 T02070097 10207 20119

KLCK Airport Info (Airnav.com)

KLCK Flight Activity (Flightaware)

Listeners: 0 out of 2245 total

Rick Clearance Delivery/Ground: 125.275

KLCK Del/Gnd (UHF)
Columbus, Ohio, United States

Feed Status: DOWN
Offline since: 2022-09-02 08:35:05 UTC

KLCK 021755Z AUTO 35015G21KT 10SM SCT041 21/10 A3016 RMK AO2 T02070097 10207 20119

KLCK Airport Info (Airnav.com)

Rick Clearance Delivery/Ground (UHF/Military): 275.800

KLCK Emergency/Guard (Archives)
Columbus, Ohio, United States

Feed Status: UP
Listen in your browser - HTML5 player(in browser, HTML5)
Click here to listen with your own player(launches your MP3 player)

KLCK 021755Z AUTO 35015G21KT 10SM SCT041 21/10 A3016 RMK AO2 T02070097 10207 20119

KLCK Airport Info (Airnav.com)

KLCK Flight Activity (Flightaware)

Listeners: 0 out of 2245 total

Emergency/Guard: 121.500

KLCK Tower (Archives)
Columbus, Ohio, United States

Feed Status: UP
Listen in your browser - HTML5 player(in browser, HTML5)
Click here to listen with your own player(launches your MP3 player)

KLCK 021755Z AUTO 35015G21KT 10SM SCT041 21/10 A3016 RMK AO2 T02070097 10207 20119

KLCK Airport Info (Airnav.com)

KLCK Flight Activity (Flightaware)

Listeners: 0 out of 2245 total

Rick Tower: 120.050

KLCK Tower (UHF) (Archives)
Columbus, Ohio, United States

Feed Status: UP
Listen in your browser - HTML5 player(in browser, HTML5)
Click here to listen with your own player(launches your MP3 player)

KLCK 021755Z AUTO 35015G21KT 10SM SCT041 21/10 A3016 RMK AO2 T02070097 10207 20119

KLCK Airport Info (Airnav.com)

KLCK Flight Activity (Flightaware)

Listeners: 0 out of 2245 total

Rick Tower (UHF/Military): 348.400

KLCK UNICOM (Archives)
Columbus, Ohio, United States

Feed Status: UP
Listen in your browser - HTML5 player(in browser, HTML5)
Click here to listen with your own player(launches your MP3 player)

KLCK 021755Z AUTO 35015G21KT 10SM SCT041 21/10 A3016 RMK AO2 T02070097 10207 20119

KLCK Airport Info (Airnav.com)

KLCK Flight Activity (Flightaware)

Listeners: 0 out of 2245 total

Rick UNICOM: 122.950

KLEE App/Dep (Archives)
Leesburg, Florida, United States

Feed Status: UP
Listen in your browser - HTML5 player(in browser, HTML5)
Click here to listen with your own player(launches your MP3 player)

KLEE 021753Z 28006KT 10SM CLR 29/15 A2992 RMK AO2 SLP131 T02890150 10294 20189 58015

KLEE Airport Info (Airnav.com)

KLEE Flight Activity (Flightaware)

Listeners: 0 out of 2245 total

Orlando Approach: 135.300
Orlando Approach: 120.225

KLEE ASOS (Archives)
Leesburg, Florida, United States

Feed Status: UP
Listen in your browser - HTML5 player(in browser, HTML5)
Click here to listen with your own player(launches your MP3 player)

KLEE 021753Z 28006KT 10SM CLR 29/15 A2992 RMK AO2 SLP131 T02890150 10294 20189 58015

KLEE Airport Info (Airnav.com)

KLEE Flight Activity (Flightaware)

Listeners: 0 out of 2245 total

Leesburg ASOS: 134.325

KLEE Ground (Archives)
Leesburg, Florida, United States

Feed Status: UP
Listen in your browser - HTML5 player(in browser, HTML5)
Click here to listen with your own player(launches your MP3 player)

KLEE 021753Z 28006KT 10SM CLR 29/15 A2992 RMK AO2 SLP131 T02890150 10294 20189 58015

KLEE Airport Info (Airnav.com)

KLEE Flight Activity (Flightaware)

Listeners: 0 out of 2245 total

Leesburg Ground: 121.725

KLEE Tower (Archives)
Leesburg, Florida, United States

Feed Status: UP
Listen in your browser - HTML5 player(in browser, HTML5)
Click here to listen with your own player(launches your MP3 player)

KLEE 021753Z 28006KT 10SM CLR 29/15 A2992 RMK AO2 SLP131 T02890150 10294 20189 58015

KLEE Airport Info (Airnav.com)

KLEE Flight Activity (Flightaware)

Listeners: 2 out of 2245 total

Leesburg Tower: 119.350

KLFI Del/Gnd/Twr (Archives)
Hampton, Virginia, United States

Feed Status: UP
Listen in your browser - HTML5 player(in browser, HTML5)
Click here to listen with your own player(launches your MP3 player)

KLFI 021825Z 00000KT 10SM BKN030 OVC055 21/17 A2986 RMK AO2A SLP118 $

KLFI Airport Info (Airnav.com)

KLFI Flight Activity (Flightaware)

Listeners: 1 out of 2245 total

Langley Clearance Delivery: 257.625
Langley Ground: 275.800
Langley Tower: 253.500
Langley Tower: 236.600

KLFK Emergency/Guard (Archives)
Lufkin, Texas, United States

Feed Status: UP
Listen in your browser - HTML5 player(in browser, HTML5)
Click here to listen with your own player(launches your MP3 player)

KLFK 021753Z AUTO VRB04KT 10SM CLR 28/08 A3015 RMK AO2 SLP208 T02780078 10283 20089 58009

KLFK Airport Info (Airnav.com)

KLFK Flight Activity (Flightaware)

Listeners: 0 out of 2245 total

Emergency/Guard: 121.500

KLFK/KOCH CTAF (Archives)
Lufkin, Texas, United States

Feed Status: UP
Listen in your browser - HTML5 player(in browser, HTML5)
Click here to listen with your own player(launches your MP3 player)

KLFK 021753Z AUTO VRB04KT 10SM CLR 28/08 A3015 RMK AO2 SLP208 T02780078 10283 20089 58009

KLFK Airport Info (Airnav.com)

KLFK Flight Activity (Flightaware)

Listeners: 0 out of 2245 total

Lufkin CTAF: 123.000

KLGB Clearance Delivery (Archives)
Long Beach, California, United States

Feed Status: UP
Listen in your browser - HTML5 player(in browser, HTML5)
Click here to listen with your own player(launches your MP3 player)

KLGB 021808Z 00000KT 6SM HZ FEW027 23/14 A2997 RMK AO2 T02330144

KLGB Airport Info (Airnav.com)

KLGB Flight Activity (Flightaware)

Listeners: 0 out of 2245 total

Long Beach Clearance Delivery: 118.150

KLGB Ground (Archives)
Long Beach, California, United States

Feed Status: UP
Listen in your browser - HTML5 player(in browser, HTML5)
Click here to listen with your own player(launches your MP3 player)

KLGB 021808Z 00000KT 6SM HZ FEW027 23/14 A2997 RMK AO2 T02330144

KLGB Airport Info (Airnav.com)

KLGB Flight Activity (Flightaware)

Listeners: 0 out of 2245 total

Long Beach Ground: 133.000

KLGB Tower (Archives)
Long Beach, California, United States

Feed Status: UP
Listen in your browser - HTML5 player(in browser, HTML5)
Click here to listen with your own player(launches your MP3 player)

KLGB 021808Z 00000KT 6SM HZ FEW027 23/14 A2997 RMK AO2 T02330144

KLGB Airport Info (Airnav.com)

KLGB Flight Activity (Flightaware)

Listeners: 1 out of 2245 total

Long Beach Tower: 119.400

KCTJ/KLGC CTAF (Archives)
LaGrange, Georgia, United States

Feed Status: UP
Listen in your browser - HTML5 player(in browser, HTML5)
Click here to listen with your own player(launches your MP3 player)

KCCO 021815Z AUTO 34009G16KT 10SM CLR 23/11 A2999 RMK AO2 T02260111

KCCO Airport Info (Airnav.com)

KCCO Flight Activity (Flightaware)

Listeners: 0 out of 2245 total

KCTJ/KLGC CTAF: 122.975

KLGC CTAF (Air Race Classic)
LaGrange, Georgia, United States

Feed Status: DOWN
Offline since: 2020-04-29 17:54:05 UTC

LaGrange CTAF: 122.975

KLGD CTAF (Archives)
La Grande, Oregon, United States

Feed Status: UP
Listen in your browser - HTML5 player(in browser, HTML5)
Click here to listen with your own player(launches your MP3 player)

KLGD 021756Z AUTO 00000KT 10SM CLR 16/09 A3011 RMK AO2 SLP189 T01560094 10156 20056 50005

KLGD Airport Info (Airnav.com)

KLGD Flight Activity (Flightaware)

Listeners: 1 out of 2245 total

La Grande CTAF: 122.800

KLGD Emergency/Guard (Archives)
La Grande, Oregon, United States

Feed Status: UP
Listen in your browser - HTML5 player(in browser, HTML5)
Click here to listen with your own player(launches your MP3 player)

KLGD 021756Z AUTO 00000KT 10SM CLR 16/09 A3011 RMK AO2 SLP189 T01560094 10156 20056 50005

KLGD Airport Info (Airnav.com)

KLGD Flight Activity (Flightaware)

Listeners: 0 out of 2245 total

Emergency/Guard: 121.500

KLHZ CTAF (Archives)
Louisburg, North Carolina, United States

Feed Status: UP
Listen in your browser - HTML5 player(in browser, HTML5)
Click here to listen with your own player(launches your MP3 player)

KLHZ 021815Z AUTO 33003KT 7SM -RA BKN017 OVC023 16/13 A2993 RMK AO2

KLHZ Airport Info (Airnav.com)

KLHZ Flight Activity (Flightaware)

Listeners: 0 out of 2245 total

Louisburg CTAF/UNICOM: 123.000
Louisburg GCO: 135.075
Raleigh Approach (East): 125.300

KFTG/KEIK/KBDU/KLMO/Misc (Archives)
Longmont, Colorado, United States

Feed Status: UP
Listen in your browser - HTML5 player(in browser, HTML5)
Click here to listen with your own player(launches your MP3 player)

KDEN 021753Z 17008KT 10SM FEW070 SCT110 BKN130 BKN200 18/09 A3020 RMK AO2 SLP172 VIRGA 60000 T01780089 10189 20089 58000

KDEN Airport Info (Airnav.com)

KDEN Flight Activity (Flightaware)

Listeners: 1 out of 2245 total

Air-to-Air Fixed Wing: 122.750
Air-to-Air Informal: 123.450
Boulder CTAF: 122.725
Erie CTAF: 123.000
Front Range Tower: 120.200
KBKF Tower: 121.000
Longmont CTAF: 122.975
MULTICOM: 122.900
UNICOM: 122.950

KLMO CTAF (Archives)
Longmont, Colorado, United States

Feed Status: UP
Listen in your browser - HTML5 player(in browser, HTML5)
Click here to listen with your own player(launches your MP3 player)

KLMO 021815Z AUTO 00000KT 7SM CLR 17/10 A3020 RMK AO2 T01720102

KLMO Airport Info (Airnav.com)

KLMO Flight Activity (Flightaware)

Listeners: 0 out of 2245 total

Fort Collins CTAF: 122.700
Longmont CTAF: 122.975

KLNA CTAF (Archives)
West Palm Beach, Florida, United States

Feed Status: UP
Listen in your browser - HTML5 player(in browser, HTML5)
Click here to listen with your own player(launches your MP3 player)

KPBI 021753Z 01009KT 10SM FEW030 SCT055 BKN070 29/19 A2991 RMK AO2 SLP128 T02890189 10289 20239 58010

KPBI Airport Info (Airnav.com)

KPBI Flight Activity (Flightaware)

Listeners: 0 out of 2245 total

Lantana CTAF: 122.700

KLNS Ground/Tower (Archives)
Lancaster, Pennsylvania, United States

Feed Status: UP
Listen in your browser - HTML5 player(in browser, HTML5)
Click here to listen with your own player(launches your MP3 player)

KLNS 021817Z 05014G18KT 7SM -RA BKN018 BKN034 OVC055 14/11 A3008 RMK AO2 RAB1759 P0001 T01390111 $

KLNS Airport Info (Airnav.com)

KLNS Flight Activity (Flightaware)

Listeners: 0 out of 2245 total

Lancaster Ground: 121.800
Lancaster Tower: 120.900

KLNS Tower (Archives)
Lancaster, Pennsylvania, United States

Feed Status: UP
Listen in your browser - HTML5 player(in browser, HTML5)
Click here to listen with your own player(launches your MP3 player)

KLNS 021817Z 05014G18KT 7SM -RA BKN018 BKN034 OVC055 14/11 A3008 RMK AO2 RAB1759 P0001 T01390111 $

KLNS Airport Info (Airnav.com)

KLNS Flight Activity (Flightaware)

Listeners: 0 out of 2245 total

Lancaster Tower: 120.900

KLOU ATIS (Archives)
Louisville, Kentucky, United States

Feed Status: UP
Listen in your browser - HTML5 player(in browser, HTML5)
Click here to listen with your own player(launches your MP3 player)

KLOU 021753Z 34009KT 10SM CLR 23/10 A3017 RMK AO2 SLP212 T02280100 10228 20111 58005 $

KLOU Airport Info (Airnav.com)

KLOU Flight Activity (Flightaware)

Listeners: 0 out of 2245 total

Bowman ATIS: 124.150

KLOU Del/Gnd (Archives)
Louisville, Kentucky, United States

Feed Status: UP
Listen in your browser - HTML5 player(in browser, HTML5)
Click here to listen with your own player(launches your MP3 player)

KLOU 021753Z 34009KT 10SM CLR 23/10 A3017 RMK AO2 SLP212 T02280100 10228 20111 58005 $

KLOU Airport Info (Airnav.com)

KLOU Flight Activity (Flightaware)

Listeners: 0 out of 2245 total

Bowman Clearance Delivery: 118.900
Bowman Ground: 121.800

KLOU Del/Gnd/Twr (Archives)
Louisville, Kentucky, United States

Feed Status: UP
Listen in your browser - HTML5 player(in browser, HTML5)
Click here to listen with your own player(launches your MP3 player)

KLOU 021753Z 34009KT 10SM CLR 23/10 A3017 RMK AO2 SLP212 T02280100 10228 20111 58005 $

KLOU Airport Info (Airnav.com)

KLOU Flight Activity (Flightaware)

Listeners: 1 out of 2245 total

Bowman Clearance Delivery: 118.900
Bowman Ground: 121.800
Bowman Tower: 119.500

KLOU Tower (Archives)
Louisville, Kentucky, United States

Feed Status: UP
Listen in your browser - HTML5 player(in browser, HTML5)
Click here to listen with your own player(launches your MP3 player)

KLOU 021753Z 34009KT 10SM CLR 23/10 A3017 RMK AO2 SLP212 T02280100 10228 20111 58005 $

KLOU Airport Info (Airnav.com)

KLOU Flight Activity (Flightaware)

Listeners: 0 out of 2245 total

Bowman Tower: 119.500

KLRD Ground/Tower (Archives)
Laredo, Texas, United States

Feed Status: UP
Listen in your browser - HTML5 player(in browser, HTML5)
Click here to listen with your own player(launches your MP3 player)

KLRD 021756Z 04008KT 10SM FEW045 27/17 A3012 RMK AO2 SLP195 T02720167 10272 20194 58007

KLRD Airport Info (Airnav.com)

KLRD Flight Activity (Flightaware)

Listeners: 0 out of 2245 total

Laredo Ground: 121.800
Laredo Tower: 120.100
Laredo UNICOM: 122.950

KLUF App/Dep (Archives)
Glendale, Arizona, United States

Feed Status: UP
Listen in your browser - HTML5 player(in browser, HTML5)
Click here to listen with your own player(launches your MP3 player)

KPHX 021751Z 13005KT 10SM FEW100 FEW200 32/14 A2991 RMK AO2 SLP109 T03220144 10322 20256 50003 $

KPHX Airport Info (Airnav.com)

KPHX Flight Activity (Flightaware)

Listeners: 0 out of 2245 total

Luke Approach/Departure: 118.150
Luke Approach/Departure: 125.450
Luke Approach/Departure: 263.125
Luke Approach/Departure: 363.125
Luke Arrival: 120.500

KLUF Del/Gnd/Twr/Misc (Archives)
Glendale, Arizona, United States

Feed Status: UP
Listen in your browser - HTML5 player(in browser, HTML5)
Click here to listen with your own player(launches your MP3 player)

KPHX 021751Z 13005KT 10SM FEW100 FEW200 32/14 A2991 RMK AO2 SLP109 T03220144 10322 20256 50003 $

KPHX Airport Info (Airnav.com)

KPHX Flight Activity (Flightaware)

Listeners: 0 out of 2245 total

Command Post (Raymond-18) : 349.400
Emergency/Guard: 243.000
In-Flight Emergencies: 291.100
Luke Clearance Delivery: 126.250
Luke Clearance Delivery: 273.475
Luke Ground: 335.800
Luke Ground: 133.175
Luke Tower: 119.100
Luke Tower: 379.900
PMSV - Metro/Weather: 267.400
PTD: 372.200
SOF: 369.000
SOF: 149.400

KLUK Twr/App/Dep
Cincinnati, Ohio, United States

Feed Status: DOWN
Offline since: 2022-10-02 03:11:39 UTC

KLUK 021753Z 02016G22KT 10SM FEW041 21/10 A3019 RMK AO2 SLP220 T02110100 10211 20117 58003

KLUK Airport Info (Airnav.com)

Cincinnati Approach: 121.000
Cincinnati Departure: 128.700
Lunken Tower: 118.700

KLVJ CTAF (Archives)
Houston, Texas, United States

Feed Status: UP
Listen in your browser - HTML5 player(in browser, HTML5)
Click here to listen with your own player(launches your MP3 player)

KLVJ 021753Z AUTO 02006KT 10SM CLR 27/07 A3013 RMK AO2 SLP203 T02720067 10283 20150 58009

KLVJ Airport Info (Airnav.com)

KLVJ Flight Activity (Flightaware)

Listeners: 0 out of 2245 total

Pearland CTAF: 122.725

KLWM Ground/Tower (Archives)
Lawrence, Massachusetts, United States

Feed Status: UP
Listen in your browser - HTML5 player(in browser, HTML5)
Click here to listen with your own player(launches your MP3 player)

KLWM 021754Z 05011G22KT 10SM CLR 12/00 A3027 RMK AO2 PK WND 04026/1743 SLP250 T01220000 10122 20106 50001

KLWM Airport Info (Airnav.com)

KLWM Flight Activity (Flightaware)

Listeners: 0 out of 2245 total

Eagle East Jet Service: 122.850
Emergency/Guard: 121.500
Four Star Aviation Jet Center: 123.300
Lawrence Clearance (after hours, Boston Approach): 126.150
Lawrence Ground: 124.300
Lawrence Tower: 119.250
Northeast Executive Jet: 130.600

KLWS Ground/Tower (Archives)
Lewiston, Idaho, United States

Feed Status: UP
Listen in your browser - HTML5 player(in browser, HTML5)
Click here to listen with your own player(launches your MP3 player)

KLWS 021756Z 00000KT 10SM CLR 20/12 A3005 RMK AO2 SLP171 T02000117 10200 20139 50006

KLWS Airport Info (Airnav.com)

KLWS Flight Activity (Flightaware)

Listeners: 0 out of 2245 total

Lewiston Ground: 121.900
Lewiston Tower: 119.400

KLXT CTAF (Air Race Classic)
Lee's Summit, Missouri, United States

Feed Status: DOWN
Offline since: 2019-06-27 20:24:02 UTC

Lee's Summit CTAF: 122.800

KLYH Ground (Archives)
Lynchburg, Virginia, United States

Feed Status: UP
Listen in your browser - HTML5 player(in browser, HTML5)
Click here to listen with your own player(launches your MP3 player)

KLYH 021754Z 36009KT 4SM -RA BR BKN009 BKN021 OVC026 14/13 A2998 RMK AO2 RAB02 SLP150 P0000 60001 T01440128 10156 20139 51009 $

KLYH Airport Info (Airnav.com)

KLYH Flight Activity (Flightaware)

Listeners: 2 out of 2245 total

Lynchburg Ground: 121.900

KLYH Roanoke Approach (Archives)
Lynchburg, Virginia, United States

Feed Status: UP
Listen in your browser - HTML5 player(in browser, HTML5)
Click here to listen with your own player(launches your MP3 player)

KLYH 021754Z 36009KT 4SM -RA BR BKN009 BKN021 OVC026 14/13 A2998 RMK AO2 RAB02 SLP150 P0000 60001 T01440128 10156 20139 51009 $

KLYH Airport Info (Airnav.com)

KLYH Flight Activity (Flightaware)

Listeners: 0 out of 2245 total

Roanoke Approach: 135.000

KLYH Tower (Archives)
Lynchburg, Virginia, United States

Feed Status: UP
Listen in your browser - HTML5 player(in browser, HTML5)
Click here to listen with your own player(launches your MP3 player)

KLYH 021754Z 36009KT 4SM -RA BR BKN009 BKN021 OVC026 14/13 A2998 RMK AO2 RAB02 SLP150 P0000 60001 T01440128 10156 20139 51009 $

KLYH Airport Info (Airnav.com)

KLYH Flight Activity (Flightaware)

Listeners: 2 out of 2245 total

Lynchburg Tower: 127.650

Atlanta App/Dep (SAT-P) (Archives)
Lawrenceville, Georgia, United States

Feed Status: UP
Listen in your browser - HTML5 player(in browser, HTML5)
Click here to listen with your own player(launches your MP3 player)

KLZU 021756Z VRB05KT 10SM SCT080 23/11 A2998 RMK AO2 SLP157 T02330111 10233 20117 58003

KLZU Airport Info (Airnav.com)

KLZU Flight Activity (Flightaware)

Listeners: 0 out of 2245 total

Atlanta Approach/Departure (SAT-P): 126.975

KLZU Tower (Archives)
Lawrenceville, Georgia, United States

Feed Status: UP
Listen in your browser - HTML5 player(in browser, HTML5)
Click here to listen with your own player(launches your MP3 player)

KLZU 021756Z VRB05KT 10SM SCT080 23/11 A2998 RMK AO2 SLP157 T02330111 10233 20117 58003

KLZU Airport Info (Airnav.com)

KLZU Flight Activity (Flightaware)

Listeners: 1 out of 2245 total

Gwinnett Tower: 124.100

KMAN/KEUL CTAF
Nampa, Idaho, United States

Feed Status: DOWN
Offline since: 2022-04-28 00:26:04 UTC

KMAN 021815Z AUTO 13006G11KT 8SM 21/05 A3009 RMK A01

KMAN Airport Info (Airnav.com)

Nampa/Caldwell CTAF/UNICOM: 122.700

KMCC CTAF/Del/Gnd/Twr (Archives)
Sacramento, California, United States

Feed Status: UP
Listen in your browser - HTML5 player(in browser, HTML5)
Click here to listen with your own player(launches your MP3 player)

KMCC 021815Z AUTO 20005KT 10SM 20/12 A2998 RMK AO2

KMCC Airport Info (Airnav.com)

KMCC Flight Activity (Flightaware)

Listeners: 0 out of 2245 total

McClellan Clearance Delivery: 119.825
McClellan CTAF: 122.975
McClellan Ground (temp): 118.650
McClellan Tower (temp): 135.900

KMCO App/Dep (North Satellite) (Archives)
Orlando, Florida, United States

Feed Status: UP
Listen in your browser - HTML5 player(in browser, HTML5)
Click here to listen with your own player(launches your MP3 player)

KORL 021753Z 31006KT 10SM CLR 29/16 A2991 RMK AO2 SLP130 T02940156 10294 20200 58014

KORL Airport Info (Airnav.com)

KORL Flight Activity (Flightaware)

Listeners: 0 out of 2245 total

Orlando Approach (North Satellite): 135.300

KMDD ASOS
Midland, Texas, United States

Feed Status: DOWN
Offline since: 2022-06-10 20:58:05 UTC

KMAF 021753Z 9SM CLR 26/10 A3020 RMK AO2 SLP183 T02610100 10261 20161 58007 $

KMAF Airport Info (Airnav.com)

Midland Airpark ASOS: 118.125

KMDD Clearance Delivery
Midland, Texas, United States

Feed Status: DOWN
Offline since: 2022-06-10 20:58:05 UTC

KMAF 021753Z 9SM CLR 26/10 A3020 RMK AO2 SLP183 T02610100 10261 20161 58007 $

KMAF Airport Info (Airnav.com)

Midland Airpark Clearance Delivery: 121.800

KMDD CTAF
Midland, Texas, United States

Feed Status: DOWN
Offline since: 2022-06-10 20:58:05 UTC

KMAF 021753Z 9SM CLR 26/10 A3020 RMK AO2 SLP183 T02610100 10261 20161 58007 $

KMAF Airport Info (Airnav.com)

Midland Airpark CTAF: 122.700

KMDH Ground/Tower (Archives)
Carbondale/Murphysboro, Illinois, United States

Feed Status: UP
Listen in your browser - HTML5 player(in browser, HTML5)
Click here to listen with your own player(launches your MP3 player)

KMDH 021752Z 03008G15KT 10SM CLR 24/07 A3024 RMK AO2 SLP239 T02390072 10239 20056 58006

KMDH Airport Info (Airnav.com)

KMDH Flight Activity (Flightaware)

Listeners: 0 out of 2245 total

Carbondale Ground: 121.800
Carbondale Tower: 126.250
Carbondale Tower: 125.350

KMDQ CTAF
Huntsville, Alabama, United States

Feed Status: DOWN
Offline since: 2022-01-19 20:04:22 UTC

Huntsville Executive CTAF: 123.000

KMDT App/Dep (East)
Harrisburg, Pennsylvania, United States

Feed Status: DOWN
Offline since: 2022-10-01 10:27:22 UTC

KMDT 021816Z 35004KT 10SM -RA OVC030 13/11 A3009 RMK AO2 P0000 T01330111 $

KMDT Airport Info (Airnav.com)

Harrisburg App/Dep (East): 126.450

KMDT App/Dep (East/West)
Harrisburg, Pennsylvania, United States

Feed Status: DOWN
Offline since: 2022-10-01 10:27:22 UTC

KMDT 021816Z 35004KT 10SM -RA OVC030 13/11 A3009 RMK AO2 P0000 T01330111 $

KMDT Airport Info (Airnav.com)

Harrisburg App/Dep (East): 126.450
Harrisburg App/Dep (North): 118.250
Harrisburg App/Dep (West): 124.100

KMDT App/Dep (North)
Harrisburg, Pennsylvania, United States

Feed Status: DOWN
Offline since: 2022-10-01 10:27:22 UTC

KMDT 021816Z 35004KT 10SM -RA OVC030 13/11 A3009 RMK AO2 P0000 T01330111 $

KMDT Airport Info (Airnav.com)

Harrisburg App/Dep (North): 118.250

KMDT App/Dep (West)
Harrisburg, Pennsylvania, United States

Feed Status: DOWN
Offline since: 2022-10-01 10:27:22 UTC

KMDT 021816Z 35004KT 10SM -RA OVC030 13/11 A3009 RMK AO2 P0000 T01330111 $

KMDT Airport Info (Airnav.com)

Harrisburg App/Dep (West): 124.100

KMDT ATIS
Harrisburg, Pennsylvania, United States

Feed Status: DOWN
Offline since: 2022-10-01 10:27:22 UTC

KMDT 021816Z 35004KT 10SM -RA OVC030 13/11 A3009 RMK AO2 P0000 T01330111 $

KMDT Airport Info (Airnav.com)

Harrisburg ATIS: 118.800

KMDT Emergency/Ground
Harrisburg, Pennsylvania, United States

Feed Status: DOWN
Offline since: 2022-10-01 10:27:22 UTC

KMDT 021816Z 35004KT 10SM -RA OVC030 13/11 A3009 RMK AO2 P0000 T01330111 $

KMDT Airport Info (Airnav.com)

Emergency/Guard: 121.500

KMDT Ground
Harrisburg, Pennsylvania, United States

Feed Status: DOWN
Offline since: 2022-10-01 10:27:22 UTC

KMDT 021816Z 35004KT 10SM -RA OVC030 13/11 A3009 RMK AO2 P0000 T01330111 $

KMDT Airport Info (Airnav.com)

Harrisburg Ground: 121.700

KMDT Tower
Harrisburg, Pennsylvania, United States

Feed Status: DOWN
Offline since: 2022-10-01 10:27:22 UTC

KMDT 021816Z 35004KT 10SM -RA OVC030 13/11 A3009 RMK AO2 P0000 T01330111 $

KMDT Airport Info (Airnav.com)

Harrisburg Tower: 124.800

KMEV CTAF/Unicom (Archives)
Minden, Nevada, United States

Feed Status: UP
Listen in your browser - HTML5 player(in browser, HTML5)
Click here to listen with your own player(launches your MP3 player)

KMEV 021815Z AUTO 00000KT 10SM CLR 19/01 A3012 RMK AO2

KMEV Airport Info (Airnav.com)

KMEV Flight Activity (Flightaware)

Listeners: 1 out of 2245 total

Minden CTAF/UNICOM: 123.050

KMFD ATIS (Archives)
Mansfield, Ohio, United States

Feed Status: UP
Listen in your browser - HTML5 player(in browser, HTML5)
Click here to listen with your own player(launches your MP3 player)

KMFD 021752Z 01015G24KT 10SM OVC017 13/09 A3024 RMK AO2 SLP240 T01330089 10144 20122 51008 $

KMFD Airport Info (Airnav.com)

KMFD Flight Activity (Flightaware)

Listeners: 0 out of 2245 total

Mansfield ATIS: 125.300

KMFE App/Dep
Mc Allen, Texas, United States

Feed Status: DOWN
Offline since: 2022-09-16 21:27:23 UTC

KMFE 021753Z 00000KT 10SM OVC055 28/16 A3009 RMK AO2 SLP187 T02830161 10300 20172 58006

KMFE Airport Info (Airnav.com)

Valley Approach: 121.000
Valley Departure: 120.700

KMFE Gnd/Twr
Mc Allen, Texas, United States

Feed Status: DOWN
Offline since: 2022-09-16 21:27:23 UTC

KMFE 021753Z 00000KT 10SM OVC055 28/16 A3009 RMK AO2 SLP187 T02830161 10300 20172 58006

KMFE Airport Info (Airnav.com)

Mc Allen Ground: 121.800
Mc Allen Tower: 118.500
San Angelo Radio: 122.200

KMFR App/Dep (Archives)
Medford, Oregon, United States

Feed Status: UP
Listen in your browser - HTML5 player(in browser, HTML5)
Click here to listen with your own player(launches your MP3 player)

KMFR 021753Z 33003KT 10SM CLR 20/06 A2997 RMK AO2 SLP142 T02000061 10200 20094 50005

KMFR Airport Info (Airnav.com)

KMFR Flight Activity (Flightaware)

Listeners: 0 out of 2245 total

Cascade Approach/Departure: 124.300

KMFR Emergency/Guard (Archives)
Medford, Oregon, United States

Feed Status: UP
Listen in your browser - HTML5 player(in browser, HTML5)
Click here to listen with your own player(launches your MP3 player)

KMFR 021753Z 33003KT 10SM CLR 20/06 A2997 RMK AO2 SLP142 T02000061 10200 20094 50005

KMFR Airport Info (Airnav.com)

KMFR Flight Activity (Flightaware)

Listeners: 0 out of 2245 total

Emergency/Guard: 121.500

KMFR Ground (Archives)
Medford, Oregon, United States

Feed Status: UP
Listen in your browser - HTML5 player(in browser, HTML5)
Click here to listen with your own player(launches your MP3 player)

KMFR 021753Z 33003KT 10SM CLR 20/06 A2997 RMK AO2 SLP142 T02000061 10200 20094 50005

KMFR Airport Info (Airnav.com)

KMFR Flight Activity (Flightaware)

Listeners: 0 out of 2245 total

Medford Ground: 121.800

KMFR Ground/Tower (Archives)
Medford, Oregon, United States

Feed Status: UP
Listen in your browser - HTML5 player(in browser, HTML5)
Click here to listen with your own player(launches your MP3 player)

KMFR 021753Z 33003KT 10SM CLR 20/06 A2997 RMK AO2 SLP142 T02000061 10200 20094 50005

KMFR Airport Info (Airnav.com)

KMFR Flight Activity (Flightaware)

Listeners: 1 out of 2245 total

Medford Ground: 121.800
Medford Tower: 119.400

Atlanta Approach (N. Sat) (Archives)
Marietta, Georgia, United States

Feed Status: UP
Listen in your browser - HTML5 player(in browser, HTML5)
Click here to listen with your own player(launches your MP3 player)

KRYY 021750Z VRB06G15KT 10SM CLR 22/12 A3001 RMK AO2 SLP156 T02170117 10217 20117 58004 $

KRYY Airport Info (Airnav.com)

KRYY Flight Activity (Flightaware)

Listeners: 1 out of 2245 total

Atlanta Approach (North Satellite): 121.000

KMGE Ground (Archives)
Marietta, Georgia, United States

Feed Status: UP
Listen in your browser - HTML5 player(in browser, HTML5)
Click here to listen with your own player(launches your MP3 player)

KRYY 021750Z VRB06G15KT 10SM CLR 22/12 A3001 RMK AO2 SLP156 T02170117 10217 20117 58004 $

KRYY Airport Info (Airnav.com)

KRYY Flight Activity (Flightaware)

Listeners: 0 out of 2245 total

Dobbins Ground: 125.300

KMGE Tower (Archives)
Marietta, Georgia, United States

Feed Status: UP
Listen in your browser - HTML5 player(in browser, HTML5)
Click here to listen with your own player(launches your MP3 player)

KRYY 021750Z VRB06G15KT 10SM CLR 22/12 A3001 RMK AO2 SLP156 T02170117 10217 20117 58004 $

KRYY Airport Info (Airnav.com)

KRYY Flight Activity (Flightaware)

Listeners: 0 out of 2245 total

Dobbins Tower: 120.750

KMGW ASOS (Archives)
Morgantown, West Virginia, United States

Feed Status: UP
Listen in your browser - HTML5 player(in browser, HTML5)
Click here to listen with your own player(launches your MP3 player)

KMGW 021822Z AUTO 01007KT 3SM BR BKN009 OVC013 12/11 A3014 RMK AO2 CIG 006V011 T01220106

KMGW Airport Info (Airnav.com)

KMGW Flight Activity (Flightaware)

Listeners: 0 out of 2245 total

Morgantown ASOS Weather: 120.675

KMGW Ground (Archives)
Morgantown, West Virginia, United States

Feed Status: UP
Listen in your browser - HTML5 player(in browser, HTML5)
Click here to listen with your own player(launches your MP3 player)

KMGW 021822Z AUTO 01007KT 3SM BR BKN009 OVC013 12/11 A3014 RMK AO2 CIG 006V011 T01220106

KMGW Airport Info (Airnav.com)

KMGW Flight Activity (Flightaware)

Listeners: 0 out of 2245 total

Morgantown Ground: 121.700

KMGW Tower (Archives)
Morgantown, West Virginia, United States

Feed Status: UP
Listen in your browser - HTML5 player(in browser, HTML5)
Click here to listen with your own player(launches your MP3 player)

KMGW 021822Z AUTO 01007KT 3SM BR BKN009 OVC013 12/11 A3014 RMK AO2 CIG 006V011 T01220106

KMGW Airport Info (Airnav.com)

KMGW Flight Activity (Flightaware)

Listeners: 0 out of 2245 total

Morgantown Tower: 125.100

KMGY Air to Air (Archives)
Dayton, Ohio, United States

Feed Status: UP
Listen in your browser - HTML5 player(in browser, HTML5)
Click here to listen with your own player(launches your MP3 player)

KMGY 021753Z AUTO 36017G23KT 10SM BKN033 19/10 A3020 RMK AO2 SLP225 T01890100 10194 20117 50002

KMGY Airport Info (Airnav.com)

KMGY Flight Activity (Flightaware)

Listeners: 0 out of 2245 total

Air to Air: 123.450

KMGY App/Dep (Archives)
Dayton, Ohio, United States

Feed Status: UP
Listen in your browser - HTML5 player(in browser, HTML5)
Click here to listen with your own player(launches your MP3 player)

KMGY 021753Z AUTO 36017G23KT 10SM BKN033 19/10 A3020 RMK AO2 SLP225 T01890100 10194 20117 50002

KMGY Airport Info (Airnav.com)

KMGY Flight Activity (Flightaware)

Listeners: 0 out of 2245 total

Dayton Approach/Departure: 118.850

KMGY AWOS (Archives)
Dayton, Ohio, United States

Feed Status: UP
Listen in your browser - HTML5 player(in browser, HTML5)
Click here to listen with your own player(launches your MP3 player)

KMGY 021753Z AUTO 36017G23KT 10SM BKN033 19/10 A3020 RMK AO2 SLP225 T01890100 10194 20117 50002

KMGY Airport Info (Airnav.com)

KMGY Flight Activity (Flightaware)

Listeners: 0 out of 2245 total

Dayton-Wright Brothers AWOS: 118.375

KMGY Clearance Delivery (Archives)
Dayton, Ohio, United States

Feed Status: UP
Listen in your browser - HTML5 player(in browser, HTML5)
Click here to listen with your own player(launches your MP3 player)

KMGY 021753Z AUTO 36017G23KT 10SM BKN033 19/10 A3020 RMK AO2 SLP225 T01890100 10194 20117 50002

KMGY Airport Info (Airnav.com)

KMGY Flight Activity (Flightaware)

Listeners: 0 out of 2245 total

Dayton Clearance Delivery (KMGY): 119.400

KMGY CTAF (Archives)
Dayton, Ohio, United States

Feed Status: UP
Listen in your browser - HTML5 player(in browser, HTML5)
Click here to listen with your own player(launches your MP3 player)

KMGY 021753Z AUTO 36017G23KT 10SM BKN033 19/10 A3020 RMK AO2 SLP225 T01890100 10194 20117 50002

KMGY Airport Info (Airnav.com)

KMGY Flight Activity (Flightaware)

Listeners: 0 out of 2245 total

Dayton-Wright Brothers CTAF: 122.800

KMGY Emergency/Guard (Archives)
Dayton, Ohio, United States

Feed Status: UP
Listen in your browser - HTML5 player(in browser, HTML5)
Click here to listen with your own player(launches your MP3 player)

KMGY 021753Z AUTO 36017G23KT 10SM BKN033 19/10 A3020 RMK AO2 SLP225 T01890100 10194 20117 50002

KMGY Airport Info (Airnav.com)

KMGY Flight Activity (Flightaware)

Listeners: 0 out of 2245 total

Emergency/Guard: 121.500

KMHR Ground/Tower (Archives)
Sacramento, California, United States

Feed Status: UP
Listen in your browser - HTML5 player(in browser, HTML5)
Click here to listen with your own player(launches your MP3 player)

KMHR 021815Z AUTO VRB05KT 10SM CLR 21/12 A2997 RMK A01

KMHR Airport Info (Airnav.com)

KMHR Flight Activity (Flightaware)

Listeners: 5 out of 2245 total

Mather Ground: 121.850
Mather Tower: 120.650

NORCAL App (EXPO/127.4) (Archives)
Sacramento, California, United States

Feed Status: UP
Listen in your browser - HTML5 player(in browser, HTML5)
Click here to listen with your own player(launches your MP3 player)

KMHR 021815Z AUTO VRB05KT 10SM CLR 21/12 A2997 RMK A01

KMHR Airport Info (Airnav.com)

KMHR Flight Activity (Flightaware)

Listeners: 1 out of 2245 total

NORCAL Approach (EXPO Sector): 127.400

KMHV App/Dep (133.65) (Archives)
Mojave, California, United States

Feed Status: UP
Listen in your browser - HTML5 player(in browser, HTML5)
Click here to listen with your own player(launches your MP3 player)

KMHV 021820Z AUTO 00000KT 10SM CLR 26/04 A3001 RMK A01

KMHV Airport Info (Airnav.com)

KMHV Flight Activity (Flightaware)

Listeners: 0 out of 2245 total

Joshua Approach/Departure (MHV/VHF): 133.650

KMHV App/Dep (All) (Archives)
Mojave, California, United States

Feed Status: UP
Listen in your browser - HTML5 player(in browser, HTML5)
Click here to listen with your own player(launches your MP3 player)

KMHV 021820Z AUTO 00000KT 10SM CLR 26/04 A3001 RMK A01

KMHV Airport Info (Airnav.com)

KMHV Flight Activity (Flightaware)

Listeners: 0 out of 2245 total

Joshua Approach (Antelope/UHF): 363.000
Joshua Approach (Antelope/VHF): 124.550
Joshua Approach (MHV area/UHF): 348.700
Joshua Approach (MHV area/VHF): 133.650
Joshua Approach (Palmdale/UHF): 290.300
Joshua Approach (Palmdale/VHF): 126.100

KMHV AWOS (Archives)
Mojave, California, United States

Feed Status: UP
Listen in your browser - HTML5 player(in browser, HTML5)
Click here to listen with your own player(launches your MP3 player)

KMHV 021820Z AUTO 00000KT 10SM CLR 26/04 A3001 RMK A01

KMHV Airport Info (Airnav.com)

KMHV Flight Activity (Flightaware)

Listeners: 0 out of 2245 total

Mojave AWOS: 132.225

KMHV Ground/Tower (Archives)
Mojave, California, United States

Feed Status: UP
Listen in your browser - HTML5 player(in browser, HTML5)
Click here to listen with your own player(launches your MP3 player)

KMHV 021820Z AUTO 00000KT 10SM CLR 26/04 A3001 RMK A01

KMHV Airport Info (Airnav.com)

KMHV Flight Activity (Flightaware)

Listeners: 1 out of 2245 total

Mojave Ground: 123.900
Mojave Tower/CTAF: 127.600
Mojave Tower/CTAF: 288.350

KMIC ATIS (Archives)
Minneapolis, Minnesota, United States

Feed Status: UP
Listen in your browser - HTML5 player(in browser, HTML5)
Click here to listen with your own player(launches your MP3 player)

KMIC 021753Z 13009G18KT 10SM SCT110 22/09 A3033 RMK AO2 SLP269 T02170089 10222 20106 58013

KMIC Airport Info (Airnav.com)

KMIC Flight Activity (Flightaware)

Listeners: 0 out of 2245 total

Crystal ATIS: 124.475

KMIC Emergency/Guard (Archives)
Minneapolis, Minnesota, United States

Feed Status: UP
Listen in your browser - HTML5 player(in browser, HTML5)
Click here to listen with your own player(launches your MP3 player)

KMIC 021753Z 13009G18KT 10SM SCT110 22/09 A3033 RMK AO2 SLP269 T02170089 10222 20106 58013

KMIC Airport Info (Airnav.com)

KMIC Flight Activity (Flightaware)

Listeners: 0 out of 2245 total

Emergency/Guard: 121.500

KMIC Ground (Archives)
Minneapolis, Minnesota, United States

Feed Status: UP
Listen in your browser - HTML5 player(in browser, HTML5)
Click here to listen with your own player(launches your MP3 player)

KMIC 021753Z 13009G18KT 10SM SCT110 22/09 A3033 RMK AO2 SLP269 T02170089 10222 20106 58013

KMIC Airport Info (Airnav.com)

KMIC Flight Activity (Flightaware)

Listeners: 0 out of 2251 total

Crystal Ground: 121.600

KMIC Ground/Tower (Archives)
Minneapolis, Minnesota, United States

Feed Status: UP
Listen in your browser - HTML5 player(in browser, HTML5)
Click here to listen with your own player(launches your MP3 player)

KMIC 021753Z 13009G18KT 10SM SCT110 22/09 A3033 RMK AO2 SLP269 T02170089 10222 20106 58013

KMIC Airport Info (Airnav.com)

KMIC Flight Activity (Flightaware)

Listeners: 0 out of 2251 total

Crystal Ground: 121.600
Crystal Tower/CTAF: 120.700

KMIC Tower/CTAF (Archives)
Minneapolis, Minnesota, United States

Feed Status: UP
Listen in your browser - HTML5 player(in browser, HTML5)
Click here to listen with your own player(launches your MP3 player)

KMIC 021753Z 13009G18KT 10SM SCT110 22/09 A3033 RMK AO2 SLP269 T02170089 10222 20106 58013

KMIC Airport Info (Airnav.com)

KMIC Flight Activity (Flightaware)

Listeners: 0 out of 2251 total

Crystal Tower/CTAF: 120.700

KBLM/N12/3N6/KMJX (Archives)
Toms River, New Jersey, United States

Feed Status: UP
Listen in your browser - HTML5 player(in browser, HTML5)
Click here to listen with your own player(launches your MP3 player)

KBLM 021756Z AUTO 04017G24KT 6SM -RA OVC009 13/ A3007 RMK AO2 PK WND 03026/1725 SLP183 P0001 60030 T0128 10144 20128 51010

KBLM Airport Info (Airnav.com)

KBLM Flight Activity (Flightaware)

Listeners: 0 out of 2251 total

3N6 Old Bridge CTAF: 123.075
Emergency/Guard: 121.500
Monmouth Clearance: 120.950
Monmouth Clearance: 126.150
Monmouth CTAF: 123.000
N12 Lakewood CTAF: 122.800
Ocean County KMJX CTAF: 122.700

KMJX CTAF (Archives)
Toms River, New Jersey, United States

Feed Status: UP
Listen in your browser - HTML5 player(in browser, HTML5)
Click here to listen with your own player(launches your MP3 player)



KMJX Airport Info (Airnav.com)

KMJX Flight Activity (Flightaware)

Listeners: 0 out of 2251 total

Toms River CTAF: 122.700

KMKC ATIS (Archives)
Kansas City, Missouri, United States

Feed Status: UP
Listen in your browser - HTML5 player(in browser, HTML5)
Click here to listen with your own player(launches your MP3 player)

KMKC 021754Z VRB04KT 10SM CLR 23/08 A3029 RMK AO2 SLP253 T02330078 10233 20106 58006 $

KMKC Airport Info (Airnav.com)

KMKC Flight Activity (Flightaware)

Listeners: 0 out of 2251 total

Downtown ATIS: 120.750

KMKC Ground (Archives)
Kansas City, Missouri, United States

Feed Status: UP
Listen in your browser - HTML5 player(in browser, HTML5)
Click here to listen with your own player(launches your MP3 player)

KMKC 021754Z VRB04KT 10SM CLR 23/08 A3029 RMK AO2 SLP253 T02330078 10233 20106 58006 $

KMKC Airport Info (Airnav.com)

KMKC Flight Activity (Flightaware)

Listeners: 0 out of 2251 total

Downtown Ground: 121.900

KMKC Tower (Archives)
Kansas City, Missouri, United States

Feed Status: UP
Listen in your browser - HTML5 player(in browser, HTML5)
Click here to listen with your own player(launches your MP3 player)

KMKC 021754Z VRB04KT 10SM CLR 23/08 A3029 RMK AO2 SLP253 T02330078 10233 20106 58006 $

KMKC Airport Info (Airnav.com)

KMKC Flight Activity (Flightaware)

Listeners: 0 out of 2251 total

Downtown Tower: 133.300

KMKG App/Dep (North) (Archives)
Muskegon, Michigan, United States

Feed Status: UP
Listen in your browser - HTML5 player(in browser, HTML5)
Click here to listen with your own player(launches your MP3 player)

KMKG 021755Z 02010G15KT 10SM SCT250 19/05 A3040 RMK AO2 SLP294 T01940050 10194 20106 58001 $

KMKG Airport Info (Airnav.com)

KMKG Flight Activity (Flightaware)

Listeners: 0 out of 2251 total

Muskegon Approach/Departure (North): 119.800

KMKG App/Dep (North/South) (Archives)
Muskegon, Michigan, United States

Feed Status: UP
Listen in your browser - HTML5 player(in browser, HTML5)
Click here to listen with your own player(launches your MP3 player)

KMKG 021755Z 02010G15KT 10SM SCT250 19/05 A3040 RMK AO2 SLP294 T01940050 10194 20106 58001 $

KMKG Airport Info (Airnav.com)

KMKG Flight Activity (Flightaware)

Listeners: 0 out of 2251 total

Muskegon Approach/Departure (North): 119.800
Muskegon Approach/Departure (South): 133.825

KMKG App/Dep (North/South) (Archives)
Muskegon, Michigan, United States

Feed Status: UP
Listen in your browser - HTML5 player(in browser, HTML5)
Click here to listen with your own player(launches your MP3 player)

KMKG 021755Z 02010G15KT 10SM SCT250 19/05 A3040 RMK AO2 SLP294 T01940050 10194 20106 58001 $

KMKG Airport Info (Airnav.com)

KMKG Flight Activity (Flightaware)

Listeners: 0 out of 2251 total

Muskegon Approach/Departure (North): 119.800
Muskegon Approach/Departure (South): 133.825

KMKG App/Dep (South) (Archives)
Muskegon, Michigan, United States

Feed Status: UP
Listen in your browser - HTML5 player(in browser, HTML5)
Click here to listen with your own player(launches your MP3 player)

KMKG 021755Z 02010G15KT 10SM SCT250 19/05 A3040 RMK AO2 SLP294 T01940050 10194 20106 58001 $

KMKG Airport Info (Airnav.com)

KMKG Flight Activity (Flightaware)

Listeners: 0 out of 2251 total

Muskegon Approach/Departure (South): 133.825

KMKG ATIS (Archives)
Muskegon, Michigan, United States

Feed Status: UP
Listen in your browser - HTML5 player(in browser, HTML5)
Click here to listen with your own player(launches your MP3 player)

KMKG 021755Z 02010G15KT 10SM SCT250 19/05 A3040 RMK AO2 SLP294 T01940050 10194 20106 58001 $

KMKG Airport Info (Airnav.com)

KMKG Flight Activity (Flightaware)

Listeners: 0 out of 2251 total

Muskegon ATIS: 124.300

KMKG Emergency/Guard (Archives)
Muskegon, Michigan, United States

Feed Status: UP
Listen in your browser - HTML5 player(in browser, HTML5)
Click here to listen with your own player(launches your MP3 player)

KMKG 021755Z 02010G15KT 10SM SCT250 19/05 A3040 RMK AO2 SLP294 T01940050 10194 20106 58001 $

KMKG Airport Info (Airnav.com)

KMKG Flight Activity (Flightaware)

Listeners: 0 out of 2251 total

Emergency/Guard: 121.500

KMKG Gnd/Twr/App/Dep (Archives)
Muskegon, Michigan, United States

Feed Status: UP
Listen in your browser - HTML5 player(in browser, HTML5)
Click here to listen with your own player(launches your MP3 player)

KMKG 021755Z 02010G15KT 10SM SCT250 19/05 A3040 RMK AO2 SLP294 T01940050 10194 20106 58001 $

KMKG Airport Info (Airnav.com)

KMKG Flight Activity (Flightaware)

Listeners: 0 out of 2251 total

Muskegon Approach/Departure (North): 119.800
Muskegon Approach/Departure (South): 133.825
Muskegon Ground: 121.600
Muskegon Tower: 126.250

KMKG Ground (Archives)
Muskegon, Michigan, United States

Feed Status: UP
Listen in your browser - HTML5 player(in browser, HTML5)
Click here to listen with your own player(launches your MP3 player)

KMKG 021755Z 02010G15KT 10SM SCT250 19/05 A3040 RMK AO2 SLP294 T01940050 10194 20106 58001 $

KMKG Airport Info (Airnav.com)

KMKG Flight Activity (Flightaware)

Listeners: 0 out of 2251 total

Muskegon Ground: 121.600

KMKG Ground/Tower (Archives)
Muskegon, Michigan, United States

Feed Status: UP
Listen in your browser - HTML5 player(in browser, HTML5)
Click here to listen with your own player(launches your MP3 player)

KMKG 021755Z 02010G15KT 10SM SCT250 19/05 A3040 RMK AO2 SLP294 T01940050 10194 20106 58001 $

KMKG Airport Info (Airnav.com)

KMKG Flight Activity (Flightaware)

Listeners: 0 out of 2251 total

Muskegon Ground: 121.600
Muskegon Tower: 126.250

KMKG Tower (Archives)
Muskegon, Michigan, United States

Feed Status: UP
Listen in your browser - HTML5 player(in browser, HTML5)
Click here to listen with your own player(launches your MP3 player)

KMKG 021755Z 02010G15KT 10SM SCT250 19/05 A3040 RMK AO2 SLP294 T01940050 10194 20106 58001 $

KMKG Airport Info (Airnav.com)

KMKG Flight Activity (Flightaware)

Listeners: 0 out of 2251 total

Muskegon Tower: 126.250

KMKG UNICOM (Archives)
Muskegon, Michigan, United States

Feed Status: UP
Listen in your browser - HTML5 player(in browser, HTML5)
Click here to listen with your own player(launches your MP3 player)

KMKG 021755Z 02010G15KT 10SM SCT250 19/05 A3040 RMK AO2 SLP294 T01940050 10194 20106 58001 $

KMKG Airport Info (Airnav.com)

KMKG Flight Activity (Flightaware)

Listeners: 0 out of 2251 total

Muskegon UNICOM: 122.950

KMKL Tower (Air Race Classic Start)
Jackson, Tennessee, United States

Feed Status: DOWN
Offline since: 2019-06-20 14:39:02 UTC

Jackson Tower: 127.150

KMLB Twr/App (Archives)
Melbourne, Florida, United States

Feed Status: UP
Listen in your browser - HTML5 player(in browser, HTML5)
Click here to listen with your own player(launches your MP3 player)

KMLB 021753Z 10SM CLR 29/16 A2990 RMK AO2 SLP124 T02890161 10289 20206 58012

KMLB Airport Info (Airnav.com)

KMLB Flight Activity (Flightaware)

Listeners: 1 out of 2251 total

Melbourne Tower: 118.200
Orlando Approach: 132.650

KMMU ATIS (Archives)
Morristown, New Jersey, United States

Feed Status: UP
Listen in your browser - HTML5 player(in browser, HTML5)
Click here to listen with your own player(launches your MP3 player)

KMMU 021745Z 06011G20KT 10SM OVC033 15/10 A3012

KMMU Airport Info (Airnav.com)

KMMU Flight Activity (Flightaware)

Listeners: 0 out of 2251 total

Morristown ATIS: 124.250

KMMU Clearance Delivery (Archives)
Morristown, New Jersey, United States

Feed Status: UP
Listen in your browser - HTML5 player(in browser, HTML5)
Click here to listen with your own player(launches your MP3 player)

KMMU 021745Z 06011G20KT 10SM OVC033 15/10 A3012

KMMU Airport Info (Airnav.com)

KMMU Flight Activity (Flightaware)

Listeners: 0 out of 2251 total

Morristown Clearance Delivery: 128.600

KMMU Ground (Archives)
Morristown, New Jersey, United States

Feed Status: UP
Listen in your browser - HTML5 player(in browser, HTML5)
Click here to listen with your own player(launches your MP3 player)

KMMU 021745Z 06011G20KT 10SM OVC033 15/10 A3012

KMMU Airport Info (Airnav.com)

KMMU Flight Activity (Flightaware)

Listeners: 0 out of 2251 total

Morristown Ground: 134.200

KMMU Tower #1 (Archives)
Morristown, New Jersey, United States

Feed Status: UP
Listen in your browser - HTML5 player(in browser, HTML5)
Click here to listen with your own player(launches your MP3 player)

KMMU 021745Z 06011G20KT 10SM OVC033 15/10 A3012

KMMU Airport Info (Airnav.com)

KMMU Flight Activity (Flightaware)

Listeners: 1 out of 2251 total

Morristown Tower: 118.100

KMMU Tower #2 (Archives)
Morristown, New Jersey, United States

Feed Status: UP
Listen in your browser - HTML5 player(in browser, HTML5)
Click here to listen with your own player(launches your MP3 player)

KMMU 021745Z 06011G20KT 10SM OVC033 15/10 A3012

KMMU Airport Info (Airnav.com)

KMMU Flight Activity (Flightaware)

Listeners: 0 out of 2251 total

Morristown Tower: 118.100

KMMV CTAF (Archives)
Mc Minnville, Oregon, United States

Feed Status: UP
Listen in your browser - HTML5 player(in browser, HTML5)
Click here to listen with your own player(launches your MP3 player)

KMMV 021753Z AUTO 00000KT 10SM CLR 23/13 A2994 RMK AO2 SLP136 T02280133 10228 20100 50006

KMMV Airport Info (Airnav.com)

KMMV Flight Activity (Flightaware)

Listeners: 0 out of 2251 total

Mc Minnville CTAF: 123.000

KMNZ CTAF (Archives)
Hamilton, Texas, United States

Feed Status: UP
Listen in your browser - HTML5 player(in browser, HTML5)
Click here to listen with your own player(launches your MP3 player)

KMNZ 021815Z AUTO 05003KT 10SM CLR 27/03 A3019 RMK AO2 T02740032

KMNZ Airport Info (Airnav.com)

KMNZ Flight Activity (Flightaware)

Listeners: 0 out of 2251 total

Hamilton CTAF: 122.700

KMOR AWOS
Morristown, Tennessee, United States

Feed Status: DOWN
Offline since: 2021-02-22 17:33:22 UTC

KMOR 021810Z AUTO 31007KT 10SM OVC021 15/11 A3009 RMK A01

KMOR Airport Info (Airnav.com)

Morristown AWOS: 126.725

KMOR Clearance Delivery
Morristown, Tennessee, United States

Feed Status: DOWN
Offline since: 2021-02-22 17:33:22 UTC

KMOR 021810Z AUTO 31007KT 10SM OVC021 15/11 A3009 RMK A01

KMOR Airport Info (Airnav.com)

Morristown Clearance Delivery (RCO): 132.800

KMOR CTAF
Morristown, Tennessee, United States

Feed Status: DOWN
Offline since: 2021-02-22 17:33:22 UTC

KMOR 021810Z AUTO 31007KT 10SM OVC021 15/11 A3009 RMK A01

KMOR Airport Info (Airnav.com)

Morristown CTAF: 122.800

KMQS/KPTW CTAF (Archives)
Coatesville, Pennsylvania, United States

Feed Status: UP
Listen in your browser - HTML5 player(in browser, HTML5)
Click here to listen with your own player(launches your MP3 player)



KOQN Airport Info (Airnav.com)

KOQN Flight Activity (Flightaware)

Listeners: 0 out of 2251 total

Chester County/Pottstown CTAF: 122.700

KMQY Clearance Delivery (Archives)
Smyrna, Tennessee, United States

Feed Status: UP
Listen in your browser - HTML5 player(in browser, HTML5)
Click here to listen with your own player(launches your MP3 player)

KMQY 021756Z 34012G17KT 10SM CLR 23/09 A3013 RMK AO2 SLP207 T02330094 10239 20117 58008

KMQY Airport Info (Airnav.com)

KMQY Flight Activity (Flightaware)

Listeners: 0 out of 2251 total

Smyrna Clearance Delivery (after Tower closes): 121.700

KMQY Emergency/Guard (Archives)
Smyrna, Tennessee, United States

Feed Status: UP
Listen in your browser - HTML5 player(in browser, HTML5)
Click here to listen with your own player(launches your MP3 player)

KMQY 021756Z 34012G17KT 10SM CLR 23/09 A3013 RMK AO2 SLP207 T02330094 10239 20117 58008

KMQY Airport Info (Airnav.com)

KMQY Flight Activity (Flightaware)

Listeners: 0 out of 2251 total

Emergency/Guard: 121.500

KMQY Ground (Archives)
Smyrna, Tennessee, United States

Feed Status: UP
Listen in your browser - HTML5 player(in browser, HTML5)
Click here to listen with your own player(launches your MP3 player)

KMQY 021756Z 34012G17KT 10SM CLR 23/09 A3013 RMK AO2 SLP207 T02330094 10239 20117 58008

KMQY Airport Info (Airnav.com)

KMQY Flight Activity (Flightaware)

Listeners: 0 out of 2251 total

Smyrna Ground: 121.400

KMQY Ground/Tower (Archives)
Smyrna, Tennessee, United States

Feed Status: UP
Listen in your browser - HTML5 player(in browser, HTML5)
Click here to listen with your own player(launches your MP3 player)

KMQY 021756Z 34012G17KT 10SM CLR 23/09 A3013 RMK AO2 SLP207 T02330094 10239 20117 58008

KMQY Airport Info (Airnav.com)

KMQY Flight Activity (Flightaware)

Listeners: 3 out of 2251 total

Smyrna Ground: 121.400
Smyrna Tower: 118.500

KMQY Tower (Archives)
Smyrna, Tennessee, United States

Feed Status: UP
Listen in your browser - HTML5 player(in browser, HTML5)
Click here to listen with your own player(launches your MP3 player)

KMQY 021756Z 34012G17KT 10SM CLR 23/09 A3013 RMK AO2 SLP207 T02330094 10239 20117 58008

KMQY Airport Info (Airnav.com)

KMQY Flight Activity (Flightaware)

Listeners: 1 out of 2251 total

Smyrna Tower: 118.500

KMRB ATIS (Archives)
Martinsburg, West Virginia, United States

Feed Status: UP
Listen in your browser - HTML5 player(in browser, HTML5)
Click here to listen with your own player(launches your MP3 player)

KMRB 021753Z 36011KT 10SM FEW014 OVC022 12/11 A3007 RMK AO2 RAE39 SLP183 P0001 60042 T01220111 10128 20117 51005

KMRB Airport Info (Airnav.com)

KMRB Flight Activity (Flightaware)

Listeners: 0 out of 2251 total

Martinsburg ATIS/AWOS: 119.925

KMRB Del/Gnd (Archives)
Martinsburg, West Virginia, United States

Feed Status: UP
Listen in your browser - HTML5 player(in browser, HTML5)
Click here to listen with your own player(launches your MP3 player)

KMRB 021753Z 36011KT 10SM FEW014 OVC022 12/11 A3007 RMK AO2 RAE39 SLP183 P0001 60042 T01220111 10128 20117 51005

KMRB Airport Info (Airnav.com)

KMRB Flight Activity (Flightaware)

Listeners: 0 out of 2251 total

Martinsburg Clearance Delivery (after hours via Potomac TRACON): 132.075
Martinsburg Ground: 121.800

KMRB Emergency/Guard (Archives)
Martinsburg, West Virginia, United States

Feed Status: UP
Listen in your browser - HTML5 player(in browser, HTML5)
Click here to listen with your own player(launches your MP3 player)

KMRB 021753Z 36011KT 10SM FEW014 OVC022 12/11 A3007 RMK AO2 RAE39 SLP183 P0001 60042 T01220111 10128 20117 51005

KMRB Airport Info (Airnav.com)

KMRB Flight Activity (Flightaware)

Listeners: 0 out of 2251 total

Emergency/Guard: 121.500

KMRB Tower/CTAF (Archives)
Martinsburg, West Virginia, United States

Feed Status: UP
Listen in your browser - HTML5 player(in browser, HTML5)
Click here to listen with your own player(launches your MP3 player)

KMRB 021753Z 36011KT 10SM FEW014 OVC022 12/11 A3007 RMK AO2 RAE39 SLP183 P0001 60042 T01220111 10128 20117 51005

KMRB Airport Info (Airnav.com)

KMRB Flight Activity (Flightaware)

Listeners: 0 out of 2251 total

Martinsburg Tower: 124.300

KMRN CTAF (Archives)
Morganton, North Carolina, United States

Feed Status: UP
Listen in your browser - HTML5 player(in browser, HTML5)
Click here to listen with your own player(launches your MP3 player)

KHKY 021753Z 02007KT 10SM BKN100 20/12 A2998 RMK AO2 SLP138 T02000122 10200 20111 58001

KHKY Airport Info (Airnav.com)

KHKY Flight Activity (Flightaware)

Listeners: 0 out of 2251 total

Foothills CTAF: 122.700

KMSO Gnd/Twr/App/ZLC/ZSE (Archives)
Missoula, Montana, United States

Feed Status: UP
Listen in your browser - HTML5 player(in browser, HTML5)
Click here to listen with your own player(launches your MP3 player)

KMSO 021753Z 00000KT 10SM FEW013 OVC065 13/09 A3012 RMK AO2 SLP198 T01330089 10133 20078 50002

KMSO Airport Info (Airnav.com)

KMSO Flight Activity (Flightaware)

Listeners: 4 out of 2251 total

Emergency/Guard: 121.500
Great Falls Radio Miller Peak RCO: 122.450
Minuteman Jet Center Unicom: 122.950
Missoula Ground/Clearance Delivery: 121.900
Missoula International Airport Operations: 155.820
Missoula International Airport Operations: 154.965
Missoula Tower: 118.400
Northstar Unicom: 123.300
Salt Lake Center: 132.400
Salt Lake City Center: 133.400
Seattle Center (Mullan Pass RCAG): 128.450
Spokane Approach/Departure: 124.900

KMTC Ground/Tower
Mount Clemens, Michigan, United States

Feed Status: DOWN
Offline since: 2021-08-25 06:45:39 UTC

KMTC 021756Z 03014KT 10SM FEW030 17/06 A3030 RMK AO2A SLP266 T01730055 10173 20091 58006

KMTC Airport Info (Airnav.com)

Selfridge Ground: 128.300
Selfridge Ground: 275.800
Selfridge Tower: 120.150
Selfridge Tower: 225.400

KMTN Gnd/Twr (Archives)
Baltimore, Maryland, United States

Feed Status: UP
Listen in your browser - HTML5 player(in browser, HTML5)
Click here to listen with your own player(launches your MP3 player)

KMTN 021754Z 36005KT 4SM DZ BKN010 OVC014 13/13 A3004

KMTN Airport Info (Airnav.com)

KMTN Flight Activity (Flightaware)

Listeners: 0 out of 2251 total

Helo Air to Air: 123.025
Martin Ground/Clearance: 121.800
Martin Ground/Clearance: 253.400
Martin Tower: 121.300
Martin Tower: 254.425

KMTN Ground/Misc (Archives)
Baltimore, Maryland, United States

Feed Status: UP
Listen in your browser - HTML5 player(in browser, HTML5)
Click here to listen with your own player(launches your MP3 player)

KMTN 021754Z 36005KT 4SM DZ BKN010 OVC014 13/13 A3004

KMTN Airport Info (Airnav.com)

KMTN Flight Activity (Flightaware)

Listeners: 0 out of 2251 total

Helo Air to Air: 123.025
Martin Ground/Clearance: 121.800
Martin Ground/Clearance: 253.400

KMTN Tower (Archives)
Baltimore, Maryland, United States

Feed Status: UP
Listen in your browser - HTML5 player(in browser, HTML5)
Click here to listen with your own player(launches your MP3 player)

KMTN 021754Z 36005KT 4SM DZ BKN010 OVC014 13/13 A3004

KMTN Airport Info (Airnav.com)

KMTN Flight Activity (Flightaware)

Listeners: 0 out of 2251 total

Martin Tower: 121.300
Martin Tower: 254.425

KMTW CTAF (Archives)
Manitowoc, Wisconsin, United States

Feed Status: UP
Listen in your browser - HTML5 player(in browser, HTML5)
Click here to listen with your own player(launches your MP3 player)

KMTW 021756Z AUTO 02008KT 10SM CLR 15/08 A3045 RMK AO2 SLP312 T01500083 10156 20122 58001

KMTW Airport Info (Airnav.com)

KMTW Flight Activity (Flightaware)

Listeners: 0 out of 2251 total

Manitowoc CTAF: 122.800

KMWA Gnd/Twr/CTAF (Archives)
Marion, Illinois, United States

Feed Status: UP
Listen in your browser - HTML5 player(in browser, HTML5)
Click here to listen with your own player(launches your MP3 player)

KMWA 021745Z 03008G16KT 20SM CLR 23/08 A3024

KMWA Airport Info (Airnav.com)